[[{"header":{"parameterUnit":"m.s-1","parameterCategory":1,"la1":30.6,"la2":28.766,"lo1":-90.7593,"lo2":-88.6598,"dy":0.0162,"dx":0.0183,"nx":116,"ny":114,"refTime":"2023-03-14T18:00:00:Z","depth":0,"parameterNumber":2,"parameterNumberName":"U-component_of_WINDS"},"data":[0.0,0.0,0.0,0.0,0.0,0.0,0.0,0.0,0.0,0.0,0.0,0.0,0.0,0.0,0.0,0.0,0.0,0.0,0.0,0.0,0.0,0.0,0.0,0.0,0.0,0.0,0.0,0.0,0.0,0.0,0.0,0.0,0.0,0.0,0.0,0.0,0.0,0.0,0.0,0.0,0.0,0.0,0.0,0.0,0.0,0.0,0.0,0.0,0.0,0.0,0.0,0.0,0.0,0.0,0.0,0.0,0.0,0.0,0.0,0.0,0.0,0.0,0.0,0.0,0.0,0.0,0.0,0.0,0.0,0.0,0.0,0.0,0.0,0.0,0.0,0.0,0.0,0.0,0.0,0.0,0.0,0.0,0.0,0.0,0.0,0.0,0.0,0.0,0.0,0.0,0.0,0.0,0.0,0.0,0.0,0.0,0.0,0.0,0.0,0.0,0.0,0.0,0.0,0.0,0.0,0.0,0.0,0.0,0.0,0.0,0.0,0.0,0.0,0.0,0.0,0.0,0.0,0.0,0.0,0.0,0.0,0.0,0.0,0.0,0.0,0.0,0.0,0.0,0.0,0.0,0.0,0.0,0.0,0.0,0.0,0.0,0.0,0.0,0.0,0.0,0.0,0.0,0.0,0.0,0.0,0.0,0.0,0.0,0.0,0.0,0.0,0.0,0.0,0.0,0.0,0.0,0.0,0.0,0.0,0.0,0.0,0.0,0.0,0.0,0.0,0.0,0.0,0.0,0.0,0.0,0.0,0.0,0.0,0.0,0.0,0.0,0.0,0.0,0.0,0.0,0.0,0.0,0.0,0.0,0.0,0.0,0.0,0.0,0.0,0.0,0.0,0.0,0.0,0.0,0.0,0.0,0.0,0.0,0.0,0.0,0.0,0.0,0.0,0.0,0.0,0.0,0.0,0.0,0.0,0.0,0.0,0.0,0.0,0.0,0.0,0.0,0.0,0.0,0.0,0.0,0.0,0.0,0.0,0.0,0.0,0.0,0.0,0.0,0.0,0.0,0.0,0.0,0.0,0.0,0.0,0.0,0.0,0.0,0.0,0.0,0.0,0.0,0.0,0.0,0.0,0.0,0.0,0.0,0.0,0.0,0.0,0.0,0.0,0.0,0.0,0.0,0.0,0.0,0.0,0.0,0.0,0.0,0.0,0.0,0.0,0.0,0.0,0.0,0.0,0.0,0.0,0.0,0.0,0.0,0.0,0.0,0.0,0.0,0.0,0.0,0.0,0.0,0.0,0.0,0.0,0.0,0.0,0.0,0.0,0.0,0.0,0.0,0.0,0.0,0.0,0.0,0.0,0.0,0.0,0.0,0.0,0.0,0.0,0.0,0.0,0.0,0.0,0.0,0.0,0.0,0.0,0.0,0.0,0.0,0.0,0.0,0.0,0.0,0.0,0.0,0.0,0.0,0.0,0.0,0.0,0.0,0.0,0.0,0.0,0.0,0.0,0.0,0.0,0.0,0.0,0.0,0.0,0.0,0.0,0.0,0.0,0.0,0.0,0.0,0.0,0.0,0.0,0.0,0.0,0.0,0.0,0.0,0.0,0.0,0.0,0.0,0.0,0.0,0.0,0.0,0.0,0.0,0.0,0.0,0.0,0.0,0.0,0.0,0.0,0.0,0.0,0.0,0.0,0.0,0.0,0.0,0.0,0.0,0.0,0.0,0.0,0.0,0.0,0.0,0.0,0.0,0.0,0.0,0.0,0.0,0.0,0.0,0.0,0.0,0.0,0.0,0.0,0.0,0.0,0.0,0.0,0.0,0.0,0.0,0.0,0.0,0.0,0.0,0.0,0.0,0.0,0.0,0.0,0.0,0.0,0.0,0.0,0.0,0.0,0.0,0.0,0.0,0.0,0.0,0.0,0.0,0.0,0.0,0.0,0.0,0.0,0.0,0.0,0.0,0.0,0.0,0.0,0.0,0.0,0.0,0.0,0.0,0.0,0.0,0.0,0.0,0.0,0.0,0.0,0.0,0.0,0.0,0.0,0.0,0.0,0.0,0.0,0.0,0.0,0.0,0.0,0.0,0.0,0.0,0.0,0.0,0.0,0.0,0.0,0.0,0.0,0.0,0.0,0.0,0.0,0.0,0.0,0.0,0.0,0.0,0.0,0.0,0.0,0.0,0.0,0.0,0.0,0.0,0.0,0.0,0.0,0.0,0.0,0.0,0.0,0.0,0.0,0.0,0.0,0.0,0.0,0.0,0.0,0.0,0.0,0.0,0.0,0.0,0.0,0.0,0.0,0.0,0.0,0.0,0.0,0.0,0.0,0.0,0.0,0.0,0.0,0.0,0.0,0.0,0.0,0.0,0.0,0.0,0.0,0.0,0.0,0.0,0.0,0.0,0.0,0.0,0.0,0.0,0.0,0.0,0.0,0.0,0.0,0.0,0.0,0.0,0.0,0.0,0.0,0.0,0.0,0.0,0.0,0.0,0.0,0.0,0.0,0.0,0.0,0.0,0.0,0.0,0.0,0.0,0.0,0.0,0.0,0.0,0.0,0.0,0.0,0.0,0.0,0.0,0.0,0.0,0.0,0.0,0.0,0.0,0.0,0.0,0.0,0.0,0.0,0.0,0.0,0.0,0.0,0.0,0.0,0.0,0.0,0.0,0.0,0.0,0.0,0.0,0.0,0.0,0.0,0.0,0.0,0.0,0.0,0.0,0.0,0.0,0.0,0.0,0.0,0.0,0.0,0.0,0.0,0.0,0.0,0.0,0.0,0.0,0.0,0.0,0.0,0.0,0.0,0.0,0.0,0.0,0.0,0.0,0.0,0.0,0.0,0.0,0.0,0.0,0.0,0.0,0.0,0.0,0.0,0.0,0.0,0.0,0.0,0.0,0.0,0.0,0.0,0.0,0.0,0.0,0.0,0.0,0.0,0.0,0.0,0.0,0.0,0.0,0.0,0.0,0.0,0.0,0.0,0.0,0.0,0.0,0.0,0.0,0.0,0.0,0.0,0.0,0.0,0.0,0.0,0.0,0.0,0.0,0.0,0.0,0.0,0.0,0.0,0.0,0.0,0.0,0.0,0.0,0.0,0.0,0.0,0.0,0.0,0.0,0.0,0.0,0.0,0.0,0.0,0.0,0.0,0.0,0.0,0.0,0.0,0.0,0.0,0.0,0.0,0.0,0.0,0.0,0.0,0.0,0.0,0.0,0.0,0.0,0.0,0.0,0.0,0.0,0.0,0.0,0.0,0.0,0.0,0.0,0.0,0.0,0.0,0.0,0.0,0.0,0.0,0.0,0.0,0.0,0.0,0.0,0.0,0.0,0.0,0.0,0.0,0.0,0.0,0.0,0.0,0.0,0.0,0.0,0.0,0.0,0.0,0.0,0.0,0.0,0.0,0.0,0.0,0.0,0.0,0.0,0.0,0.0,0.0,0.0,0.0,0.0,0.0,0.0,0.0,0.0,0.0,0.0,0.0,0.0,0.0,0.0,0.0,0.0,0.0,0.0,0.0,0.0,0.0,0.0,0.0,0.0,0.0,0.0,0.0,0.0,0.0,0.0,0.0,0.0,0.0,0.0,0.0,0.0,0.0,0.0,0.0,0.0,0.0,0.0,0.0,0.0,0.0,0.0,0.0,0.0,0.0,0.0,0.0,0.0,0.0,0.0,0.0,0.0,0.0,0.0,0.0,0.0,0.0,0.0,0.0,0.0,0.0,0.0,0.0,0.0,0.0,0.0,0.0,0.0,0.0,0.0,0.0,0.0,0.0,0.0,0.0,0.0,0.0,0.0,0.0,0.0,0.0,0.0,0.0,0.0,0.0,0.0,0.0,0.0,0.0,0.0,0.0,0.0,0.0,0.0,0.0,0.0,0.0,0.0,0.0,0.0,0.0,0.0,0.0,0.0,0.0,0.0,0.0,0.0,0.0,0.0,0.0,0.0,0.0,0.0,0.0,0.0,0.0,0.0,0.0,0.0,0.0,0.0,0.0,0.0,0.0,0.0,0.0,0.0,0.0,0.0,0.0,0.0,0.0,0.0,0.0,0.0,0.0,0.0,0.0,0.0,0.0,0.0,0.0,0.0,0.0,0.0,0.0,0.0,0.0,0.0,0.0,0.0,0.0,0.0,0.0,0.0,0.0,0.0,0.0,0.0,0.0,0.0,0.0,0.0,0.0,0.0,0.0,0.0,0.0,0.0,0.0,0.0,0.0,0.0,0.0,0.0,0.0,0.0,0.0,0.0,0.0,0.0,0.0,0.0,0.0,0.0,0.0,0.0,0.0,0.0,0.0,0.0,0.0,0.0,0.0,0.0,0.0,0.0,0.0,0.0,0.0,0.0,0.0,0.0,0.0,0.0,0.0,0.0,0.0,0.0,0.0,0.0,0.0,0.0,0.0,0.0,0.0,0.0,0.0,0.0,0.0,0.0,0.0,0.0,0.0,0.0,0.0,0.0,0.0,0.0,0.0,0.0,0.0,0.0,0.0,0.0,0.0,0.0,0.0,0.0,0.0,0.0,0.0,0.0,0.0,0.0,0.0,0.0,0.0,0.0,0.0,0.0,0.0,0.0,0.0,0.0,0.0,0.0,0.0,0.0,0.0,0.0,0.0,0.0,0.0,0.0,0.0,0.0,0.0,0.0,0.0,0.0,0.0,0.0,0.0,0.0,0.0,0.0,0.0,0.0,0.0,0.0,0.0,0.0,0.0,0.0,0.0,0.0,0.0,0.0,0.0,0.0,0.0,0.0,0.0,0.0,0.0,0.0,0.0,0.0,0.0,0.0,0.0,0.0,0.0,0.0,0.0,0.0,0.0,0.0,0.0,0.0,0.0,0.0,0.0,0.0,0.0,0.0,0.0,0.0,0.0,0.0,0.0,0.0,0.0,0.0,0.0,0.0,0.0,0.0,0.0,0.0,0.0,0.0,0.0,0.0,0.0,0.0,0.0,0.0,0.0,0.0,0.0,0.0,0.0,0.0,0.0,0.0,0.0,0.0,0.0,0.0,0.0,0.0,0.0,0.0,0.0,0.0,0.0,0.0,0.0,0.0,0.0,0.0,0.0,0.0,0.0,0.0,0.0,0.0,0.0,0.0,0.0,0.0,0.0,0.0,0.0,0.0,0.0,0.0,0.0,0.0,0.0,0.0,0.0,0.0,0.0,0.0,0.0,0.0,0.0,0.0,0.0,0.0,0.0,0.0,0.0,0.0,0.0,0.0,0.0,0.0,0.0,0.0,0.0,0.0,0.0,0.0,0.0,0.0,0.0,0.0,0.0,0.0,0.0,0.0,0.0,0.0,0.0,0.0,0.0,0.0,0.0,0.0,0.0,0.0,0.0,0.0,0.0,0.0,0.0,0.0,0.0,0.0,0.0,0.0,0.0,0.0,0.0,0.0,0.0,0.0,0.0,0.0,0.0,0.0,0.0,0.0,0.0,0.0,0.0,0.0,0.0,0.0,0.0,0.0,0.0,0.0,0.0,0.0,0.0,0.0,0.0,0.0,0.0,0.0,0.0,0.0,0.0,0.0,0.0,0.0,0.0,0.0,0.0,0.0,0.0,0.0,0.0,0.0,0.0,0.0,0.0,0.0,0.0,0.0,0.0,0.0,0.0,0.0,0.0,0.0,0.0,0.0,0.0,0.0,0.0,0.0,0.0,0.0,0.0,0.0,0.0,0.0,0.0,0.0,0.0,0.0,0.0,0.0,0.0,0.0,0.0,0.0,0.0,0.0,0.0,0.0,0.0,0.0,0.0,0.0,0.0,0.0,0.0,0.0,0.0,0.0,0.0,0.0,0.0,0.0,0.0,0.0,0.0,0.0,0.0,0.0,0.0,0.0,0.0,0.0,0.0,0.0,0.0,0.0,0.0,0.0,0.0,0.0,0.0,0.0,0.0,0.0,0.0,0.0,0.0,0.0,0.0,0.0,0.0,0.0,0.0,0.0,0.0,0.0,0.0,0.0,0.0,0.0,0.0,0.0,0.0,0.0,0.0,0.0,0.0,0.0,0.0,0.0,0.0,0.0,0.0,0.0,0.0,0.0,0.0,0.0,0.0,0.0,0.0,0.0,0.0,0.0,0.0,0.0,0.0,0.0,0.0,0.0,0.0,0.0,0.0,0.0,0.0,0.0,0.0,0.0,0.6147,0.71,0.0,0.0,0.0,0.0,0.0,0.0,0.0,0.0,0.0,0.0,0.0,0.0,0.0,0.0,0.0,0.0,0.0,0.0,0.0,0.0,0.0,0.0,0.0,0.0,0.0,0.0,0.0,0.0,0.0,0.0,0.0,0.0,0.0,0.0,0.0,0.0,0.0,0.0,0.0,0.0,0.0,0.0,0.0,0.0,0.0,0.0,0.0,0.0,0.0,0.0,0.0,0.0,0.0,0.0,0.0,0.0,0.0,0.0,0.0,0.0,0.0,0.0,0.0,0.0,0.0,0.0,0.0,0.0,0.0,0.0,0.0,0.0,0.0,0.0,0.0,0.0,0.0,0.0,0.0,0.0,0.0,0.0,0.0,0.0,0.0,0.0,0.0,0.0,0.0,0.0,0.0,0.0,0.0,0.0,0.0,0.0,0.0,0.0,0.0,0.0,0.0,0.0,0.0,0.0,0.0,0.0,0.0,0.0,0.0,0.0,0.0,0.0,0.0,0.0,0.4912,0.5906,0.0,0.0,0.0,0.0,0.0,0.0,0.0,0.0,0.0,0.0,0.0,0.0,0.0,0.0,0.0,0.0,0.0,0.0,0.0,0.0,0.0,0.0,0.0,0.0,0.0,0.0,0.0,0.0,0.0,0.0,0.0,0.0,0.0,0.0,0.0,0.0,0.0,0.0,0.0,0.0,0.0,0.0,0.0,0.0,0.0,0.0,0.0,0.0,0.0,0.0,0.0,0.0,0.0,0.0,0.0,0.0,0.0,0.0,0.0,0.0,0.0,0.0,0.0,0.0,0.0,0.0,0.0,0.0,0.0,0.0,0.0,0.0,0.0,0.0,0.0,0.0,0.0,0.0,0.0,0.0,0.0,0.0,0.0,0.0,0.0,0.0,0.0,0.0,0.0,0.0,0.0,0.0,0.0,0.0,0.0,0.0,0.0,0.0,0.0,0.0,0.0,0.0,0.0,0.0,0.0,0.0,0.0,0.0,0.0779,0.1247,0.1729,0.1454,0.1852,0.2822,0.3501,0.4318,0.5199,0.5446,0.0,0.0,0.0,0.0,0.0,0.0,0.0,0.0,0.0,0.0,0.0,0.0,0.0,0.0,0.0,0.0,0.0,0.0,0.0,0.0,0.0,-0.3006,-0.2966,-0.3093,-0.2788,-0.2351,0.0,0.0,0.0,0.0,0.0,0.0,0.0,0.0,0.0,0.0,0.0,0.0,-1.0825,-1.1239,-1.1036,-1.0236,-0.7993,0.0,0.0,0.0,0.0,0.0,0.0,0.0,0.0,0.0,0.0,0.0,0.0,0.0,0.0,0.0,0.0,0.0,0.0,0.0,0.0,0.0,0.0,0.0,0.0,0.0,0.0,0.0,0.0,0.0,0.0,0.0,0.0,0.0,0.0,0.0,0.0,0.0,0.0,0.0,0.0,0.0,0.0,0.0,-0.3324,-0.224,0.0,0.0,0.0,0.0,0.0,0.0,0.0,0.0,0.0,0.0,0.0,0.0,0.0,-0.0474,-0.0553,-0.0287,0.0106,0.0638,0.0248,0.0709,0.1837,0.1004,0.1231,0.2258,0.1634,0.0,0.3942,0.4041,0.0,0.0,0.0,0.0,0.0,0.0,0.0,0.0,0.0,0.0,0.0,0.0,0.0,0.0,0.0,0.0,0.0,0.0,0.0,0.0,0.0,-0.4058,-0.4314,-0.4372,-0.4154,-0.3783,-0.3254,0.0,0.0,0.0,0.0,0.0,0.0,0.0,0.0,0.0,-0.7688,-0.9197,-1.0353,-1.1133,-1.137,-1.1112,-0.9935,-0.8393,-0.6631,-0.5868,0.0,0.0,0.0,0.0,0.0,0.0,0.0,0.0,0.0,0.0,0.0,0.0,0.0,0.0,0.0,0.0,0.0,0.0,0.0,0.0,0.0,0.0,0.0,0.0,0.0,0.0,0.0,0.0,0.0,0.0,0.0,0.0,0.0,0.0,0.0,0.0,0.0,0.0,0.0,-0.3788,-0.4193,-0.3047,-0.3225,-0.2744,0.0,0.0,0.0,0.0,0.0,0.0,0.0,0.0,0.0,-0.0877,-0.0448,-0.0186,-0.0093,0.0019,0.0239,0.0538,0.0525,0.0942,0.1717,0.1305,0.1496,0.212,0.1538,0.1744,0.2469,0.2502,0.2841,0.3415,0.0,0.0,0.0,0.0,0.6189,0.6841,0.0,0.0,0.0,0.0,0.0,0.0,0.0,0.0,0.0,0.0,0.0,0.0,-0.4367,-0.5203,-0.5713,-0.56,-0.5412,-0.499,-0.4274,-0.348,0.0,0.0,0.0,0.0,0.0,0.0,0.0,-0.5849,-0.688,-0.797,-0.911,-1.0156,-1.0631,-1.0598,-1.0719,-0.9858,-0.8295,-0.7672,-0.6316,0.0,0.0,0.0,0.0,0.0,0.0,0.0,0.0,0.0,0.0,0.0,0.0,0.0,0.0,0.0,0.0,0.0,0.0,0.0,0.0,0.0,0.0,0.0,0.0,0.0,0.0,0.0,0.0,0.0,0.0,0.0,0.0,0.0,0.0,0.0,0.0,0.0,0.0,-0.4588,-0.4953,-0.3839,-0.4094,-0.3646,0.0,0.0,0.0,0.0,0.0,0.0,-0.0501,-0.023,-0.0077,-0.0039,0.0493,0.0746,0.0718,0.0931,0.102,0.0984,0.1363,0.174,0.2135,0.1909,0.1967,0.2216,0.1681,0.1427,0.1385,0.1433,0.1645,0.201,0.2659,0.3355,0.4056,0.4734,0.5397,0.5964,0.0,0.0,0.0,0.0,0.0,0.0,0.0,0.0,0.0,0.0,0.0,-0.4985,-0.5381,-0.6373,-0.6837,-0.6383,-0.6041,-0.5254,-0.3821,-0.3216,-0.2622,0.0,0.0,0.0,0.0,0.0,0.0,-0.5431,-0.5818,-0.629,-0.6895,-0.8083,-0.8638,-0.869,-0.9895,-1.0087,-0.9468,-0.8808,-0.7579,-0.6035,0.0,0.0,0.0,0.0,0.0,0.0,0.0,0.0,0.0,0.0,0.0,0.0,0.0,0.0,0.0,0.0,0.0,0.0,0.0,0.0,0.0,0.0,0.0,0.0,0.0,0.0,0.0,0.0,0.0,0.0,0.0,0.0,0.0,0.0,0.0,0.0,0.0,0.0,0.0,-0.4681,-0.4516,0.0,0.0,0.0,0.0,-0.0911,-0.1212,-0.1111,-0.0445,-0.004,0.0414,0.0906,0.2179,0.2528,0.183,0.2648,0.2902,0.259,0.2858,0.3212,0.3569,0.2734,0.2466,0.2612,0.1512,0.1032,0.1048,0.1233,0.1396,0.1564,0.1997,0.2522,0.3101,0.3465,0.4094,0.476,0.0,0.0,0.0,0.0,0.0,0.0,0.0,0.0,0.0,-0.2791,-0.3617,-0.4278,-0.4518,-0.5569,-0.6237,-0.6146,-0.5765,-0.522,-0.4524,-0.3279,-0.2394,0.0,0.0,0.0,0.0,0.0,-0.2516,-0.3016,-0.3743,-0.4351,-0.4859,-0.6112,-0.6904,-0.731,-0.8246,-0.89,-0.9288,-0.9492,-0.8758,-0.7434,-0.6733,-0.5296,0.0,0.0,0.0,0.0,0.0,0.0,0.0,0.0,0.0,0.0,0.0,0.0,0.0,0.0,0.0,0.0,0.0,0.0,0.0,0.0,0.0,0.0,0.0,0.0,0.0,0.0,0.0,0.0,0.0,0.0,0.0,0.0,0.0,0.0,0.0,0.0,0.0,-0.2806,-0.3376,0.0,-0.1519,-0.1198,-0.0602,0.056,0.0414,0.0833,0.2113,0.2435,0.2804,0.3292,0.3943,0.4278,0.4272,0.4765,0.4925,0.4772,0.5124,0.5373,0.548,0.5043,0.4796,0.4652,0.3948,0.3746,0.3903,0.3964,0.3036,0.1678,0.2863,0.3532,0.3944,0.4837,0.5386,0.57,0.0,0.0,0.0,0.0,0.0,0.0,0.0,0.0,0.0,-0.2275,-0.3021,-0.3577,-0.3718,-0.4781,-0.5446,-0.5341,-0.5021,-0.4574,-0.3994,-0.274,-0.1861,0.0,0.0,0.0,0.0,-0.0889,-0.1212,-0.1504,-0.2074,-0.2513,-0.2852,-0.4177,-0.4973,-0.5367,-0.6396,-0.7408,-0.8386,-0.8931,-0.9005,-0.8718,-0.7988,-0.6691,-0.5078,0.0,0.0,0.0,0.0,0.0,0.0,0.0,0.0,0.0,0.0,0.0,0.0,0.0,0.0,0.0,0.0,0.0,0.0,0.0,0.0,0.0,0.0,0.0,0.0,0.0,0.0,0.0,0.0,0.0,0.0,0.0,0.0,0.0,0.0,0.0,-0.252,-0.1677,-0.2055,-0.1815,-0.0326,0.0044,0.0764,0.2167,0.2143,0.2626,0.3871,0.4362,0.4871,0.543,0.5838,0.6069,0.6101,0.6294,0.6245,0.5963,0.6408,0.6598,0.6598,0.6453,0.6308,0.6117,0.5689,0.5604,0.579,0.5996,0.5046,0.3571,0.4484,0.498,0.5285,0.6146,0.651,0.6563,0.0,0.0,0.0,0.0,0.0,0.0,0.0,-0.0603,-0.0892,-0.1228,-0.2254,-0.2996,-0.3137,-0.4159,-0.4589,-0.4008,-0.3882,-0.3341,-0.2165,-0.1579,-0.1,0.0,0.0,0.0,-0.0421,-0.0623,-0.0826,-0.1028,-0.0917,-0.0871,-0.0902,-0.2276,-0.2869,-0.2828,-0.442,-0.5754,-0.6843,-0.7125,-0.8238,-0.9753,-0.9147,-0.8184,-0.7003,0.0,0.0,0.0,0.0,0.0,0.0,0.0,0.0,0.0,0.0,0.0,0.0,0.0,0.0,0.0,0.0,0.0,0.0,0.0,0.0,0.0,0.0,0.0,0.0,0.0,0.0,0.0,0.0,0.0,0.0,0.0,0.0,0.0,-0.0487,-0.1223,-0.1468,-0.1353,-0.0597,0.0283,0.1201,0.2301,0.3205,0.3832,0.3894,0.4133,0.4696,0.5579,0.6402,0.7142,0.7791,0.7833,0.7187,0.7205,0.6858,0.6229,0.6694,0.6915,0.6908,0.689,0.689,0.6858,0.6516,0.6389,0.6444,0.7024,0.7274,0.7233,0.6764,0.6723,0.6978,0.718,0.7261,0.7204,0.0,0.0,0.0,0.0,0.0,0.0,0.0,-0.0105,-0.0323,-0.0618,-0.1222,-0.1772,-0.2139,-0.2679,-0.2994,-0.292,-0.272,-0.2325,-0.1698,-0.1069,0.0,0.0,0.0,0.0,0.1159,0.082,0.0624,0.0571,0.0174,-0.0051,-0.0116,-0.0805,-0.1436,-0.2045,-0.2969,-0.404,-0.5201,-0.5751,-0.6713,-0.7934,-0.8622,-0.8469,-0.7746,0.0,0.0,0.0,0.0,0.0,0.0,0.0,0.0,0.0,0.0,0.0,0.0,0.0,0.0,0.0,0.0,0.0,0.0,0.0,0.0,0.0,0.0,0.0,0.0,0.0,0.0,0.0,0.0,0.0,0.0,0.0,0.0,0.3286,0.1832,0.209,0.2382,0.222,0.2585,0.3031,0.3487,0.3811,0.4499,0.5738,0.5829,0.6281,0.7293,0.7591,0.7987,0.854,0.8729,0.8918,0.9131,0.9284,0.9191,0.8855,0.9191,0.9252,0.9113,0.8767,0.8614,0.8592,0.8164,0.8162,0.8488,0.866,0.8918,0.9167,0.8384,0.8139,0.8242,0.8603,0.8731,0.8698,0.0,0.0,0.0,0.0,0.0,0.0,0.0,0.0906,0.0871,0.0752,0.0461,0.0205,-0.0018,-0.0483,-0.0795,-0.0778,-0.0966,-0.0841,-0.0245,0.0507,0.0,0.0,0.0,0.2239,0.2586,0.2366,0.2239,0.2239,0.1613,0.1288,0.1233,0.0427,-0.0184,-0.065,-0.1394,-0.2312,-0.3327,-0.3917,-0.4799,-0.5886,-0.696,-0.7675,-0.8035,-0.7436,-0.7125,-0.6963,-0.6618,-0.6065,-0.5344,-0.4265,0.0,0.0,0.0,0.0,0.0,0.0,0.0,0.0,0.0,0.0,0.0,0.0,0.0,0.0,0.0,0.0,0.0,0.0,0.0,0.0,0.0,0.0,0.0,0.0,0.4915,0.5208,0.4623,0.4448,0.4289,0.4058,0.448,0.4956,0.5378,0.571,0.639,0.7509,0.7798,0.8214,0.8942,0.906,0.932,0.9799,0.9837,1.01,1.0612,1.079,1.0871,1.0867,1.0781,1.0695,1.0568,1.0081,0.9835,0.9831,0.9478,0.9687,1.0308,1.0175,1.0555,1.1089,0.0,0.0,0.0,0.0,0.9678,1.0007,0.0,0.0,0.0,0.0,0.0,0.0,0.0,0.2235,0.2397,0.2417,0.2372,0.2373,0.2422,0.1854,0.1502,0.1625,0.1019,0.0978,0.1823,0.0,0.0,0.3311,0.3617,0.3802,0.3795,0.3785,0.379,0.379,0.3193,0.289,0.2845,0.159,0.1045,0.1039,0.0162,-0.0672,-0.1421,-0.1898,-0.2672,-0.3684,-0.4458,-0.5986,-0.7762,-0.7298,-0.7426,-0.7818,-0.7479,-0.7203,-0.6894,-0.6289,0.0,0.0,0.0,0.0,0.0,0.0,0.0,0.0,0.0,0.0,0.0,0.0,0.0,0.0,0.0,0.0,0.0,0.0,0.0,0.0,0.0,0.0,0.0,0.0,0.6532,0.7377,0.7541,0.6398,0.5431,0.5143,0.5795,0.651,0.7083,0.7775,0.8471,0.9118,0.9563,0.985,0.9934,1.0092,0.0,0.0,0.0,1.1211,1.1712,1.1848,1.2053,1.2358,1.1854,1.1602,1.1602,1.1088,1.087,1.0879,1.0674,1.1068,1.1854,1.1576,1.2025,1.2722,1.0991,1.0309,1.0287,1.0054,1.0473,1.1166,0.0,0.0,0.0,0.0,0.0,0.0,0.0,0.3495,0.348,0.3216,0.3228,0.31,0.2679,0.2513,0.2275,0.1883,0.2339,0.2893,0.0,0.0,0.3984,0.4087,0.4246,0.4365,0.4431,0.4369,0.4344,0.4344,0.417,0.4014,0.3896,0.3253,0.2682,0.215,0.116,0.0397,-0.0179,-0.0596,-0.0956,-0.1268,-0.1436,-0.3345,-0.6119,-0.6502,-0.6806,-0.7094,-0.7603,-0.7681,-0.7447,-0.6783,-0.5899,-0.4882,-0.3725,0.0,0.0,0.0,0.0,0.0,0.0,0.0,0.0,0.0,0.0,0.0,0.0,0.0,0.0,0.0,0.0,0.0,0.0,0.0,0.0,0.7912,0.8753,0.9387,0.9814,0.9712,0.9226,0.8262,0.8496,0.8845,0.9179,0.9357,0.9681,1.0237,1.0369,1.0527,1.0749,1.0805,1.0973,1.1267,1.1292,1.1682,1.2491,1.2517,1.282,1.3402,1.3028,0.0,1.2914,1.2602,1.2558,1.2751,1.2455,1.2547,1.2885,1.2549,1.2571,1.2783,1.2462,1.2316,1.2246,1.22,1.227,1.237,0.0,0.0,0.0,0.0,0.0,0.0,0.0,0.4523,0.4743,0.4836,0.4827,0.4673,0.4346,0.4128,0.3823,0.3381,0.3754,0.0,0.0,0.5081,0.55,0.5928,0.6169,0.626,0.6196,0.6277,0.6247,0.6146,0.5914,0.5702,0.55,0.5053,0.4486,0.3837,0.3439,0.2852,0.2191,0.1982,0.1701,0.1369,0.1068,-0.0091,-0.1832,-0.3541,-0.4909,-0.5951,-0.6385,-0.6916,-0.7333,-0.6967,-0.6391,-0.5664,-0.4848,-0.3828,-0.2661,0.0,0.0,0.0,0.0,0.0,0.0,0.0,0.0,0.0,0.0,0.0,0.0,0.0,0.0,0.6336,0.0,0.0,0.8321,0.9297,0.98,1.0251,1.0859,1.1022,1.0719,0.9849,0.9867,1.0024,1.0172,1.0316,1.0577,1.0967,1.1625,1.2047,1.2178,1.2617,1.2955,1.3193,1.3262,1.361,1.4278,1.4587,1.4958,1.5407,1.4863,1.4631,1.4637,1.3921,1.366,1.3785,1.3527,1.3744,1.4311,1.4556,1.4661,1.4656,1.473,1.3948,1.2833,1.2953,1.3083,1.3228,0.0,0.0,0.0,0.0,0.0,0.0,0.0,0.0,0.599,0.6418,0.6379,0.6243,0.607,0.5762,0.5488,0.5286,0.0,0.0,0.0,0.6391,0.6988,0.7677,0.7975,0.8073,0.7911,0.8105,0.8122,0.7959,0.7634,0.734,0.7086,0.6639,0.6124,0.5592,0.5628,0.5239,0.459,0.4587,0.4333,0.3906,0.3411,0.3126,0.2754,0.0482,-0.1882,-0.4045,-0.4401,-0.5212,-0.6133,-0.6281,-0.5961,-0.5441,-0.5274,-0.4416,-0.3212,-0.19,-0.077,0.0,0.0,0.0,0.0,0.0,0.0,0.0,0.0,0.0,0.5041,0.6277,0.7091,0.7777,0.8505,0.9098,0.9684,1.0366,1.0628,1.099,1.1645,1.1723,1.155,1.1073,1.087,1.0915,1.1221,1.1451,1.179,1.2238,1.327,1.3864,1.3821,1.4518,1.4986,1.5081,1.5196,1.5498,1.5973,1.6458,1.6878,1.7191,1.6578,1.6344,1.6364,1.532,1.4875,1.4894,1.4661,1.496,1.5645,1.6283,1.6533,1.6498,1.6545,1.5312,1.3559,1.3768,1.4006,1.4282,0.0,0.0,0.0,0.0,0.0,0.0,0.0,0.0,0.0,0.7096,0.7088,0.6954,0.6642,0.6572,0.6655,0.6903,0.0,0.0,0.7717,0.7704,0.7765,0.8041,0.8204,0.826,0.8238,0.8431,0.8531,0.8509,0.8465,0.8341,0.8111,0.7548,0.7168,0.695,0.6385,0.6063,0.5968,0.598,0.5941,0.5878,0.5808,0.5676,0.5472,0.5137,0.2783,-0.0544,-0.1744,-0.2351,-0.2709,-0.3664,-0.3659,-0.3323,-0.3699,-0.3124,-0.2102,-0.1103,0.0,0.0753,0.1811,0.2827,0.3678,0.4033,0.4652,0.5131,0.0,0.0,0.6821,0.6705,0.7848,0.9073,0.9701,1.0353,1.1043,1.1774,1.2153,1.2486,1.2861,1.2918,1.287,1.2824,1.2183,1.2246,1.3491,1.3647,1.4147,1.5311,1.5534,1.551,1.5288,1.557,1.5655,1.5465,1.5456,1.5717,1.6248,1.6329,1.6762,1.7534,1.7468,1.7552,1.7738,1.7088,1.6874,1.704,1.6711,1.6478,1.6291,1.6388,1.6451,1.6478,1.6445,1.6273,1.6097,1.612,1.6117,1.6111,0.0,0.0,0.0,0.0,0.0,0.0,0.0,0.0,0.0,0.0,0.8177,0.7954,0.751,0.7358,0.7534,0.0,0.0,0.0,0.9578,0.9561,0.9745,1.0338,1.0422,1.0409,1.0281,1.0472,1.0523,1.0393,1.0523,1.0257,0.9642,1.0144,0.9796,0.8777,0.8798,0.857,0.8147,0.7753,0.753,0.7428,0.7428,0.7327,0.7139,0.6785,0.5691,0.4078,0.2104,0.081,0.0,0.0,-0.128,-0.1531,-0.1986,-0.1751,-0.1135,-0.0305,0.059,0.0,0.2951,0.3932,0.4589,0.0,0.5281,0.5912,0.6331,0.7321,0.8208,0.8457,0.9477,1.0412,1.0647,1.1612,1.2583,0.0,1.4004,1.4557,1.4844,1.4907,1.4907,1.4907,1.4622,1.4378,1.4313,1.4784,1.5338,1.5867,1.6356,1.66,1.6491,1.7089,1.7352,1.7238,1.7054,1.7156,1.7569,1.7529,1.7801,1.8358,1.8365,1.8312,1.8222,1.7775,1.7485,1.7334,1.7198,1.7055,1.693,1.693,1.6942,1.6959,1.6936,1.6942,1.6951,1.6793,1.6585,1.6441,0.0,0.0,0.0,0.0,0.0,0.0,0.0,0.0,0.0,0.0,0.0,0.87,0.8328,0.8199,0.0,0.0,0.0,0.0,0.0,1.1035,1.1299,1.197,1.2083,1.2024,1.1784,1.2018,1.2018,1.1779,1.1929,1.165,1.1003,1.1942,1.168,1.0496,1.0885,1.0755,1.0231,0.9823,0.9571,0.9421,0.9213,0.9039,0.8827,0.8133,0.7851,0.7532,0.5186,0.3669,0.0,0.0,0.1438,0.1004,0.0482,0.051,0.0889,0.149,0.2205,0.3072,0.4356,0.0,0.0,0.59,0.6502,0.728,0.8121,0.8895,0.9583,1.023,1.1151,1.1893,1.1976,1.313,1.4274,1.4814,1.5505,1.6072,1.6246,1.6275,1.6275,1.6275,1.6512,1.6351,1.5515,1.6057,1.6569,1.6853,1.7437,1.7785,1.7675,1.8348,1.8747,1.875,1.8507,1.8496,1.8761,1.8683,1.8731,1.8895,1.8974,1.8827,1.8509,1.8067,1.7674,1.7302,1.7302,1.7302,1.7302,1.7302,1.7302,1.7302,1.7302,1.7356,1.7397,1.7192,1.6979,1.6809,0.0,0.0,0.0,0.0,0.0,0.0,0.0,0.0,0.0,0.0,0.0,0.0,0.0,0.0,0.0,0.0,0.0,0.0,0.0,1.1778,1.1846,1.1992,1.2314,1.2332,1.1999,1.232,1.2326,1.1993,1.1993,1.1993,1.1972,1.1999,1.1999,1.195,1.1956,1.1956,1.1945,1.2192,1.2272,1.2202,1.151,1.1095,1.081,0.9884,0.9414,0.896,0.6731,0.0,0.0,0.0,0.4681,0.4725,0.4063,0.4118,0.0,0.477,0.5063,0.0,0.0,0.0,0.7168,0.8145,0.9054,0.9894,1.0691,1.0919,1.1089,1.1645,1.2685,1.3601,1.3857,1.5127,1.6132,1.6143,1.6343,1.6468,1.6497,1.6497,1.6497,1.6497,1.7296,1.7829,0.0,1.7817,1.8237,1.9223,1.931,1.9183,1.8868,1.9185,1.9378,1.9371,1.935,1.9368,1.9374,1.9308,1.9143,1.8895,1.9149,1.9103,1.8767,1.8099,1.7624,1.7302,1.7302,1.7302,1.7302,1.7302,1.7302,1.7302,1.7302,1.7457,1.7698,1.7691,1.7676,1.7668,0.0,0.0,0.0,0.0,0.0,0.0,0.0,0.0,0.0,0.0,0.0,0.0,0.0,0.0,0.0,0.0,0.0,0.0,0.0,1.3099,1.3513,1.3919,1.3943,1.4163,1.4571,1.4399,1.4433,1.4717,1.4548,1.4313,1.4071,1.4687,1.4712,1.4278,1.4489,1.4343,1.3892,1.3358,1.3126,1.3043,1.1991,1.1549,1.1432,1.0631,1.0081,0.9658,0.0,0.0,0.0,0.0,0.0,0.0,0.5341,0.0,0.0,0.5869,0.0,0.0,0.0,0.0,0.9649,1.0482,1.1545,1.2497,1.2945,1.3638,1.4209,1.4246,1.437,1.4493,1.4577,1.5539,1.638,1.6525,1.7615,1.8415,1.8415,1.8415,1.8415,1.8415,1.8706,0.0,0.0,0.0,0.0,1.9366,1.9395,1.9354,1.9254,1.9508,1.9659,1.9672,1.9665,1.9668,1.967,1.9411,1.9256,1.9149,1.9034,1.8917,1.8774,1.8343,1.8079,1.7945,1.7945,1.7945,1.7955,1.7719,1.7726,1.7885,1.7663,1.7745,1.7978,1.7978,1.8071,1.8218,0.0,0.0,0.0,0.0,0.0,0.0,0.0,0.0,0.0,0.0,0.0,0.0,0.0,0.0,0.0,0.0,0.0,0.0,0.0,0.0,1.4905,1.551,1.5399,1.566,1.6389,1.5884,1.5782,1.6102,1.5763,1.5668,1.579,1.6008,1.6117,1.6132,1.5973,1.5742,1.5423,1.479,1.4309,1.3913,1.2838,1.2192,1.18,1.1083,1.0511,0.0,0.0,0.0,0.0,0.0,0.0,0.0,0.0,0.0,0.0,0.0,0.0,0.0,0.0,1.0775,1.1794,1.2523,1.3528,1.4414,1.4656,1.5439,1.6057,1.5892,1.553,1.5249,1.5249,1.5904,1.6478,1.6573,1.7922,1.8966,1.9052,1.9174,1.9281,1.9388,1.9395,1.9395,0.0,0.0,0.0,1.9395,1.9482,1.9533,1.9533,1.9815,2.0011,2.0126,2.0131,2.0111,2.0117,1.98,1.9498,1.9298,1.8968,1.8789,1.88,1.8452,1.8299,1.8299,1.8299,1.824,1.8116,1.7983,1.7973,1.7997,1.7897,1.8001,1.8234,1.8234,1.8404,1.8589,0.0,0.0,0.0,0.0,0.0,0.0,0.0,0.0,0.0,0.0,0.0,0.0,0.0,0.0,0.0,0.0,0.0,0.0,0.0,0.0,0.0,1.6734,1.6647,1.6819,1.7374,1.6833,1.6456,1.6257,1.5825,1.6137,1.712,1.6101,1.6325,1.7555,1.6519,1.6269,1.6558,1.6398,1.5806,1.4909,1.4013,1.3018,1.1989,1.1289,0.0,0.0,0.0,0.0,0.0,0.0,0.0,0.0,0.0,0.0,0.0,0.0,0.0,1.126,1.2603,1.32,1.3628,1.4296,1.5085,1.5723,1.5956,1.641,1.6737,1.6616,1.6195,1.5861,0.0,0.0,1.6465,1.6421,1.7381,1.8253,1.8529,1.8784,1.9065,0.0,0.0,0.0,0.0,0.0,0.0,1.95,1.9712,1.9865,1.9894,2.0212,2.0486,2.0745,2.0745,2.0743,2.0756,2.0384,1.9901,1.9346,1.8997,1.8836,1.8803,1.8496,1.835,1.835,1.8382,1.8199,1.7913,1.8178,1.8073,1.7821,1.8047,1.8295,1.8527,1.8527,1.8635,1.8758,0.0,0.0,0.0,0.0,0.0,0.0,0.0,0.0,0.0,0.0,0.0,0.0,0.0,0.0,0.0,0.0,0.0,0.0,0.0,0.0,0.0,0.0,0.0,0.0,0.0,0.0,0.0,0.0,1.8515,1.8756,1.9155,1.8892,1.8803,1.8905,1.8619,1.8153,1.7496,1.6798,1.6397,1.5997,0.0,1.3056,1.2758,0.0,0.0,0.0,0.0,0.0,0.0,0.0,0.0,0.0,0.0,0.0,1.0944,0.0,0.0,1.3342,1.3691,1.4652,1.5743,1.6542,1.7408,1.8175,1.8661,1.837,1.7925,1.7736,1.6369,1.5164,0.0,0.0,0.0,1.6407,1.7905,0.0,1.9432,1.9374,0.0,1.9953,0.0,1.9568,1.9967,2.0258,0.0,0.0,2.0628,2.073,2.119,2.154,2.1611,2.1368,2.1617,2.163,2.1362,2.0592,2.0111,1.9967,1.9439,1.9173,1.9173,1.9093,1.9056,1.9056,1.9254,1.9304,1.9233,1.9252,1.9147,1.9029,1.8838,1.8754,1.872,1.872,1.8766,1.8781,0.0,0.0,0.0,0.0,0.0,0.0,0.0,0.0,0.0,0.0,0.0,0.0,0.0,0.0,0.0,0.0,0.0,0.0,0.0,0.0,0.0,0.0,0.0,0.0,0.0,0.0,0.0,0.0,0.0,0.0,1.9759,1.9117,1.9085,1.9545,1.8709,1.8094,1.7635,1.6807,0.0,0.0,0.0,0.0,0.0,0.0,0.0,0.0,0.0,0.0,0.0,0.0,0.0,1.0081,1.1392,1.1982,1.243,1.3654,0.0,1.5261,1.5553,1.664,1.7739,1.8086,1.8748,1.9278,1.9237,1.8916,1.8384,1.7521,1.5952,0.0,1.4677,0.0,0.0,0.0,0.0,0.0,1.9199,1.9199,1.9345,0.0,1.9679,0.0,2.0187,2.0545,2.1061,0.0,2.1572,2.1547,2.1898,2.2055,2.2041,2.1831,2.1995,2.1948,2.1605,2.0915,2.0529,2.0378,1.9889,1.9654,1.9654,1.9654,1.9654,1.9654,1.9802,1.9778,1.966,1.9732,1.9673,1.9471,1.9256,1.9123,1.9042,1.8868,1.8804,1.8804,0.0,0.0,0.0,0.0,0.0,0.0,0.0,0.0,0.0,0.0,0.0,0.0,0.0,0.0,0.0,0.0,0.0,0.0,0.0,0.0,0.0,0.0,0.0,0.0,0.0,0.0,0.0,0.0,0.0,0.0,0.0,0.0,0.0,0.0,0.0,0.0,0.0,0.0,0.0,0.0,0.0,0.0,0.0,0.0,0.0,0.0,0.0,0.0,0.0,0.0,1.1969,1.1722,1.3256,1.3675,1.3914,1.5526,1.6433,1.7035,1.771,1.8691,1.9476,1.9312,1.9561,1.9659,1.8909,1.8677,1.8191,1.6657,0.0,1.4435,1.4694,1.4694,1.5001,1.5999,0.0,1.8326,1.8676,1.8905,1.9165,1.9528,1.9815,2.0104,2.0443,2.0863,2.1596,2.2796,2.2669,2.25,2.2463,2.2392,2.2322,2.223,2.223,2.2084,2.1785,2.142,2.1048,2.073,2.0341,2.015,2.0104,2.0104,2.0104,2.0104,2.0138,1.9977,1.975,2.0019,1.9917,1.9615,1.9518,1.9439,1.9352,1.8939,1.8804,1.8804,0.0,0.0,0.0,0.0,0.0,0.0,0.0,0.0,0.0,0.0,1.4755,1.5127,0.0,0.0,0.0,0.0,0.0,0.0,0.0,0.0,0.0,0.0,0.0,0.0,0.0,0.0,0.0,0.0,0.0,0.0,0.0,0.0,0.0,0.0,0.0,0.0,0.0,0.0,0.0,0.0,0.0,0.0,0.0,0.0,0.0,0.0,0.0,0.0,0.0,0.0,1.3882,1.3539,1.471,1.56,1.6424,1.7323,1.8045,1.8646,1.9247,1.9718,2.0237,2.0935,2.0672,2.0168,2.0014,1.8483,0.0,0.0,1.5011,1.4191,1.4294,1.5259,1.6263,1.6896,0.0,0.0,0.0,0.0,1.9846,0.0,0.0,0.0,0.0,0.0,0.0,0.0,2.4052,2.4067,2.3789,2.3767,2.3465,2.286,2.2845,2.2813,2.2758,2.2189,2.1764,2.1414,2.0799,2.0379,2.0104,2.0104,2.0104,2.0112,2.0326,2.0405,2.0351,2.0625,2.0547,2.0224,1.994,1.9638,1.9352,1.8939,1.8804,1.8804,0.0,0.0,0.0,0.0,0.0,0.0,0.0,0.0,1.4498,1.4678,1.4726,1.5228,1.647,1.7127,0.0,0.0,0.0,0.0,0.0,0.0,0.0,0.0,0.0,0.0,0.0,0.0,0.0,0.0,0.0,0.0,0.0,0.0,0.0,0.0,0.0,0.0,0.0,0.0,0.0,0.0,0.0,0.0,0.0,0.0,0.0,0.0,0.0,0.0,0.0,0.0,1.5178,1.5701,1.6696,1.7417,1.7997,1.8519,1.924,1.9861,1.9981,2.0594,2.1247,2.153,2.0929,2.0184,1.9726,0.0,0.0,0.0,1.4812,1.4459,1.4649,1.5401,0.0,1.7078,0.0,0.0,0.0,0.0,0.0,0.0,0.0,0.0,0.0,2.293,2.3521,2.3833,2.4323,2.4448,2.4116,2.3742,2.3356,2.2994,2.2986,2.2986,2.2986,2.2525,2.2151,2.1796,2.1263,2.0833,2.0524,2.0524,2.0599,2.0763,2.0721,2.0796,2.0953,2.0919,2.0821,2.0631,2.0281,2.0067,1.9861,1.9304,1.9105,1.9082,0.0,0.0,0.0,0.0,0.0,0.0,0.0,1.3806,1.4115,1.4419,1.474,1.5358,1.6429,1.745,1.8101,0.0,0.0,0.0,0.0,0.0,0.0,0.0,0.0,0.0,0.0,0.0,0.0,0.0,0.0,0.0,0.0,0.0,0.0,0.0,0.0,0.0,0.0,0.0,0.0,0.0,0.0,0.0,0.0,0.0,0.0,0.0,0.0,0.0,0.0,0.0,1.59,1.7037,1.7898,1.8392,1.8757,1.9074,1.9803,2.0488,2.0502,2.1283,2.2068,2.1925,2.1076,2.0096,1.9253,1.796,0.0,0.0,1.4879,1.4961,1.5212,0.0,1.608,0.0,1.7822,1.8411,0.0,0.0,0.0,0.0,0.0,0.0,0.0,2.3301,0.0,2.3794,2.4152,2.4292,2.4108,2.3467,2.3065,2.2994,2.2986,2.2986,2.2986,2.2736,2.2446,2.2096,2.1798,2.1462,2.1147,2.1147,2.1272,2.1518,2.124,2.1232,2.1373,2.1129,2.0962,2.0859,2.0527,2.037,2.0234,1.9622,1.9344,1.924,0.0,0.0,0.0,0.0,0.0,0.0,0.0,1.3905,1.407,1.4297,1.4562,1.5063,1.5976,1.6532,1.7167,0.0,0.0,0.0,0.0,0.0,0.0,0.0,0.0,0.0,0.0,0.0,0.0,0.0,0.0,0.0,0.0,0.0,0.0,0.0,0.0,0.0,0.0,0.0,0.0,0.0,0.0,0.0,0.0,0.0,0.0,0.0,0.0,0.0,0.0,0.0,0.0,1.6369,1.6876,1.7629,1.84,1.8742,0.0,0.0,2.1171,2.1783,2.222,2.2726,2.1566,2.0128,1.9508,0.0,0.0,1.5569,1.5421,1.5506,1.5768,0.0,0.0,0.0,0.0,1.807,0.0,0.0,0.0,0.0,0.0,0.0,0.0,2.4392,2.4806,2.4542,2.3935,2.3763,2.4068,2.3697,2.3319,2.2994,2.2986,2.2986,2.2986,2.2954,2.2791,2.2434,2.241,2.2231,2.1889,2.1889,2.1905,2.1937,2.1905,2.1703,2.1396,2.1365,2.1159,2.0859,2.0527,2.0219,1.9892,1.9527,1.9161,1.8852,0.0,0.0,0.0,0.0,0.0,0.0,1.3724,1.3977,1.4186,1.4398,1.4582,1.4864,1.5292,1.5615,1.6288,0.0,0.0,0.0,0.0,0.0,0.0,0.0,0.0,0.0,0.0,0.0,0.0,0.0,0.0,0.0,0.0,0.0,0.0,0.0,0.0,0.0,0.0,0.0,0.0,0.0,0.0,0.0,0.0,0.0,0.0,0.0,0.0,0.0,0.0,0.0,0.0,0.0,1.6062,1.6484,0.0,0.0,1.9504,2.0324,2.1508,2.2241,2.2615,2.2503,2.1367,2.0047,1.907,0.0,1.6373,1.5808,1.5683,1.5722,1.5811,1.5933,1.6086,1.6319,1.6926,1.7541,1.8017,0.0,0.0,0.0,0.0,0.0,0.0,0.0,2.4023,2.4269,2.3618,2.3351,2.3729,2.339,2.3136,2.2994,2.2986,2.2986,2.2986,2.2986,2.2839,2.249,2.249,2.2326,2.2011,2.2011,2.2104,2.2294,2.208,2.1905,2.1743,2.151,2.119,2.0859,2.0527,2.033,2.0139,1.9598,1.9304,1.9121,0.0,0.0,0.0,0.0,0.0,1.33,1.3739,1.4112,1.4386,1.4484,1.463,1.4748,1.4811,1.504,1.562,1.6661,0.0,0.0,0.0,0.0,0.0,0.0,0.0,0.0,0.0,0.0,0.0,0.0,0.0,0.0,0.0,0.0,0.0,0.0,0.0,0.0,0.0,0.0,0.0,0.0,0.0,0.0,0.0,0.0,0.0,0.0,0.0,0.0,0.0,0.0,0.0,0.0,0.0,0.0,0.0,0.0,1.9346,2.0308,2.151,2.2402,2.2873,2.225,2.1077,1.9769,0.0,0.0,1.631,1.5813,1.5754,1.5808,1.5808,1.5808,1.5808,1.5808,1.65,1.7107,1.728,1.8344,0.0,0.0,0.0,2.1191,2.1942,2.2586,2.3213,2.3866,2.3356,2.3097,2.3343,2.3121,2.2986,2.2986,2.2986,2.2986,2.2986,2.2986,2.2895,2.2641,2.2641,2.2513,2.2302,2.2302,2.241,2.2625,2.2406,2.2175,2.1968,2.1695,2.1304,2.0867,2.0647,2.0488,2.0337,1.9877,1.9566,1.936,0.0,0.0,0.0,0.0,0.0,0.0,0.0,1.4315,1.4656,1.4514,1.4665,1.4758,1.4613,1.4967,1.5215,1.5215,0.0,0.0,0.0,0.0,0.0,0.0,0.0,0.0,0.0,0.0,0.0,1.5805,1.5408,0.0,0.0,0.0,0.0,0.0,0.0,0.0,0.0,0.0,0.0,0.0,0.0,0.0,0.0,0.0,0.0,0.0,0.0,0.0,0.0,0.0,0.0,0.0,0.0,0.0,0.0,0.0,1.8579,1.971,2.105,2.2192,2.2873,2.225,2.0788,1.9273,0.0,0.0,1.5839,1.5551,1.5666,1.5808,1.5808,1.5808,1.5808,1.5808,1.6302,1.6914,1.7521,1.8116,0.0,0.0,0.0,2.0771,2.1708,2.2277,2.2858,2.346,2.3192,2.2986,2.3022,2.2986,2.2986,2.2986,2.2986,2.2986,2.2986,2.2986,2.2986,2.2978,2.2978,2.2978,2.2978,2.2978,2.2978,2.2978,2.2978,2.2609,2.2011,2.2011,2.1571,2.0899,2.0891,2.0702,2.0392,2.0384,1.998,1.9399,0.0,0.0,0.0,0.0,0.0,0.0,0.0,1.4656,1.4834,1.4843,1.4693,1.4599,1.4602,1.4628,1.4807,1.5172,0.0,0.0,0.0,0.0,0.0,0.0,0.0,0.0,0.0,0.0,1.5498,1.5381,1.5129,1.53,1.5878,0.0,0.0,0.0,0.0,0.0,0.0,0.0,0.0,0.0,0.0,0.0,0.0,0.0,0.0,0.0,0.0,0.0,0.0,0.0,0.0,0.0,0.0,0.0,0.0,0.0,0.0,0.0,1.9016,1.988,2.0274,1.972,1.8889,1.7969,1.7065,0.0,1.5808,1.5551,1.5666,1.5808,1.5808,1.5808,1.5875,1.6099,1.6453,1.684,0.0,0.0,0.0,1.9319,2.0105,2.0806,0.0,2.1698,2.2175,2.2847,2.2802,2.2824,2.2986,2.2986,2.2986,2.2986,2.2986,2.2901,2.274,2.2909,2.2909,2.274,2.2901,2.2986,2.2986,2.2986,2.2986,2.2986,2.2986,2.2617,2.2011,2.2011,2.1579,2.0875,2.0655,2.0488,2.0361,2.0147,1.9916,1.9733,0.0,0.0,0.0,0.0,0.0,0.0,0.0,1.4582,1.4715,1.4621,1.4511,1.4334,1.4133,1.4349,1.458,1.4774,0.0,0.0,0.0,0.0,0.0,0.0,0.0,0.0,0.0,1.5072,1.4956,1.5093,1.4959,1.5157,1.5673,1.5372,1.5355,1.5616,0.0,0.0,0.0,0.0,0.0,0.0,0.0,0.0,1.324,0.0,0.0,0.0,0.0,0.0,0.0,0.0,0.0,0.0,0.0,0.0,0.0,0.0,0.0,0.0,0.0,1.9,1.9335,1.8694,1.7971,0.0,0.0,0.0,1.566,1.5395,1.5594,1.5808,1.5808,1.5808,1.5861,1.6079,1.6446,0.0,0.0,0.0,0.0,1.8732,0.0,0.0,2.1184,2.1572,2.2105,2.2863,2.281,2.2824,2.2986,2.2986,2.2986,2.2986,2.2986,2.2929,2.274,2.2929,2.2929,2.274,2.2929,2.2986,2.2986,2.2986,2.2986,2.2986,2.2986,2.2688,0.0,2.204,2.1624,2.1058,2.0734,2.0591,2.0567,2.0345,2.0203,2.0091,0.0,0.0,0.0,0.0,0.0,0.0,0.0,0.0,1.4359,1.404,1.4129,1.4017,1.3447,1.4114,1.4486,1.4205,0.0,0.0,0.0,0.0,0.0,0.0,0.0,0.0,0.0,1.4639,1.4551,1.4864,1.4864,1.4842,1.4804,1.483,1.4965,1.5165,1.4906,0.0,0.0,0.0,0.0,0.0,0.0,0.0,0.0,0.0,0.0,0.0,0.0,0.0,0.0,0.0,0.0,0.0,0.0,0.0,0.0,0.0,0.0,0.0,0.0,0.0,0.0,0.0,0.0,0.0,0.0,0.0,0.0,0.0,1.5482,1.5808,1.5808,1.5808,1.5815,1.5835,0.0,0.0,0.0,1.7736,0.0,0.0,1.9682,2.0664,2.1253,2.1797,2.2476,2.3341,2.3099,2.2901,2.2929,2.2986,2.2986,2.2986,2.2986,2.2986,2.2958,2.2986,2.2986,2.2958,2.2986,2.2986,2.2986,2.2986,2.2986,2.2986,2.2986,2.2799,2.2454,2.2119,2.1743,2.1325,2.1026,2.0899,2.0899,2.0899,2.0685,2.0432,0.0,0.0,0.0,0.0,0.0,0.0,0.0,0.0,0.0,0.0,1.3733,1.3697,1.41,1.3891,1.404,0.0,0.0,0.0,0.0,0.0,0.0,0.0,0.0,0.0,0.0,1.4391,1.4436,1.4523,1.4523,1.4642,1.4867,1.4584,1.4635,1.4953,1.4732,0.0,0.0,0.0,0.0,0.0,0.0,0.0,0.0,0.0,0.0,0.0,1.3377,1.3398,0.0,0.0,0.0,0.0,0.0,0.0,0.0,0.0,1.5869,0.0,0.0,0.0,0.0,0.0,0.0,0.0,0.0,0.0,0.0,0.0,0.0,1.5808,1.5808,1.5808,1.5881,0.0,0.0,1.6887,1.7434,0.0,0.0,1.9454,2.0791,2.1591,2.1314,2.1816,2.226,2.2481,2.2148,2.2051,2.2307,2.276,2.2986,2.2986,2.2986,2.2901,2.2711,2.2901,2.2901,2.2711,2.2901,2.2986,2.2986,2.2986,2.2986,2.2986,2.2986,2.2656,2.2104,2.2016,2.1626,2.101,2.0923,2.0899,2.0899,2.0899,2.0843,2.0772,0.0,0.0,0.0,0.0,0.0,0.0,0.0,0.0,0.0,0.0,0.0,0.0,0.0,0.0,0.0,0.0,0.0,0.0,0.0,0.0,0.0,0.0,0.0,0.0,1.3818,1.4051,1.4198,1.4263,1.4353,1.4486,1.4614,1.4145,1.4163,1.4569,1.4404,0.0,0.0,0.0,0.0,0.0,1.2996,0.0,0.0,0.0,0.0,0.0,1.3073,1.3158,0.0,1.3787,1.3921,1.4054,0.0,0.0,0.0,0.0,1.5238,1.5071,1.4356,1.4959,1.5708,1.5418,1.5222,0.0,0.0,0.0,0.0,0.0,0.0,0.0,1.5523,1.5778,0.0,0.0,1.6765,0.0,0.0,0.0,1.9489,1.976,2.1187,2.1972,2.1543,2.217,2.2554,2.2408,2.2041,2.1974,2.2315,2.2655,2.2873,2.2986,2.2986,2.2929,2.2768,2.2937,2.2937,2.2796,2.2929,2.2986,2.2986,2.2986,2.2986,2.2986,2.2986,2.2799,2.2446,2.2119,2.1762,2.1362,2.1018,2.0899,2.0899,2.0899,2.0899,2.0899,0.0,0.0,0.0,0.0,0.0,0.0,0.0,0.0,0.0,0.0,0.0,0.0,0.0,0.0,0.0,0.0,0.0,0.0,0.0,0.0,0.0,0.0,0.0,1.3426,1.3345,1.3666,1.3916,1.4039,1.4227,1.4262,1.4171,1.3623,1.3552,1.3892,1.3795,1.3583,0.0,0.0,0.0,0.0,1.2903,0.0,0.0,0.0,0.0,0.0,0.0,0.0,0.0,1.3413,1.3561,1.3752,1.4314,0.0,0.0,0.0,0.0,0.0,1.2995,1.3843,1.4843,1.4629,1.475,1.4922,0.0,0.0,0.0,0.0,0.0,0.0,0.0,1.5735,0.0,0.0,0.0,0.0,1.9055,1.9338,1.9633,2.0037,2.1288,2.2017,2.1736,2.2415,2.276,2.2474,2.2184,2.2144,2.2428,2.257,2.2768,2.2986,2.2986,2.2986,2.2986,2.2986,2.2986,2.2986,2.2986,2.2986,2.2986,2.2986,2.2986,2.2986,2.2986,2.2954,2.2887,2.2255,2.1952,2.1841,2.1171,2.0899,2.0899,2.0899,2.0899,2.0899,0.0,0.0,0.0,0.0,0.0,0.0,0.0,0.0,0.0,0.0,0.0,0.0,0.0,0.0,0.0,0.0,0.0,0.0,0.0,0.0,0.0,0.0,1.2625,1.2777,1.2655,1.3251,1.364,1.3844,1.3881,1.3794,1.3609,1.3013,1.266,1.2518,1.2541,1.2747,1.3048,0.0,0.0,0.0,0.0,0.0,0.0,0.0,0.0,0.0,0.0,0.0,0.0,1.3787,1.3745,1.3455,1.3563,0.0,0.0,0.0,0.0,0.0,1.1607,1.1792,1.2292,1.3013,1.3141,0.0,0.0,0.0,0.0,0.0,0.0,0.0,0.0,1.5678,1.6035,0.0,0.0,1.853,0.0,0.0,2.0142,2.1292,2.1628,2.176,2.1689,2.1834,2.1905,2.1832,2.1754,2.171,2.1738,2.2505,2.2958,2.2986,2.2986,2.2986,2.2986,2.2986,2.2986,2.2986,2.2986,2.2986,2.2986,2.2986,2.2986,2.2986,2.2986,2.2847,2.2565,2.2151,2.1791,2.1462,2.1058,2.0899,2.0899,2.0899,2.0899,2.0899,0.0,0.0,0.0,0.0,0.0,0.0,0.0,0.0,0.0,0.0,0.0,0.0,0.0,0.0,0.0,0.0,0.0,0.0,0.0,0.0,0.0,1.1431,1.1578,1.1724,1.1845,1.292,1.3382,1.3145,1.359,1.3645,1.3335,1.2975,1.265,1.2376,1.2696,1.2701,1.2469,1.2637,0.0,0.0,0.0,0.0,0.0,0.0,0.0,0.0,0.0,0.0,0.0,0.0,1.3045,1.2811,1.2565,0.0,0.0,0.0,0.0,0.0,1.0444,1.0533,1.0882,1.1418,1.2056,1.2598,0.0,0.0,0.0,0.0,0.0,0.0,0.0,0.0,1.7081,1.8023,0.0,1.9235,2.0619,2.0207,2.0266,2.1535,2.1871,2.1836,2.1463,2.1908,2.2098,2.1741,2.1657,2.1803,2.2116,2.2541,2.2845,2.2986,2.2986,2.2986,2.2986,2.2986,2.2986,2.2986,2.2986,2.2986,2.2986,2.2986,2.2986,2.2986,2.2986,2.2815,2.2501,2.2334,2.2037,2.1711,2.1544,2.137,2.1161,2.097,2.0899,2.0899,0.0,0.0,0.0,0.0,0.0,0.0,0.0,0.0,0.0,0.0,0.0,0.0,0.0,0.0,0.0,0.0,0.0,0.0,0.0,0.0,1.112,1.1001,1.0954,1.1083,1.1353,1.254,1.301,1.2746,1.351,1.3656,1.3215,1.281,1.2501,1.2299,1.26,1.2432,1.2008,1.2308,1.2063,0.0,0.0,0.0,0.0,0.0,0.0,0.0,0.0,0.0,0.0,0.0,0.0,0.0,0.0,0.0,0.0,1.0094,0.9943,0.9894,0.9577,0.9735,1.0015,1.0181,0.0,1.1999,1.2227,0.0,0.0,0.0,0.0,0.0,0.0,1.6754,0.0,1.8926,1.9261,1.9728,2.0668,2.0208,2.0263,2.1542,2.1725,2.1621,2.132,2.1978,2.2251,2.182,2.1867,2.2124,2.257,2.2655,2.2796,2.2986,2.2986,2.2986,2.2986,2.2986,2.2986,2.2986,2.2986,2.2986,2.2986,2.2986,2.2986,2.2986,2.2986,2.2863,2.2609,2.2521,2.2358,2.2104,2.2043,2.1825,2.151,2.124,2.1293,2.1422,0.0,0.0,0.0,0.0,0.0,0.0,0.0,0.0,0.0,0.0,0.0,0.0,0.0,0.0,0.0,0.0,0.0,0.0,0.0,0.0,1.0682,1.0983,1.123,1.1432,1.1574,1.1932,1.2452,1.3156,1.3775,1.3814,1.3275,1.2071,1.157,1.1639,1.1179,1.1325,1.189,1.1733,1.1782,1.1963,0.0,0.0,0.0,0.0,0.0,0.0,0.0,0.0,0.0,0.0,0.0,0.0,0.0,0.0,0.9602,0.892,0.8985,0.9242,0.9166,0.9384,0.9636,0.9649,0.0,0.0,1.1199,1.2279,0.0,0.0,0.0,0.0,0.0,1.7023,1.7702,1.8056,1.8831,1.9728,2.0668,2.0208,2.0271,2.1541,2.0947,2.0736,2.151,2.1627,2.178,2.2053,2.2371,2.2541,2.2598,2.2853,2.2986,2.2986,2.2986,2.2986,2.2986,2.2986,2.2986,2.2986,2.2986,2.2986,2.2986,2.2986,2.2986,2.2986,2.2986,2.3006,2.295,2.2625,2.2501,2.2446,2.2112,2.1968,2.1944,2.1921,2.2421,2.3006,0.0,0.0,0.0,0.0,0.0,0.0,0.0,0.0,0.0,0.0,0.0,0.0,0.0,0.0,0.0,0.0,0.0,0.0,0.0,0.0,1.1496,1.1609,1.1839,1.2158,1.2584,1.2816,1.3116,1.3499,1.3666,1.3305,1.2484,1.1954,1.1493,1.1104,1.1283,1.1466,1.1651,1.1615,1.1658,1.177,1.1856,0.0,0.0,0.0,0.0,0.0,0.0,0.0,0.0,0.0,1.0511,1.0055,0.9646,0.9367,0.9148,0.9016,0.8965,0.9063,0.9573,1.0186,1.0742,1.1114,0.0,0.0,0.0,0.0,0.0,0.0,0.0,0.0,0.0,0.0,1.8759,1.8851,1.962,2.0356,2.0746,2.0543,2.0762,2.1826,2.1501,2.1358,2.1847,2.2095,2.2272,2.2395,2.2541,2.2683,2.2853,2.2929,2.2986,2.2986,2.2986,2.2986,2.2986,2.2986,2.2986,2.2986,2.2986,2.2986,2.2986,2.2986,2.2986,2.2986,2.2986,2.2895,2.2696,2.2784,2.2688,2.2501,2.2366,2.2318,2.2287,2.2091,2.2199,2.244,0.0,0.0,0.0,0.0,0.0,0.0,0.0,0.0,0.0,0.0,0.0,0.0,0.0,0.0,0.0,0.0,0.0,0.0,0.0,1.1372,1.1942,1.2365,1.2517,1.2974,1.3818,1.3843,1.3879,1.3988,1.3539,1.296,1.2301,1.1733,1.122,1.0777,1.1021,1.1255,1.1425,1.1322,1.1456,1.174,1.1725,1.167,0.0,0.0,0.0,0.0,0.0,0.0,0.0,0.0,1.0289,0.9881,0.9755,0.9432,0.9174,0.9455,0.9405,0.9431,1.0262,1.0986,1.1646,0.0,0.0,0.0,0.0,0.0,0.0,0.0,0.0,0.0,0.0,0.0,0.0,1.9199,1.989,2.0465,2.0634,2.0673,2.1005,2.1854,2.1781,2.1818,2.2222,2.2459,2.2655,2.2727,2.274,2.2824,2.2986,2.2986,2.2986,2.2986,2.2986,2.2986,2.2986,2.2986,2.2986,2.2986,2.2986,2.2986,2.3014,2.2903,2.3043,2.3392,2.3007,2.2935,2.3072,2.3023,2.2871,2.2656,2.2656,2.2656,2.2625,2.2406,2.2501,2.2692,0.0,0.0,0.0,0.0,0.0,0.0,0.0,0.0,0.0,0.0,0.0,0.0,0.0,0.0,0.0,0.0,0.0,0.0,1.0867,1.1105,1.1822,1.3142,1.3211,1.3836,1.5169,1.4794,1.4587,1.4587,1.3441,1.2929,1.292,1.1264,1.0555,1.067,1.0144,1.0418,1.1261,1.0805,1.1144,1.2002,1.2002,1.1711,0.0,0.0,0.0,0.0,0.0,0.0,0.0,0.0,1.0982,1.0593,1.0593,1.0142,0.9689,1.0168,1.0257,1.036,1.1092,1.1651,0.0,0.0,0.0,0.0,0.0,0.0,0.0,0.0,0.0,1.821,1.8783,1.8423,0.0,1.8803,1.9412,1.9929,2.0261,2.0529,2.0935,2.1519,2.1596,2.1881,2.2541,2.2598,2.2711,2.2986,2.2986,2.2986,2.2986,2.2986,2.2986,2.2986,2.2986,2.2986,2.2986,2.2986,2.2986,2.2986,2.2986,2.2986,2.3006,2.2649,2.3171,2.4217,2.304,2.3199,2.4234,2.3364,2.3014,2.2986,2.2986,2.2986,2.2986,2.2986,2.356,2.4158,0.0,0.0,0.0,0.0,0.0,0.0,0.0,0.0,0.0,0.0,0.0,0.0,0.0,0.0,0.0,0.0,0.0,0.0,1.1529,1.2473,1.3046,1.3059,1.3694,1.4165,1.4418,1.44,1.414,1.3626,1.2981,1.2041,1.08,1.0022,0.9602,0.9522,0.9832,1.0362,1.1029,1.1362,1.1783,1.2209,1.2064,1.2024,1.2088,0.0,0.0,0.0,0.0,0.0,0.0,0.0,0.0,0.0,1.0424,1.0243,1.0052,0.9794,0.9985,1.0371,1.0867,1.1763,0.0,1.3746,0.0,0.0,0.0,0.0,0.0,0.0,1.8682,1.9043,1.9208,1.9122,1.905,1.9208,1.9555,1.9831,1.9945,2.0369,2.0917,2.1525,2.1795,2.2194,2.2824,2.2873,2.2901,2.2986,2.2986,2.2986,2.2986,2.2986,2.2986,2.2986,2.2986,2.2986,2.2986,2.2986,2.2986,2.2986,2.2986,2.2986,2.3014,2.353,2.3975,2.4272,2.3656,2.3611,2.3876,2.302,2.2791,2.2986,2.2986,2.2986,2.2986,2.2986,2.3147,2.3344,0.0,0.0,0.0,0.0,0.0,0.0,0.0,0.0,0.0,0.0,0.0,0.0,0.0,0.0,0.0,0.0,0.0,0.0,0.0,0.0,1.3308,1.3206,1.375,1.4,1.3866,1.3895,1.3447,1.2487,1.2395,1.1558,1.0013,0.9679,0.9447,0.9313,0.9877,1.0532,1.1232,1.1536,1.1974,1.2436,1.2126,1.2098,1.2203,0.0,0.0,0.0,0.0,0.0,0.0,0.0,0.0,0.0,1.0917,1.0596,1.0283,1.0105,1.0296,1.0746,1.1567,1.256,0.0,1.488,1.5777,1.6629,1.7702,0.0,0.0,0.0,1.9152,1.9229,1.9362,1.9295,1.9287,1.9534,1.9692,1.9931,2.0306,2.0759,2.1303,2.1909,2.2279,2.259,2.2958,2.2986,2.2986,2.2986,2.2986,2.2986,2.2986,2.2986,2.2986,2.2986,2.2986,2.2986,2.2986,2.2871,2.2807,2.2807,2.3154,2.3321,2.3313,2.3507,2.4053,2.4816,2.4122,2.3515,2.3039,2.2512,2.243,2.2593,2.2593,2.268,2.2807,2.2807,2.2895,2.2986,0.0,0.0,0.0,0.0,0.0,0.0,0.0,0.0,0.0,0.0,0.0,0.0,0.0,0.0,0.0,0.0,0.0,0.0,0.0,0.0,1.2938,1.3379,1.3452,1.3477,1.3451,1.3341,1.2662,1.1409,1.1738,1.1298,1.0143,0.9981,0.9837,0.9748,1.0197,1.0875,1.1685,1.1519,1.1919,1.2659,1.2194,1.2001,1.1979,1.1785,0.0,0.0,0.0,0.0,0.0,0.0,0.0,0.0,1.1828,1.117,1.0542,1.0877,1.1072,1.1481,1.28,1.3749,0.0,1.5739,1.6696,0.0,1.8315,1.8738,1.9032,1.9308,0.0,1.9045,1.9377,1.9202,1.9159,1.9739,1.9844,2.0162,2.1031,2.1403,2.1795,2.2428,2.2768,2.2958,2.2958,2.2986,2.2986,2.2986,2.2986,2.2986,2.2986,2.2986,2.2986,2.2986,2.2986,2.2986,2.2986,2.278,2.2596,2.2509,2.3389,2.3772,2.372,2.3094,2.3769,2.5418,2.4253,2.306,2.1937,2.1937,2.1976,2.2059,2.2059,2.2247,2.2529,2.2498,2.2688,2.2966,0.0,0.0,0.0,0.0,0.0,0.0,0.0,0.0,0.0,0.0,0.0,0.0,0.0,0.0,0.0,0.0,0.0,0.0,0.0,0.0,1.296,1.265,1.309,1.33,1.3201,1.312,1.2541,1.1482,1.1201,1.0594,0.9738,0.9899,0.997,0.9974,1.0807,1.1366,1.1723,1.2203,1.2517,1.2656,1.2188,1.1992,1.1979,1.1785,1.1656,0.0,0.0,0.0,0.0,0.0,0.0,0.0,1.2304,1.2081,1.1838,1.1654,1.211,1.2771,0.0,1.4243,0.0,0.0,1.774,1.8527,1.8517,1.8926,1.9254,1.9052,1.9152,1.9372,1.9664,1.9645,1.974,2.0119,2.0184,2.0328,2.0752,2.1081,2.1439,2.1839,2.2371,2.2683,2.2683,2.2873,2.2986,2.2986,2.2986,2.2986,2.2986,2.2986,2.2986,2.2986,2.2986,2.2986,2.2986,2.3618,2.3438,2.2509,2.3389,2.3646,2.3456,2.4511,2.4556,2.3798,2.3526,2.2697,2.1534,2.1534,2.1878,2.2398,2.2398,2.2585,2.2871,2.2585,2.2565,2.2561,0.0,0.0,0.0,0.0,0.0,0.0,0.0,0.0,0.0,0.0,0.0,0.0,0.0,0.0,0.0,0.0,0.0,0.0,0.0,0.0,0.0,1.2597,1.2909,1.3012,1.2817,1.2622,1.2125,1.131,1.0977,0.0,0.0,0.0,1.0592,1.0659,1.1478,1.1968,1.2196,1.2538,1.2705,1.2662,1.2326,1.2182,1.216,1.193,1.185,0.0,0.0,0.0,0.0,0.0,0.0,0.0,0.0,0.0,1.2065,1.2125,1.2627,1.3298,0.0,0.0,0.0,1.743,0.0,1.8918,1.894,1.9174,1.9377,1.9331,1.9367,1.9482,1.9758,1.9815,1.996,2.0414,2.0493,2.0644,2.1103,2.1425,2.1746,2.2088,2.2513,2.2788,2.2788,2.2929,2.2986,2.2986,2.2986,2.2986,2.2986,2.2986,2.2934,2.2768,2.2768,2.2955,2.3383,2.3678,2.3522,2.2879,2.3778,2.3863,2.3337,2.4157,2.388,2.2681,2.2681,2.2193,2.1412,2.1597,2.191,2.2263,2.2263,2.2374,2.249,2.2326,2.2263,2.2239,0.0,0.0,0.0,0.0,0.0,0.0,0.0,0.0,0.0,0.0,0.0,0.0,0.0,0.0,0.0,0.0,0.0,0.0,0.0,0.0,0.0,1.2599,1.2687,1.2582,1.2292,1.2115,1.1724,1.1071,0.0,0.0,0.0,0.0,0.0,1.15,1.2052,1.2457,1.2705,1.2705,1.2705,1.2683,1.2491,1.2406,1.2384,0.0,0.0,0.0,0.0,0.0,0.0,0.0,0.0,0.0,0.0,0.0,1.2249,1.2798,1.3229,0.0,0.0,0.0,1.6548,1.8035,1.8671,0.0,1.9261,1.9383,1.9533,1.9758,1.962,1.9562,1.9902,1.9953,2.0155,2.0752,2.0866,2.1074,2.1689,2.1945,2.2201,2.2485,2.2768,2.2929,2.2929,2.2958,2.2986,2.2986,2.2986,2.2962,2.2927,2.2919,2.276,2.241,2.2615,2.307,2.3789,2.3884,2.3819,2.3626,2.4062,2.393,2.3286,2.3001,2.2558,2.2011,2.1929,2.1743,2.1526,2.1775,2.1968,2.208,2.208,2.208,2.2072,2.2008,2.1952,2.1889,0.0,0.0,0.0,0.0,0.0,0.0,0.0,0.0,0.0,0.0,0.0,0.0,0.0,0.0,0.0,0.0,0.0,0.0,0.0,0.0,0.0,1.1754,1.1933,1.1848,1.1473,1.1922,1.1755,1.0939,0.0,0.0,0.0,0.0,0.0,1.2182,0.0,0.0,1.2705,1.2705,1.2705,1.2683,1.2491,1.2406,0.0,0.0,0.0,0.0,0.0,0.0,0.0,0.0,1.2811,0.0,0.0,0.0,1.3698,1.452,1.4792,0.0,0.0,0.0,1.7489,0.0,1.8489,1.8903,0.0,0.0,1.9758,1.9786,1.9758,1.9931,2.0493,2.0572,2.078,2.1389,2.1546,2.1689,2.2002,2.2088,2.2116,2.2173,2.2456,2.2655,2.2655,2.2853,2.2986,2.2986,2.2986,2.2879,2.2577,2.2561,2.2422,2.2072,2.3088,2.3681,2.3789,2.5604,2.5964,2.4827,2.3608,2.3131,2.3251,2.1859,2.1524,2.1968,2.1621,2.1655,2.1897,2.1597,2.187,2.2446,2.2446,2.2446,2.2406,2.2104,2.1775,2.1446,0.0,0.0,0.0,0.0,0.0,0.0,0.0,0.0,0.0,0.0,0.0,0.0,0.0,0.0,0.0,0.0,0.0,0.0,0.0,0.0,0.0,1.1754,1.1999,1.1979,1.1636,1.2046,1.1859,0.0,0.0,0.0,0.0,1.1731,1.193,0.0,0.0,0.0,0.0,0.0,1.2641,1.2534,1.2555,0.0,0.0,0.0,0.0,0.0,0.0,0.0,0.0,0.0,0.0,1.3355,1.3903,0.0,0.0,0.0,1.5384,0.0,1.6181,1.6958,1.7695,0.0,1.8583,1.8993,1.9326,1.9605,1.996,2.0486,2.0572,2.068,2.0938,2.1103,2.136,2.1824,2.1888,2.2031,2.2343,2.2371,2.2428,2.259,2.2732,2.2824,2.2824,2.2929,2.2986,2.2986,2.2986,2.2863,2.2533,2.3127,2.3283,2.2751,2.3909,2.4771,2.5308,2.6248,2.6084,2.4792,2.3453,2.2588,2.2238,2.2049,2.2241,2.2726,2.2544,2.2675,2.3023,2.3018,2.293,2.2768,2.2569,2.239,2.2175,2.1798,2.1423,2.1105,0.0,0.0,0.0,0.0,0.0,0.0,0.0,0.0,0.0,0.0,0.0,0.0,0.0,0.0,0.0,0.0,0.0,0.0,0.0,0.0,0.0,1.1592,1.1942,1.1973,1.1629,1.2053,0.0,0.0,0.0,0.0,1.2002,1.2002,1.2141,0.0,1.2548,0.0,0.0,0.0,0.0,0.0,0.0,0.0,0.0,0.0,0.0,0.0,0.0,0.0,0.0,0.0,0.0,0.0,0.0,1.4429,0.0,0.0,0.0,0.0,0.0,0.0,1.7617,1.8272,1.8615,1.8932,0.0,1.9869,2.0241,2.1039,2.1382,2.1554,2.1554,2.166,2.1852,2.225,2.2286,2.2312,2.2537,2.2578,2.2631,2.2732,2.2823,2.2879,2.2879,2.2966,2.3098,2.3316,2.3344,2.3266,2.3184,2.4012,2.4243,2.3647,2.4819,2.5798,2.6497,2.6507,2.6022,2.5053,2.3522,2.253,2.2096,2.2582,2.3046,2.3476,2.3358,2.3547,2.3913,2.3859,2.345,2.2855,2.2585,2.2239,2.1825,2.1518,2.1201,2.0899,0.0,0.0,0.0,0.0,0.0,0.0,0.0,0.0,0.0,0.0,0.0,0.0,0.0,0.0,1.0195,0.9925,1.0147,1.0514,1.1057,1.0919,1.0837,1.0855,1.1368,0.0,1.0866,1.1746,0.0,0.0,0.0,0.0,1.2274,1.2274,1.2412,1.2674,1.2439,1.2454,1.2683,0.0,0.0,0.0,0.0,0.0,0.0,0.0,0.0,0.0,0.0,0.0,0.0,0.0,0.0,0.0,0.0,0.0,0.0,0.0,0.0,0.0,0.0,1.719,0.0,1.8104,1.8356,1.8612,0.0,2.006,2.0752,2.1117,2.1924,2.2541,2.2541,2.2286,2.2279,2.2873,2.274,2.2566,2.2506,2.2513,2.2394,2.208,2.2334,2.2541,2.2541,2.2815,2.3344,2.4158,2.4242,2.4442,2.4932,2.5013,2.489,2.4552,2.5746,2.6444,2.6507,2.6507,2.6471,2.638,2.3939,2.3169,2.3837,2.3126,2.3238,2.3942,2.3476,2.3671,2.4183,2.3048,2.2569,2.2513,2.2525,2.2069,2.142,2.1404,2.1201,2.0899,0.0,0.0,0.0,0.0,0.0,0.0,0.0,0.0,0.0,0.0,0.0,0.0,0.0,1.0527,1.0302,1.0453,1.0567,1.07,1.0888,1.0965,1.1152,1.1492,1.1983,1.2153,1.1955,1.2404,0.0,0.0,0.0,1.2229,1.2552,1.255,1.2614,1.2699,1.2608,1.2529,1.2513,1.2641,0.0,0.0,0.0,0.0,0.0,0.0,0.0,0.0,0.0,0.0,0.0,0.0,0.0,0.0,0.0,0.0,0.0,0.0,0.0,0.0,0.0,0.0,0.0,1.8752,1.8953,1.9138,1.9967,2.0611,2.1232,2.1945,2.2371,2.2655,2.2824,2.276,2.276,2.2958,2.2929,2.2783,2.2537,2.249,2.2469,2.2342,2.2239,2.2358,2.2784,2.2529,2.2899,2.42,2.4098,2.4314,2.5058,2.5883,2.58,2.4639,2.6588,2.7284,2.6507,2.6507,2.5973,2.4876,2.3996,2.3675,2.3871,2.4195,2.4339,2.4304,2.4132,2.4046,2.3956,2.3502,2.2996,2.2442,2.197,2.1618,2.1373,2.1169,2.1002,2.0899,0.0,0.0,0.0,0.0,0.0,0.0,0.0,0.0,0.0,0.0,0.0,0.0,0.0,0.0,1.0442,1.0767,1.0882,1.1028,1.1261,1.1427,1.1717,1.2208,1.2612,1.2787,1.2691,0.0,0.0,0.0,0.0,0.0,0.0,1.2711,1.2705,1.2705,1.2705,1.2641,0.0,0.0,0.0,1.2489,0.0,0.0,1.2869,0.0,0.0,0.0,0.0,0.0,0.0,0.0,0.0,0.0,0.0,0.0,0.0,0.0,0.0,0.0,1.8341,0.0,0.0,0.0,1.9267,1.9246,2.0241,2.0818,2.139,2.2227,2.2576,2.2796,2.2958,2.2986,2.2946,2.2855,2.2934,2.2847,2.2406,2.2438,2.2469,2.235,2.2127,2.2215,2.2784,2.2676,2.3209,2.4671,2.4446,2.4637,2.5531,2.5961,2.5896,2.5257,2.7239,2.7704,2.6507,2.634,2.5503,2.3991,2.3832,2.3934,2.427,2.4628,2.463,2.4313,2.4167,2.3927,2.3613,2.3316,2.2771,2.2065,2.1579,2.1325,2.1242,2.1287,2.1399,2.1514,0.0,0.0,0.0,0.0,0.0,0.0,0.0,0.0,0.0,0.0,0.0,0.0,0.0,0.0,0.0,1.0852,1.1107,1.1539,1.2184,1.2294,1.2492,1.2902,1.317,1.3189,1.2942,0.0,0.0,0.0,0.0,0.0,0.0,0.0,1.2705,1.2705,1.2705,1.2705,1.2683,0.0,1.2272,1.2659,0.0,1.2448,1.2636,0.0,0.0,0.0,1.3779,1.4426,0.0,1.5898,0.0,0.0,0.0,0.0,0.0,0.0,0.0,0.0,0.0,0.0,0.0,0.0,0.0,1.893,1.9964,2.0666,2.1286,2.1872,2.2529,2.3006,2.2986,2.2986,2.2903,2.2545,2.2784,2.2776,2.2104,2.2294,2.239,2.204,2.2011,2.2119,2.2521,2.3299,2.4314,2.5597,2.5325,2.5495,2.6418,2.5283,2.5204,2.6507,2.7639,2.7648,2.6488,2.6024,2.5192,2.3999,2.3557,2.3985,2.516,2.4365,2.3999,2.3923,2.3468,2.326,2.3154,2.2344,2.1751,2.1396,2.1388,2.1201,2.0994,2.1801,2.2383,2.2688,0.0,0.0,0.0,0.0,0.0,0.0,0.0,0.0,0.0,0.0,0.0,0.0,0.0,0.0,1.2252,1.2511,1.2602,1.272,1.2916,1.2943,1.3087,1.3392,1.3478,1.3605,1.3758,1.3673,0.0,0.0,0.0,0.0,0.0,0.0,0.0,0.0,1.2903,1.2988,1.2966,1.2491,0.0,0.0,1.2436,1.2899,0.0,0.0,0.0,0.0,0.0,1.4867,1.5317,0.0,1.6264,1.625,0.0,0.0,0.0,0.0,0.0,0.0,1.901,0.0,0.0,0.0,0.0,0.0,2.0382,2.0921,2.1482,2.2091,2.2441,2.2712,2.2966,2.2986,2.2903,2.2545,2.2784,2.2855,2.243,2.2454,2.2477,2.2374,2.1894,2.2159,2.3648,2.3371,2.382,2.5562,2.5094,2.496,2.546,2.4915,2.5594,2.774,2.6953,2.6326,2.6005,2.5568,2.5031,2.4349,2.4238,2.4337,2.4681,2.4448,2.3724,2.2613,2.2494,2.21,2.1564,2.1568,2.151,2.1373,2.1145,2.0986,2.0994,2.1801,2.1808,2.1481,0.0,0.0,0.0,0.0,0.0,0.0,0.0,0.0,0.0,0.0,0.0,0.0,0.0,0.0,0.0,1.32,1.33,1.3373,1.3373,1.3507,1.3654,1.38,1.3807,1.3845,1.3927,1.3741,1.3574,0.0,0.0,0.0,0.0,0.0,0.0,0.0,0.0,0.0,0.0,0.0,0.0,0.0,1.2741,0.0,0.0,1.3923,1.4388,0.0,0.0,0.0,1.6081,1.6989,1.7281,0.0,0.0,0.0,0.0,0.0,0.0,0.0,0.0,0.0,0.0,0.0,0.0,0.0,2.0565,2.0927,2.1293,2.1815,2.211,2.2358,2.2565,2.2696,2.2728,2.2521,2.2784,2.2895,2.2565,2.2617,2.2704,2.2704,2.2538,2.2886,2.4186,2.398,2.4235,2.535,2.4579,2.4079,2.414,2.495,2.6067,2.7494,2.6929,2.6352,2.5801,2.574,2.5298,2.4504,2.4833,2.4928,2.4781,2.4232,2.3418,2.235,2.1842,2.1318,2.0915,2.1121,2.1174,2.1185,2.0978,2.0899,2.0994,2.1801,2.1918,2.1726,0.0,0.0,0.0,0.0,0.0,0.0,0.0,0.0,0.0,0.0,0.0,0.0,0.0,0.0,0.0,0.0,1.352,1.3653,1.3653,1.3941,1.4109,1.4109,1.4067,1.3934,1.3716,1.3673,1.3476,1.3094,1.3094,0.0,0.0,0.0,0.0,0.0,0.0,0.0,0.0,0.0,0.0,1.3504,1.3312,1.3529,0.0,0.0,1.4811,1.525,1.5872,1.6475,1.714,1.8094,1.8388,0.0,0.0,0.0,0.0,0.0,1.7331,0.0,0.0,0.0,0.0,0.0,0.0,0.0,2.0712,2.0917,2.103,2.1424,2.1755,2.1977,2.2052,2.2236,2.2397,2.2397,2.2696,2.2843,2.2577,2.2815,2.2986,2.2986,2.3483,2.3941,2.4256,2.4747,2.5023,2.496,2.3924,2.3203,2.3021,2.5239,2.6533,2.6639,2.7268,2.7062,2.5874,2.6162,2.5742,2.4637,2.526,2.5362,2.4943,2.3715,2.296,2.2524,2.1489,2.0968,2.0899,2.0994,2.0968,2.0899,2.0899,2.0992,2.1203,2.1869,2.2392,2.273,0.0,0.0,0.0,0.0,0.0,0.0,0.0,0.0,0.0,0.0,0.0,0.0,0.0,0.0,0.0,0.0,1.3968,1.4001,1.4001,1.4055,1.4109,1.4109,1.3891,1.3758,1.3695,1.354,1.3334,1.3094,1.3094,1.3073,1.3009,0.0,0.0,0.0,0.0,0.0,0.0,0.0,0.0,1.4262,1.4076,0.0,1.5384,1.5151,1.553,1.6196,1.6053,1.6406,1.7019,1.7632,1.7688,1.7493,0.0,0.0,0.0,0.0,0.0,0.0,0.0,0.0,0.0,0.0,0.0,0.0,2.1399,2.1623,2.1781,2.2127,2.2005,2.1938,2.2248,2.2066,2.1865,2.1865,2.2166,2.2538,2.2875,2.2974,2.2986,2.2986,2.3483,2.3941,2.4256,2.4549,2.4518,2.4098,2.3603,2.3578,2.4219,2.5674,2.6797,2.7447,2.7247,2.6857,2.6278,2.5976,2.5723,2.5465,2.4966,2.4353,2.3645,2.2737,2.1936,2.1303,2.1682,2.1496,2.0942,2.1598,2.1471,2.0899,2.0899,2.1522,2.2414,2.2189,2.2392,2.273,0.0,0.0,0.0,0.0,0.0,0.0,0.0,0.0,0.0,0.0,0.0,0.0,0.0,0.0,0.0,0.0,0.0,0.0,0.0,1.3891,1.3891,1.3891,1.3779,1.3652,1.3546,1.3455,1.3243,1.2903,1.2903,1.2903,1.2903,0.0,0.0,0.0,0.0,0.0,0.0,0.0,1.4092,1.4683,1.4451,0.0,1.578,1.566,1.5998,1.6554,1.6582,1.6987,1.7543,1.7856,1.802,0.0,0.0,1.8053,1.8318,0.0,1.829,1.886,0.0,0.0,0.0,2.058,0.0,0.0,0.0,2.1989,2.2129,2.2353,2.2324,2.2206,2.2074,2.2009,2.1937,2.1937,2.254,2.3095,2.3323,2.3522,2.3644,2.3644,2.4304,2.482,2.4982,2.45,2.4029,2.3582,2.3614,2.4105,2.5135,2.6189,2.6936,2.7344,2.6924,2.6602,2.6387,2.5932,2.5693,2.5684,2.4883,2.4084,2.3279,2.2476,2.1649,2.0925,2.1326,2.1267,2.0968,2.1776,2.1852,2.1521,2.1752,2.2466,2.3332,2.2673,2.2595,2.2679,0.0,0.0,0.0,0.0,0.0,0.0,0.0,0.0,0.0,0.0,0.0,0.0,0.0,0.0,0.0,0.0,0.0,0.0,0.0,1.3631,1.3673,1.3652,1.361,1.3525,1.3398,1.3307,1.3094,1.2769,1.2726,1.2747,1.2833,1.3052,0.0,0.0,0.0,0.0,0.0,0.0,0.0,1.4953,0.0,1.521,1.5929,1.597,1.63,1.6788,1.7086,1.7536,1.7962,1.8004,1.8301,1.8588,1.8034,1.8612,0.0,0.0,0.0,0.0,0.0,0.0,0.0,0.0,0.0,2.2015,0.0,0.0,0.0,2.264,2.2718,2.2602,2.206,2.2114,2.2254,2.2254,2.3004,2.3581,2.3579,2.4079,2.4465,2.444,2.5342,2.5789,2.5372,2.4256,2.3436,2.3074,2.3798,2.4672,2.5645,2.6606,2.706,2.6904,2.6641,2.6435,2.6269,2.5893,2.5611,2.5465,2.4652,2.3861,2.3029,2.2249,2.1522,2.0899,2.107,2.1121,2.1198,2.2004,2.2426,2.2586,2.292,2.3435,2.3889,2.3091,2.2815,2.2635,0.0,0.0,0.0,0.0,0.0,0.0,0.0,0.0,0.0,0.0,0.0,0.0,0.0,0.0,0.0,0.0,0.0,0.0,1.2875,0.0,0.0,1.344,1.327,1.3243,1.3398,1.2988,1.2881,1.3052,1.2811,1.2918,1.3328,1.3349,0.0,0.0,1.4104,0.0,0.0,0.0,1.4834,0.0,1.543,1.5853,0.0,1.6104,1.6505,1.7232,1.7266,1.732,1.738,0.0,1.7431,1.7656,0.0,1.8762,1.8799,0.0,0.0,0.0,0.0,0.0,0.0,0.0,2.2425,0.0,0.0,0.0,2.3616,2.3644,0.0,2.3029,2.2973,0.0,0.0,2.2389,2.2829,2.3171,2.3173,2.424,2.4995,2.4942,2.6073,2.61,2.419,2.3234,2.26,2.2257,2.4,2.5121,2.5269,2.6756,2.7272,2.6484,2.6777,2.6557,2.5796,2.5737,2.5333,2.4637,2.3827,2.3004,2.2207,2.1394,2.1002,2.0942,2.1649,2.1954,2.203,2.2828,2.3578,2.4195,2.3967,2.3914,2.3889,2.3091,2.2815,2.2781,0.0,0.0,0.0,0.0,0.0,0.0,0.0,0.0,0.0,0.0,0.0,0.0,0.0,0.0,0.0,0.0,0.0,1.2833,0.0,0.0,0.0,1.3392,1.32,1.3179,1.3398,1.32,1.3094,1.3094,1.2988,1.303,1.3228,1.3355,1.3498,0.0,1.4391,0.0,1.4443,0.0,1.5383,0.0,0.0,0.0,0.0,1.653,1.6846,1.7349,1.766,1.7753,1.78,0.0,1.8566,0.0,0.0,0.0,0.0,0.0,0.0,0.0,0.0,0.0,0.0,0.0,0.0,0.0,2.3829,0.0,2.4024,0.0,0.0,0.0,0.0,0.0,0.0,0.0,2.3089,2.3555,2.3861,2.5037,2.5659,2.5133,2.5561,2.5409,2.4158,2.3592,2.3564,2.4199,2.4581,2.523,2.6177,2.6678,2.6783,2.6396,2.6562,2.6357,2.5718,2.5235,2.4833,2.448,2.3204,2.2426,2.2072,2.1275,2.0899,2.0925,2.1249,2.1823,2.2562,2.3066,2.4074,2.5281,2.5612,2.5307,2.4536,2.3281,2.2815,2.2815,0.0,0.0,0.0,0.0,0.0,0.0,0.0,0.0,0.0,0.0,0.0,0.0,1.0184,1.0768,0.0,0.0,1.1611,1.2143,0.0,0.0,1.2662,0.0,0.0,0.0,0.0,1.3264,1.3179,1.3094,1.3094,1.3137,1.3179,1.3392,1.361,1.3835,0.0,1.4861,1.4928,0.0,1.5821,1.5932,1.6059,1.65,1.7042,1.7012,1.722,1.7567,1.7963,1.8179,1.8342,1.8689,1.9278,1.9789,1.9308,1.9836,0.0,0.0,0.0,0.0,2.0749,0.0,0.0,0.0,0.0,0.0,0.0,0.0,0.0,0.0,0.0,0.0,0.0,0.0,0.0,0.0,0.0,2.4082,2.4544,2.5331,2.5742,2.5348,2.5087,2.4788,2.436,2.4013,2.4238,2.5276,2.4994,2.5295,2.6571,2.6592,2.6455,2.6221,2.6435,2.6299,2.5718,2.4907,2.4381,2.4158,2.2753,2.1979,2.1751,2.1173,2.1019,2.1224,2.1224,2.2002,2.3278,2.366,2.4663,2.6021,2.6503,2.6145,2.5184,2.3816,2.3082,2.285,0.0,0.8091,0.0,0.0,0.0,0.0,0.0,0.0,0.0,0.0,0.0,0.0,0.0,0.0,0.0,0.0,0.0,1.202,1.1111,0.0,1.2619,0.0,0.0,1.3179,0.0,0.0,1.2854,1.3094,1.3094,1.3207,1.3392,1.361,1.3828,1.4109,1.4524,1.4788,1.4936,1.5619,1.6111,1.6508,1.6964,1.7675,1.8357,0.0,1.7606,1.8087,1.8087,1.8388,1.8781,1.8781,1.882,1.8984,1.9788,1.9875,0.0,0.0,0.0,0.0,0.0,2.1304,0.0,2.2331,0.0,0.0,0.0,0.0,2.4497,0.0,0.0,0.0,0.0,0.0,0.0,0.0,0.0,0.0,0.0,2.4699,2.4856,2.5668,2.5092,2.4607,2.4593,2.4173,2.3988,2.424,2.496,2.5474,2.5728,2.6528,2.6586,2.5757,2.6537,2.6567,2.5718,2.4907,2.4109,2.3329,2.2501,2.17,2.0942,2.0917,2.1326,2.2047,2.2047,2.2962,2.4486,2.4942,2.5632,2.6345,2.5986,2.5818,2.5679,2.4865,2.3791,2.297,0.0,0.0,0.0,0.0,0.0,0.0,0.0,0.9777,0.0,0.0,0.0,0.0,0.0,0.942,0.9628,0.0,0.0,1.0467,1.0722,1.1106,0.0,0.0,0.0,1.3041,0.0,0.0,0.0,0.0,1.3395,1.3508,1.3931,1.3764,1.3948,1.4376,0.0,1.5043,0.0,0.0,0.0,0.0,0.0,1.8141,1.8241,1.8288,1.8411,1.862,1.8981,1.918,1.9371,1.9691,1.9981,2.0173,2.0017,2.0182,2.042,2.0279,2.0486,2.0821,2.112,2.1455,2.1909,2.2736,2.3154,2.3493,2.4045,0.0,0.0,0.0,0.0,0.0,0.0,0.0,0.0,0.0,0.0,0.0,0.0,2.4561,2.4608,2.4907,2.4833,2.4843,2.5165,2.4779,2.4754,2.5396,2.5286,2.5486,2.6133,2.6445,2.6465,2.6172,2.6445,2.6293,2.5718,2.4907,2.4356,2.4084,2.2753,2.1954,2.17,2.17,2.1852,2.2131,2.2652,2.3681,2.4955,2.4799,2.5743,2.7217,2.6779,2.6472,2.6132,2.5008,2.435,2.4166,0.7175,0.0,0.0,0.0,0.0,0.0,0.0,0.0,0.0,0.0,0.9169,0.0,0.8917,0.0,0.9339,0.0,0.9363,0.98,1.0455,1.0497,0.0,1.1821,1.2232,0.0,0.0,0.0,0.0,0.0,0.0,1.4004,1.4333,1.4089,1.4163,1.4516,1.4654,1.5135,1.5872,1.6459,1.7166,0.0,0.0,1.845,1.8388,1.8689,1.885,1.8989,1.9325,1.9531,1.9623,1.9828,2.0088,2.0201,1.9683,1.9943,2.0325,1.982,2.0102,2.0649,2.0779,2.1117,2.1674,2.259,2.2956,2.3309,2.4078,2.4513,2.4786,0.0,0.0,0.0,0.0,0.0,0.0,0.0,0.0,0.0,0.0,2.47,2.4743,2.4743,2.4723,2.4842,2.5202,2.4899,2.5,2.5683,2.5205,2.5167,2.58,2.6035,2.6084,2.5952,2.6245,2.6182,2.5693,2.4907,2.4504,2.448,2.2878,2.2097,2.2097,2.2097,2.2249,2.2577,2.3379,2.4355,2.5379,2.5231,2.5818,2.6837,2.7133,2.6935,2.639,2.5594,2.5283,2.5443,0.0,0.0,0.0,0.0,0.8132,0.0,0.0,0.0,0.9108,0.0,0.9116,0.912,0.9112,0.9524,0.9721,0.952,0.9741,1.0021,1.0309,1.0323,0.0,0.0,1.1693,1.2326,1.2851,0.0,0.0,0.0,0.0,0.0,1.4607,1.4546,1.4501,1.4509,1.4428,0.0,1.6102,1.6308,1.7056,1.8133,1.8404,1.8612,1.8781,1.8781,1.8958,1.9165,1.9188,1.9348,1.9531,1.9279,1.9188,1.9142,1.8874,1.9158,1.9533,1.9265,1.9509,1.9981,2.0372,2.0396,2.065,2.1962,2.2371,2.2668,2.3614,2.4511,2.5034,2.4621,0.0,0.0,0.0,0.0,0.0,0.0,0.0,0.0,0.0,0.0,2.5179,2.5179,2.4744,2.4555,2.48,2.4594,2.4642,2.5058,2.4703,2.4563,2.4772,2.5363,2.5508,2.5102,2.5933,2.6137,2.5669,2.4907,2.4514,2.4455,2.2929,2.2173,2.2173,2.2207,2.2652,2.3404,2.4208,2.4981,2.5713,2.6182,2.5933,2.5414,2.7037,2.7227,2.6588,2.6588,2.6588,2.675,0.747,0.764,0.7712,0.0,0.8025,0.8254,0.0,0.0,0.0,0.0,0.9288,0.9441,0.9327,0.962,0.971,0.9521,0.9555,0.0,0.0,0.0,0.0,1.2264,1.2836,1.3341,1.3825,1.4141,0.0,1.4812,0.0,0.0,1.4889,1.4612,1.4501,1.4494,1.4479,1.4937,1.5756,1.6267,1.7104,1.8133,1.8404,1.8404,1.8319,1.8666,1.875,1.8704,1.885,1.8943,1.8981,1.892,1.9027,1.9119,1.8704,1.9043,1.951,1.9035,1.9379,1.993,2.0023,2.0429,2.106,2.2114,2.2542,2.2938,2.3872,2.4288,2.4528,2.4753,2.4719,2.4767,2.5071,2.4739,0.0,0.0,0.0,0.0,0.0,0.0,0.0,2.47,2.4313,2.4325,2.504,2.4418,2.4235,2.4828,2.4451,2.4299,2.449,2.512,2.5366,2.5116,2.5615,2.5629,2.5113,2.4907,2.4612,2.4208,2.3578,2.3279,2.3304,2.3703,2.401,2.4233,2.5039,2.5513,2.5718,2.5835,2.597,2.616,2.6896,2.7438,2.7832,2.7832,2.7832,2.7868,0.7638,0.0,0.0,0.7916,0.0,0.9226,0.8455,0.8901,0.0,0.9383,1.002,0.0,1.0382,1.103,1.1327,1.102,1.0996,0.0,1.1799,0.0,0.0,1.2808,1.3286,1.3769,1.4282,1.4699,0.0,1.5515,0.0,0.0,1.5337,1.5044,1.4836,1.471,1.471,1.5062,1.5696,1.6624,1.7365,1.7947,1.8087,1.8063,0.0,1.8079,1.8079,1.7978,1.8102,1.8288,1.8481,1.8365,1.8504,1.8635,1.8125,1.8566,1.9158,1.8643,1.9104,1.9822,2.0124,2.0591,2.128,2.2435,2.2828,2.3144,2.4012,2.4261,2.4407,2.4664,2.4463,2.4354,2.4699,2.4387,2.4117,0.0,0.0,0.0,0.0,0.0,0.0,0.0,2.4344,2.4345,2.5115,2.4179,2.3896,2.4734,2.4193,2.398,2.4299,2.4845,2.5089,2.4972,2.5383,2.5392,2.4907,2.4849,2.469,2.443,2.3926,2.3827,2.4059,2.4356,2.4504,2.4529,2.5357,2.5693,2.5693,2.5693,2.5659,2.5632,2.6225,2.7217,2.8291,2.8291,2.8291,2.8291,0.7929,0.0,0.0,0.0,0.0,1.0583,0.9461,0.9576,0.995,1.0277,0.0,1.1896,1.1866,1.2938,1.3492,1.307,0.0,1.3045,1.3171,1.2742,1.2709,1.3216,1.3642,1.4108,1.4566,1.517,0.0,0.0,0.0,0.0,1.5741,1.5518,1.5267,1.5008,0.0,0.0,0.0,1.7085,1.7614,1.7651,1.7651,1.7651,1.7628,1.738,1.7302,1.7302,1.7302,1.759,1.797,1.7745,1.7838,1.797,1.7473,1.7963,1.8643,1.8295,1.8881,1.9799,2.0478,2.0863,2.1408,2.2698,2.2996,2.3164,2.3851,2.4202,2.4351,2.4289,2.4084,2.3961,2.4127,2.3792,2.3626,0.0,0.0,0.0,0.0,0.0,0.0,0.0,0.0,0.0,2.4956,2.3991,2.3732,2.4723,2.4062,2.3787,2.4138,2.4559,2.4779,2.4756,2.5121,2.5238,2.4992,2.4754,2.4695,2.4894,2.4186,2.4109,2.4554,2.4637,2.4661,2.4711,2.5416,2.5693,2.5693,2.5693,2.5313,2.4836,2.563,2.6881,2.8223,2.8271,2.8291,2.8291,0.8334,0.0,0.0,0.0,0.0,1.0858,1.1242,1.2305,1.2962,1.2649,1.3137,1.3418,1.3272,1.3665,1.3889,1.3799,1.361,0.0,0.0,0.0,0.0,1.4929,1.5262,1.5453,1.5559,1.6042,1.6264,0.0,0.0,0.0,1.5471,1.5424,1.5267,1.5022,0.0,0.0,1.646,1.6813,1.7107,1.738,1.738,1.738,1.7356,1.7333,1.7302,1.7302,1.7302,1.7356,1.7419,1.7403,1.7551,1.7721,1.7403,1.773,1.8272,1.8596,1.9225,2.0016,2.0718,2.1298,2.18,2.2393,2.2428,2.2485,2.294,2.337,2.3575,2.3176,2.3536,2.3919,2.394,2.3701,2.3525,2.3607,0.0,0.0,0.0,0.0,0.0,0.0,0.0,2.3066,2.3951,2.4032,2.4241,2.4766,2.45,2.4181,2.3875,2.4446,2.47,2.4493,2.4502,2.4813,2.5477,2.4622,2.4397,2.4815,2.4721,2.4735,2.4833,2.5284,2.5489,2.5513,2.5635,2.5693,2.5693,2.5693,2.5849,2.6119,2.6588,2.7221,2.7848,2.8164,2.8291,2.8291,0.0,0.0,0.0,0.0,0.0,1.2832,1.3863,1.5294,1.563,1.3789,1.4275,1.4746,1.4645,1.5371,1.5815,1.5678,1.5549,1.5532,1.5699,1.5624,1.5632,1.5802,1.6062,1.6202,1.6209,1.628,1.6257,1.6201,0.0,0.0,0.0,1.5618,1.5464,1.522,0.0,1.5891,1.6416,1.6761,1.6992,1.7153,1.7263,1.7302,1.7302,1.7302,1.7302,1.7302,1.7302,1.7302,1.7302,1.7302,1.7481,1.7651,1.738,1.7994,1.8858,1.8981,1.9797,2.0822,2.1539,2.1907,2.2269,2.2951,2.2922,2.2813,2.3093,2.3064,2.2991,2.3012,2.3113,2.3215,2.3361,2.3042,2.2752,2.268,2.2577,2.2387,0.0,0.0,0.0,0.0,0.0,0.0,0.0,2.4279,2.4302,2.4134,2.4036,2.3877,2.3659,2.4143,2.4486,2.4598,2.4617,2.4803,2.5235,2.4705,2.4546,2.4852,2.4878,2.5064,2.5318,2.5844,2.605,2.605,2.605,2.605,2.603,2.5806,2.5971,2.6406,2.6611,2.709,2.7712,2.7917,2.8132,2.8291,0.0,1.0278,0.0,0.0,1.3603,1.4944,1.6069,1.7518,1.7602,1.5093,1.5539,1.6103,1.6041,1.697,1.7515,1.7313,1.7239,1.7003,1.6498,1.6606,1.6539,1.6214,1.6447,1.6511,1.6298,1.6058,1.5871,0.0,0.0,1.5394,1.5397,1.5445,1.5422,1.5352,1.573,1.6029,1.6319,1.6791,1.7026,1.7066,1.7239,1.7302,1.7302,1.7302,1.7302,1.7302,1.7302,1.7302,1.7309,1.738,1.7504,1.7621,1.7606,1.8427,1.9392,1.9592,2.0538,2.1659,2.2325,2.2488,2.2681,2.3419,2.3208,2.2879,2.2988,2.2605,2.228,2.2462,2.2289,2.2158,2.2322,2.2006,2.1688,2.162,2.173,2.1755,2.152,0.0,0.0,0.0,0.0,0.0,2.4138,2.4274,2.4057,2.3337,2.3561,2.3722,2.3685,2.3988,2.4322,2.469,2.4746,2.4918,2.5222,2.4886,2.4886,2.5222,2.5126,2.5284,2.5728,2.6191,2.6363,2.625,2.6348,2.6338,2.623,2.5952,2.6001,2.6269,2.6455,2.6875,2.7448,2.7624,2.7907,2.8174,0.0,0.0,1.2838,1.412,1.5317,1.6213,1.66,1.7708,1.8302,1.7679,1.77,1.7689,1.7437,1.7509,1.7595,1.7568,1.7353,1.7142,1.7025,1.6826,1.6539,1.6214,1.6447,1.6173,1.5272,1.5382,1.5026,0.0,0.0,1.4316,1.407,1.434,1.4699,1.5164,1.5852,1.6308,1.6588,1.6878,1.7113,1.7263,1.7286,1.7302,1.7302,1.7302,1.7302,1.7302,1.7302,1.7302,1.7333,1.7574,1.7527,1.7489,1.838,1.8742,1.9155,2.0656,2.1507,2.2063,2.2608,2.2806,2.2855,2.2887,2.2267,2.162,2.1447,2.1379,2.1122,2.0347,2.0511,2.0729,2.0575,2.0503,2.0503,2.0615,2.0654,2.0543,2.0138,0.0,2.2216,2.1821,0.0,0.0,2.3062,2.3545,2.351,2.2654,2.3721,2.4376,2.431,2.4362,2.4398,2.4437,2.4373,2.4971,2.6244,2.5342,2.5342,2.6244,2.583,2.5659,2.5728,2.6191,2.6172,2.5796,2.6221,2.6162,2.5806,2.6182,2.6113,2.5854,2.665,2.6768,2.6627,2.7409,2.7712,2.7809,1.2599,1.3131,1.3855,1.5812,1.6553,1.7159,1.8173,1.8726,1.8905,1.8569,1.8229,1.7902,1.7615,1.7608,1.7608,1.7608,1.7501,1.7366,1.7172,1.6684,1.6207,1.5791,1.5372,1.4977,1.4564,1.4358,1.4123,1.3849,1.3984,1.4004,1.3902,1.4004,1.4346,1.4909,1.5974,1.6494,1.6636,1.7012,1.7216,1.7302,1.7302,1.7302,1.7302,1.7302,1.7302,1.7302,1.7302,1.7403,1.7558,1.7651,1.7737,1.7893,1.8434,1.9301,2.0167,2.0393,2.1507,2.2567,2.2091,2.2274,2.2565,2.2416,2.1916,2.1393,2.1228,2.0983,2.0612,2.0027,1.9868,1.9885,2.0085,1.9652,1.9439,1.9899,1.9967,2.0129,2.0613,2.1496,0.0,2.2139,0.0,0.0,0.0,2.3475,2.3519,2.329,2.3928,2.4126,2.3698,2.3782,2.4022,2.4404,2.4357,2.487,2.5962,2.5576,2.5576,2.5971,2.5796,2.5693,2.5728,2.6191,2.6299,2.6143,2.6309,2.6143,2.5703,2.5903,2.5874,2.5723,2.6089,2.6284,2.6426,2.6793,2.7252,2.7712,1.3394,1.39,1.4667,1.6657,1.6981,1.7365,1.8383,1.8561,1.8429,1.8119,1.7708,1.7516,1.7709,1.7662,1.7503,1.7232,1.7206,1.7003,1.6459,1.6,1.5551,1.5109,1.4414,1.394,1.3721,1.3306,1.3028,1.2954,1.3117,1.3192,1.3192,1.3672,1.4226,1.4861,1.6069,1.6661,1.6762,1.7135,1.7361,1.7441,1.7346,1.7302,1.7302,1.7302,1.7302,1.7302,1.7302,1.7481,1.7707,1.7679,1.801,1.8473,1.8812,1.9712,2.0628,2.0416,2.139,2.2349,2.1498,2.1653,2.2029,2.1921,2.1498,2.1059,2.0857,2.0356,1.9819,1.9356,1.8986,1.895,1.9589,1.9168,1.9045,2.009,2.0268,2.0592,2.1426,2.2083,0.0,2.2598,2.2941,2.3211,2.3301,2.3307,2.3279,2.3214,2.3602,2.3618,2.3073,2.3327,2.3694,2.4187,2.4471,2.4947,2.5684,2.5693,2.5693,2.5693,2.5693,2.5693,2.5703,2.603,2.6269,2.6387,2.625,2.6001,2.5703,2.5854,2.5825,2.5737,2.5991,2.6196,2.6416,2.6695,2.7086,2.7536,1.4732,1.5075,1.5367,1.6332,1.6503,1.6503,1.6538,1.6538,1.6447,1.6172,1.6132,1.6596,1.7859,1.7769,1.7259,1.6399,1.6326,1.5838,1.4711,1.4615,1.4475,1.4143,1.3846,1.334,1.253,1.2267,1.1726,1.0928,1.133,1.154,1.1556,1.3149,1.4322,1.5131,1.614,1.678,1.7095,1.7229,1.7492,1.7762,1.7434,1.7302,1.7302,1.7302,1.7302,1.7302,1.7302,1.7481,1.77,1.7629,1.8306,1.9279,1.9735,1.9894,2.0121,2.11,2.131,2.1181,2.1038,2.1102,2.1256,2.139,2.0904,2.0323,1.9988,1.9253,1.8456,1.7848,1.7566,1.7744,1.8829,1.9003,1.9602,2.148,2.1823,2.1992,2.2344,2.3185,2.3546,2.2979,2.3415,2.3558,2.2969,2.2857,2.2524,2.1878,2.2564,2.2924,2.2729,2.3161,2.3497,2.3709,2.4622,2.5283,2.5708,2.5693,2.5693,2.5693,2.5693,2.5693,2.5693,2.5718,2.5952,2.6367,2.5913,2.5718,2.5747,2.6201,2.6133,2.5796,2.6645,2.6748,2.6494,2.737,2.7409,2.7139,1.4768,1.5116,1.5402,1.6338,1.6509,1.6509,1.6509,1.6509,1.648,1.6371,1.6217,1.6252,1.6663,1.63,1.5928,1.5629,1.5492,1.5272,1.4898,1.4147,1.3593,1.3367,1.2524,1.1951,1.1692,1.1419,1.1337,1.1455,1.162,1.2102,1.2914,1.4496,1.5339,1.5469,1.6482,1.7102,1.7401,1.7603,1.7732,1.7784,1.7675,1.7499,1.7302,1.7302,1.7302,1.7296,1.7253,1.7401,1.7599,1.7502,1.7818,1.8344,1.8915,1.9673,2.0311,2.0002,2.0291,2.0517,1.9672,1.9536,1.9627,1.9573,1.9321,1.9026,1.8735,1.8213,1.7728,1.753,1.7351,1.7519,1.8611,1.8898,1.9677,2.1743,2.231,2.2697,2.3274,2.3184,2.2888,2.2415,2.1795,2.1449,2.1601,2.1466,2.1364,2.1387,2.2152,2.2558,2.2491,2.3334,2.3923,2.4183,2.4773,2.5283,2.5708,2.5693,2.5693,2.5693,2.5693,2.5693,2.5693,2.5693,2.5786,2.5913,2.5767,2.5693,2.5703,2.5864,2.5835,2.5767,2.6367,2.6504,2.6426,2.6724,2.6885,2.7025,1.4371,1.458,1.4753,1.5367,1.5451,1.5451,1.5451,1.5451,1.5451,1.5451,1.5298,1.5208,1.5208,1.4815,1.4663,1.4812,1.4538,1.4234,1.3884,1.3105,1.2614,1.2488,1.1657,1.1285,1.1419,1.1136,1.1212,1.1661,1.2061,1.2951,1.4296,1.5418,1.5954,1.6054,1.6996,1.75,1.7691,1.796,1.8114,1.816,1.7887,1.7741,1.766,1.7536,1.7485,1.7486,1.7429,1.7512,1.7606,1.7407,1.7658,1.8095,1.8234,1.8995,1.9706,1.9211,1.9159,1.9146,1.8477,1.8314,1.836,1.8431,1.8342,1.8173,1.7956,1.7774,1.7734,1.8016,1.7913,1.8167,1.9518,1.9837,2.0623,2.269,2.2759,2.2811,2.3553,2.2724,2.1973,2.173,2.1021,2.0691,2.0968,2.0735,2.0592,2.0692,2.1634,2.218,2.2104,2.3256,2.3996,2.4137,2.4773,2.5283,2.5708,2.5693,2.5693,2.5693,2.5693,2.5693,2.5693,2.5693,2.5693,2.5693,2.5693,2.5693,2.5693,2.5693,2.5693,2.5757,2.6221,2.6387,2.6431,2.6562,2.6689,2.6826,1.3688,1.3688,1.3688,1.3658,1.3688,1.3688,1.3658,1.3688,1.3688,1.3658,1.3658,1.3658,1.3629,1.345,1.3486,1.3859,1.3484,1.2881,1.2032,1.1732,1.1596,1.1596,1.1295,1.1291,1.1596,1.1358,1.1453,1.1877,1.2817,1.41,1.5688,1.598,1.6346,1.6792,1.755,1.7938,1.8032,1.8246,1.8508,1.8763,1.813,1.805,1.8269,1.7938,1.7814,1.7808,1.7765,1.7733,1.7609,1.7281,1.7713,1.8302,1.7758,1.7979,1.8434,1.8673,1.8068,1.7354,1.7564,1.7487,1.7442,1.7865,1.7894,1.778,1.7727,1.7935,1.8365,1.9093,1.9127,1.9536,2.1195,2.1571,2.2221,2.3997,2.3132,2.2464,2.3168,2.1916,2.0934,2.0907,2.084,2.0808,2.0808,2.0442,2.0135,2.0004,2.1216,2.1925,2.1822,2.317,2.39,2.3803,2.4671,2.5312,2.5708,2.5693,2.5693,2.5693,2.5693,2.5693,2.5693,2.5693,2.5693,2.5693,2.5693,2.5693,2.5693,2.5693,2.5693,2.5757,2.6221,2.6387,2.646,2.6826,2.6738,2.6568,1.3688,1.3688,1.3629,1.3354,1.3534,1.3599,1.3354,1.3539,1.3599,1.3354,1.3324,1.3204,1.2964,1.276,1.2671,1.2776,1.2641,1.2307,1.1741,1.165,1.1596,1.1596,1.1514,1.1514,1.1596,1.2362,1.3369,1.4574,1.5671,1.6287,1.647,1.7184,1.747,1.7401,1.7798,1.8099,1.8336,1.8617,1.8771,1.88,1.8621,1.846,1.8291,1.8218,1.8028,1.775,1.7446,1.7339,1.7258,1.688,1.7027,1.7376,1.7544,1.7483,1.7467,1.8095,1.791,1.7548,1.7597,1.7249,1.7001,1.7559,1.7792,1.8036,1.8686,1.8764,1.8917,1.9597,1.9971,2.0457,2.1327,2.2339,2.3044,2.3094,2.3359,2.313,2.1964,2.0968,2.0268,1.9905,1.9217,1.8858,1.9065,1.8989,1.9489,2.0879,2.1878,2.2849,2.3763,2.4909,2.5313,2.478,2.527,2.561,2.5693,2.5693,2.5693,2.5693,2.5693,2.5693,2.5693,2.5693,2.5693,2.5693,2.5693,2.5693,2.5693,2.5693,2.5693,2.5757,2.6221,2.6387,2.6396,2.6504,2.668,2.6894,1.3406,1.3419,1.342,1.3116,1.3103,1.3162,1.3188,1.3316,1.3315,1.3133,1.3179,1.3171,1.2983,1.3017,1.295,1.2715,1.2383,1.2087,1.1836,1.186,1.186,1.186,1.186,1.2139,1.2692,1.3295,1.4477,1.6278,1.6906,1.7298,1.7529,1.8009,1.8117,1.7977,1.8279,1.841,1.8422,1.8881,1.9002,1.8847,1.8796,1.8686,1.8525,1.8525,1.8233,1.7786,1.7739,1.752,1.7209,1.6989,1.7011,1.7191,1.7385,1.7318,1.7228,1.7625,1.7484,1.7206,1.7266,1.7041,1.6885,1.7311,1.803,1.8731,1.9063,1.9667,2.0337,2.1034,2.1547,2.2055,2.2704,2.3117,2.3294,2.3056,2.2579,2.1872,2.0938,1.9896,1.9142,1.8905,1.8543,1.8433,1.8707,1.8863,1.9654,2.1369,2.2232,2.3229,2.4492,2.5421,2.5662,2.5125,2.5484,2.5693,2.5693,2.5693,2.5815,2.601,2.601,2.6108,2.6293,2.6293,2.6186,2.602,2.6215,2.6069,2.5728,2.5923,2.5893,2.5737,2.5971,2.6094,2.6113,2.6318,2.6533,2.6787,1.3089,1.3123,1.3175,1.2833,1.267,1.2715,1.304,1.3118,1.3093,1.2974,1.3109,1.3205,1.3236,1.3488,1.3483,1.3075,1.2635,1.2309,1.2163,1.2219,1.2259,1.2259,1.2431,1.3031,1.4047,1.4391,1.5535,1.7541,1.7541,1.7875,1.8557,1.8564,1.8506,1.844,1.8753,1.8705,1.8448,1.8987,1.9076,1.8828,1.8753,1.8716,1.8716,1.8716,1.8343,1.7821,1.8072,1.7777,1.7295,1.7251,1.7266,1.7302,1.7302,1.7302,1.7302,1.7302,1.7059,1.6825,1.6918,1.6999,1.709,1.7409,1.8498,1.954,1.962,2.0732,2.1983,2.279,2.3181,2.3575,2.4114,2.3584,2.3046,2.298,2.139,2.015,2.0,1.895,1.8169,1.8145,1.8372,1.8682,1.8992,1.9433,2.0344,2.1875,2.274,2.3705,2.4901,2.5574,2.5728,2.5395,2.5674,2.5845,2.5903,2.5845,2.603,2.6484,2.6484,2.667,2.6986,2.6986,2.6816,2.6504,2.6865,2.6576,2.5932,2.6328,2.6269,2.5903,2.5903,2.5903,2.5952,2.6348,2.6523,2.6705,1.3381,1.3277,1.305,1.2277,1.2715,1.3034,1.2662,1.3225,1.3479,1.2924,1.2855,1.2868,1.2886,1.2918,1.3066,1.3322,1.3456,1.3222,1.2488,1.2501,1.255,1.255,1.3569,1.4228,1.4427,1.6126,1.7703,1.9052,1.9052,1.8992,1.8841,1.8829,1.8714,1.85,1.8773,1.8705,1.8427,1.8741,1.8716,1.8465,1.8411,1.8379,1.8379,1.8379,1.8145,1.7762,1.7536,1.739,1.7266,1.7041,1.7106,1.7302,1.7302,1.7302,1.7302,1.7302,1.726,1.7217,1.7222,1.7399,1.7779,1.8671,1.9208,1.9962,2.1744,2.235,2.2832,2.3917,2.3751,2.3402,2.3397,2.2882,2.2102,2.1109,2.0746,2.0208,1.9091,1.8735,1.851,1.8299,1.8319,1.8558,1.9132,2.0083,2.1404,2.3157,2.4292,2.5403,2.6559,2.674,2.6762,2.6719,2.6435,2.6455,2.6781,2.6465,2.6504,2.6914,2.6914,2.6953,2.6986,2.6986,2.6982,2.6898,2.6957,2.6918,2.6801,2.6894,2.685,2.6791,2.6791,2.6791,2.6801,2.6869,2.7148,2.7516,1.3008,1.2676,1.2303,1.1689,1.2127,1.2598,1.2568,1.321,1.3589,1.3275,1.333,1.339,1.3386,1.3543,1.374,1.3937,1.413,1.4045,1.3644,1.3453,1.3311,1.32,1.4383,1.5533,1.6588,1.7884,1.885,1.9395,1.9395,1.9298,1.9109,1.9143,1.9078,1.8925,1.9051,1.8861,1.8427,1.869,1.856,1.8183,1.8256,1.8196,1.8057,1.824,1.7991,1.7529,1.7558,1.7456,1.728,1.7157,1.7208,1.7302,1.7302,1.7302,1.7339,1.7514,1.7441,1.7339,1.7521,1.8181,1.8934,1.9331,2.052,2.174,2.2246,2.2884,2.3364,2.3467,2.327,2.3053,2.2996,2.2268,2.1526,2.0973,2.0335,1.9606,1.8812,1.8592,1.8479,1.8521,1.9259,1.9994,2.0596,2.1693,2.3038,2.4653,2.5078,2.5762,2.6941,2.6986,2.7119,2.7363,2.6953,2.6816,2.6986,2.6826,2.6943,2.7389,2.7389,2.748,2.7705,2.7705,2.7578,2.7399,2.7607,2.7441,2.7006,2.7266,2.7226,2.6986,2.6986,2.6986,2.7015,2.7275,2.7516,2.7721,1.252,1.2021,1.1675,1.1421,1.1829,1.2323,1.277,1.3381,1.3761,1.3696,1.3787,1.394,1.401,1.424,1.4436,1.4506,1.4595,1.4653,1.4606,1.455,1.4426,1.4228,1.5473,1.6957,1.8679,1.9155,1.9395,1.9395,1.9395,1.9361,1.9324,1.9426,1.9389,1.9199,1.9256,1.8943,1.8323,1.8509,1.8326,1.7878,1.8011,1.7901,1.7704,1.7984,1.7808,1.7441,1.7616,1.7565,1.7404,1.7331,1.7353,1.7419,1.7419,1.747,1.758,1.7828,1.791,1.7937,1.8116,1.8979,1.9922,2.0301,2.1858,2.3159,2.2632,2.3238,2.3698,2.2991,2.2685,2.2533,2.2533,2.1602,2.0808,2.0838,1.993,1.9127,1.887,1.8708,1.8797,1.929,2.0442,2.1516,2.2341,2.3383,2.4471,2.5531,2.5618,2.6028,2.6951,2.7109,2.7363,2.7829,2.7393,2.7217,2.7314,2.7217,2.7383,2.7839,2.7839,2.8005,2.8291,2.8291,2.8142,2.7858,2.8181,2.792,2.7344,2.7702,2.7643,2.7314,2.7314,2.7314,2.7353,2.7721,2.7839,2.7888,1.2094,1.1711,1.1671,1.1899,1.2389,1.2931,1.3456,1.3985,1.4217,1.3923,1.3899,1.401,1.4338,1.4403,1.4534,1.4833,1.4852,1.4799,1.4616,1.5515,1.5956,1.5747,1.7314,1.8649,1.9681,1.9512,1.9395,1.9395,1.9395,1.941,1.939,1.9636,1.9466,1.8927,1.9193,1.8837,1.8035,1.7983,1.7796,1.7534,1.7409,1.7361,1.7339,1.7368,1.7536,1.7719,1.7441,1.7521,1.7711,1.7404,1.7507,1.7755,1.7755,1.7984,1.8233,1.8255,1.8937,1.9661,1.936,1.959,2.0336,2.2277,2.2901,2.3167,2.3657,2.383,2.3771,2.3332,2.2474,2.1785,2.1785,2.0607,1.9671,1.9796,1.9457,1.9207,1.924,1.9457,2.0021,2.1164,2.1599,2.2396,2.38,2.4733,2.521,2.508,2.6181,2.6906,2.6986,2.7402,2.7839,2.8232,2.7858,2.7829,2.8193,2.7839,2.7858,2.8252,2.8252,2.8262,2.8291,2.8291,2.8271,2.8252,2.8281,2.8252,2.8203,2.8232,2.8232,2.8203,2.8203,2.8203,2.8203,2.8232,2.8252,2.8252,1.1911,1.1399,1.1192,1.1675,1.2343,1.2988,1.3564,1.4248,1.467,1.4534,1.4506,1.4572,1.4702,1.4591,1.4585,1.4715,1.5317,1.5667,1.5614,1.6551,1.7385,1.7976,1.827,1.8911,2.003,1.9606,1.9395,1.9395,1.9395,1.9395,1.9424,1.99,1.9688,1.8913,1.9391,1.9006,1.7989,1.7981,1.7781,1.7488,1.7406,1.735,1.7302,1.7302,1.7507,1.7777,1.7653,1.7838,1.8101,1.7945,1.7989,1.8116,1.8116,1.8203,1.8422,1.9088,2.0114,2.1164,2.1826,2.2099,2.2381,2.3119,2.3618,2.3864,2.354,2.3151,2.2593,2.1739,2.1111,2.0649,2.0436,1.98,1.9545,2.0323,2.056,2.0723,2.0995,2.1726,2.237,2.2747,2.3774,2.4632,2.5118,2.5905,2.6337,2.6251,2.671,2.7139,2.7428,2.7848,2.8125,2.8291,2.8135,2.8161,2.8291,2.8161,2.8161,2.8291,2.8291,2.8291,2.8291,2.8291,2.8291,2.8291,2.8291,2.8291,2.8291,2.8291,2.8291,2.8291,2.8291,2.8291,2.8291,2.8291,2.8291,2.8291,1.1516,1.1175,1.1155,1.1873,1.2608,1.3373,1.3967,1.4549,1.4898,1.4898,1.4898,1.4875,1.4814,1.4682,1.4729,1.5071,1.5768,1.6366,1.6722,1.7739,1.8583,1.9281,1.9201,1.9473,2.0167,1.9753,1.9488,1.9395,1.9395,1.9395,1.9424,1.9806,1.9575,1.8775,1.9221,1.8832,1.7865,1.7843,1.7772,1.7642,1.7463,1.7486,1.7602,1.7405,1.7606,1.7962,1.786,1.8059,1.8345,1.831,1.8372,1.846,1.846,1.8768,1.9334,2.0507,2.1619,2.2633,2.3514,2.3806,2.3864,2.3824,2.4055,2.4037,2.3107,2.2612,2.2006,2.0771,2.0402,2.0232,2.0157,2.0005,2.0215,2.1234,2.1625,2.1954,2.235,2.3186,2.3878,2.4304,2.5289,2.5996,2.6175,2.667,2.6963,2.6826,2.707,2.7412,2.7868,2.8135,2.8291,2.8291,2.8291,2.8291,2.8291,2.8291,2.8291,2.8291,2.8291,2.8291,2.8291,2.8291,2.8291,2.8291,2.8291,2.8291,2.8291,2.8291,2.8291,2.8291,2.8291,2.8291,2.8291,2.8291,2.8291,2.8291,1.0822,1.1152,1.1774,1.2656,1.3411,1.4141,1.48,1.4898,1.4898,1.4898,1.4898,1.4823,1.462,1.4597,1.5039,1.6112,1.6202,1.6716,1.7958,1.9028,1.9517,1.9325,2.0203,2.0535,2.021,1.9947,1.9659,1.9395,1.9395,1.9395,1.9388,1.9401,1.9073,1.8505,1.8503,1.8163,1.7588,1.754,1.7693,1.7969,1.758,1.7753,1.822,1.7639,1.7814,1.8354,1.8014,1.8132,1.8404,1.8323,1.8525,1.8789,1.8814,1.9786,2.1166,2.2518,2.3461,2.4097,2.41,2.4282,2.448,2.4489,2.4133,2.3495,2.2444,2.2455,2.2284,2.0889,2.0608,2.0738,2.121,2.1352,2.1655,2.2401,2.2517,2.2671,2.3066,2.3409,2.4233,2.5812,2.5888,2.6121,2.691,2.6986,2.6846,2.6426,2.7213,2.7878,2.8271,2.8291,2.8291,2.8291,2.8291,2.8291,2.8291,2.8291,2.8291,2.8291,2.8291,2.8291,2.8291,2.8291,2.8291,2.8291,2.8291,2.8291,2.8291,2.8291,2.8291,2.8291,2.8291,2.8291,2.8291,2.8291,2.8291,2.8291,1.1417,1.1607,1.2111,1.3341,1.3744,1.4141,1.48,1.4898,1.4898,1.4898,1.4781,1.492,1.5513,1.5321,1.5659,1.688,1.763,1.8627,2.0087,2.0469,2.062,2.0566,2.0657,2.0535,2.021,1.9947,1.9659,1.9395,1.9395,1.9395,1.9388,1.9401,1.9073,1.8505,1.8503,1.8163,1.7602,1.7567,1.775,1.7979,1.7872,1.79,1.8002,1.7817,1.8007,1.8357,1.8072,1.83,1.8712,1.8468,1.8581,1.9029,1.9985,2.0998,2.2005,2.2704,2.3582,2.4146,2.3457,2.2911,2.2669,2.3228,2.2839,2.2206,2.1686,2.1243,2.0855,2.0576,2.0874,2.1249,2.152,2.1902,2.2537,2.3651,2.424,2.4674,2.5077,2.5895,2.6443,2.6305,2.6487,2.6746,2.6986,2.6986,2.709,2.7301,2.7819,2.8164,2.8281,2.8291,2.8291,2.8291,2.8291,2.8291,2.8291,2.8291,2.8291,2.8291,2.8291,2.8291,2.8291,2.8291,2.8291,2.8291,2.8291,2.8291,2.8291,2.8291,2.8291,2.8291,2.8291,2.8291,2.8291,2.8291,2.8291,2.8291,1.2117,1.2433,1.2894,1.3748,1.4109,1.4436,1.4833,1.4898,1.5062,1.5481,1.5327,1.5505,1.6412,1.6187,1.6483,1.7773,1.9007,2.0093,2.1057,2.1109,2.1109,2.1109,2.0942,2.0655,2.021,2.003,1.9773,1.9395,1.9395,1.9395,1.9388,1.9258,1.9017,1.8664,1.8421,1.809,1.7747,1.7635,1.789,1.8343,1.8224,1.8269,1.845,1.845,1.8441,1.841,1.8367,1.8511,1.8698,1.862,1.8881,1.9376,2.0421,2.1441,2.23,2.2511,2.3257,2.3757,2.257,2.192,2.1589,2.1771,2.1643,2.14,2.1097,2.1082,2.1182,2.1255,2.1767,2.24,2.304,2.3432,2.4047,2.5238,2.578,2.6169,2.6615,2.711,2.737,2.7158,2.706,2.708,2.7256,2.7275,2.7451,2.7907,2.8144,2.8291,2.8291,2.8291,2.8291,2.8291,2.8291,2.8291,2.8291,2.8291,2.8291,2.8291,2.8291,2.8291,2.8291,2.8291,2.8291,2.8291,2.8291,2.8291,2.8291,2.8291,2.8291,2.8291,2.8291,2.8291,2.8291,2.8291,2.8291,2.8291,1.2882,1.3444,1.3912,1.3973,1.4502,1.4898,1.4898,1.4996,1.5383,1.6381,1.6306,1.6481,1.7333,1.716,1.7502,1.8814,2.0257,2.1109,2.1109,2.1082,2.1082,2.1109,2.1082,2.0777,2.021,2.0204,1.9947,1.9395,1.9395,1.9395,1.9388,1.9065,1.8877,1.8851,1.8258,1.8003,1.7978,1.7734,1.8102,1.8836,1.8523,1.8745,1.9254,1.9254,1.895,1.8568,1.8828,1.8771,1.8585,1.8867,1.9275,1.9783,2.0411,2.1344,2.2186,2.2129,2.2673,2.2997,2.1585,2.1206,2.103,2.0329,2.0657,2.105,2.0721,2.163,2.2551,2.2584,2.3141,2.3961,2.5234,2.5507,2.5872,2.6907,2.7045,2.7207,2.7643,2.7324,2.7344,2.8086,2.749,2.7187,2.7653,2.7721,2.7907,2.8262,2.8291,2.8291,2.8291,2.8291,2.8291,2.8291,2.8291,2.8291,2.8291,2.8291,2.8291,2.8291,2.8291,2.8291,2.8291,2.8291,2.8291,2.8291,2.8291,2.8291,2.8291,2.8291,2.8291,2.8291,2.8291,2.8291,2.8291,2.8291,2.8291,2.8291,1.3543,1.3777,1.4076,1.4604,1.48,1.4898,1.4898,1.5606,1.6251,1.6478,1.6972,1.7611,1.833,1.8392,1.877,1.9826,2.0637,2.1109,2.1109,2.0895,2.0869,2.1096,2.0895,2.0601,2.021,2.0204,1.9947,1.9395,1.9395,1.9395,1.9388,1.9065,1.8799,1.8553,1.8183,1.8009,1.8003,1.7949,1.8171,1.8569,1.8507,1.8675,1.8999,1.8999,1.9212,1.9476,1.9336,1.937,1.9515,1.9519,1.9458,1.9635,2.1019,2.1869,2.2327,2.2201,2.2386,2.2311,2.0831,2.043,2.034,1.998,2.0703,2.1394,2.1073,2.1573,2.2384,2.3252,2.4245,2.5192,2.5898,2.6362,2.6862,2.7445,2.7555,2.7585,2.7682,2.7614,2.7471,2.7314,2.7129,2.7187,2.7653,2.7995,2.822,2.8281,2.8291,2.8291,2.8291,2.8291,2.8291,2.8291,2.8291,2.8291,2.8291,2.8291,2.8291,2.8291,2.8291,2.8291,2.8291,2.8291,2.8291,2.8291,2.8291,2.8291,2.8291,2.8291,2.8291,2.8291,2.8291,2.8291,2.8291,2.8291,2.8291,2.8291,1.4305,1.4371,1.4502,1.4833,1.4898,1.4898,1.4898,1.5801,1.6667,1.7157,1.79,1.8701,1.9563,1.9545,1.9733,2.0366,2.0848,2.1049,2.0909,2.0793,2.0742,2.0895,2.0755,2.0535,2.021,2.0204,1.9947,1.9395,1.9395,1.9395,1.9395,1.9205,1.8983,1.8671,1.8378,1.8205,1.8169,1.8043,1.842,1.9108,1.9108,1.9308,1.9586,1.9888,1.9907,1.98,1.9819,1.9711,1.959,1.9711,1.9735,1.9896,2.0882,2.1553,2.1926,2.1542,2.1512,2.136,2.0289,2.0404,2.0824,2.0834,2.1879,2.2684,2.1928,2.2588,2.3655,2.4808,2.5753,2.6522,2.711,2.7434,2.7705,2.7956,2.7995,2.7995,2.7995,2.7819,2.7682,2.7627,2.7451,2.7516,2.7946,2.8191,2.8291,2.8291,2.8291,2.8344,2.8488,2.8381,2.8344,2.8488,2.8381,2.8291,2.8291,2.8291,2.8291,2.8291,2.8291,2.8291,2.8291,2.8291,2.8291,2.8291,2.8291,2.8291,2.8291,2.8291,2.8291,2.8291,2.8291,2.8291,2.8291,2.8291,2.8291,2.8291,1.4735,1.4637,1.4534,1.4534,1.4796,1.4996,1.4996,1.6154,1.7254,1.7905,1.8677,1.95,2.0334,2.0332,2.0408,2.0686,2.0895,2.0909,2.0621,2.0601,2.0621,2.0706,2.0659,2.0481,2.0204,2.0157,1.99,1.9395,1.9395,1.9368,1.9321,1.9321,1.9113,1.8734,1.8521,1.8381,1.8322,1.8092,1.8593,1.9515,1.9563,1.981,2.0208,2.0763,2.0539,1.9982,2.0276,1.9975,1.9503,1.9836,2.0067,2.0308,2.0604,2.1083,2.1405,2.0851,2.0766,2.0757,2.0378,2.1069,2.2,2.239,2.358,2.4422,2.35,2.4232,2.5386,2.6445,2.7142,2.7701,2.8211,2.8291,2.8291,2.8291,2.8291,2.8291,2.8291,2.8015,2.7927,2.8252,2.8015,2.7936,2.8262,2.8291,2.8291,2.8291,2.8291,2.8408,2.8621,2.8434,2.8408,2.8621,2.8434,2.8291,2.8291,2.8291,2.8291,2.8291,2.8291,2.8291,2.8291,2.8291,2.8291,2.8291,2.8291,2.8291,2.8291,2.8291,2.8291,2.8291,2.8291,2.8291,2.8291,2.8291,2.8291,2.8291,1.4039,1.3514,1.3083,1.3083,1.4324,1.5341,1.5341,1.7507,1.89,1.8098,1.8902,1.9498,1.9318,2.0108,2.0666,2.0706,2.0746,2.0608,2.0277,2.0264,2.0408,2.0699,2.0428,2.0244,2.0204,1.9957,1.9693,1.9395,1.9395,1.9261,1.8985,1.8985,1.8671,1.813,1.8076,1.8063,1.8064,1.801,1.8084,1.8266,1.8557,1.9007,1.9554,1.9865,2.023,2.0578,2.0622,2.0403,2.0124,2.0406,2.052,2.0599,2.0915,2.1083,2.1152,2.1072,2.1213,2.1492,2.2006,2.2833,2.3739,2.4348,2.527,2.6107,2.6487,2.6408,2.6445,2.7152,2.7745,2.8211,2.8291,2.8291,2.8291,2.8291,2.8291,2.8291,2.8291,2.8242,2.8232,2.8281,2.8242,2.8232,2.8281,2.8291,2.8291,2.8291,2.8291,2.8318,2.8344,2.8318,2.8318,2.8344,2.8318,2.8291,2.8291,2.8291,2.8291,2.8291,2.8291,2.8291,2.8291,2.8291,2.8291,2.8291,2.8291,2.8291,2.8291,2.8291,2.8291,2.8291,2.8291,2.8291,2.8291,2.8291,2.8291,2.8291,1.3378,1.3017,1.2882,1.3116,1.4067,1.4977,1.5401,1.7001,1.8072,1.7802,1.8326,1.889,1.9347,2.0176,2.0773,2.0902,2.0621,2.0441,2.0474,2.0297,2.0337,2.0692,2.0394,2.0204,2.0204,1.9947,1.9659,1.9395,1.9395,1.9219,1.8896,1.8896,1.8583,1.7995,1.7995,1.801,1.8009,1.8009,1.8184,1.8522,1.8649,1.8999,1.9436,1.9696,1.9981,2.0243,2.0571,2.0481,2.0289,2.0766,2.0822,2.0696,2.1056,2.1156,2.1189,2.1387,2.1719,2.2217,2.2926,2.373,2.4597,2.5628,2.6299,2.6884,2.7633,2.7653,2.7574,2.7862,2.8104,2.8291,2.8291,2.8486,2.8564,2.833,2.8496,2.8564,2.833,2.8291,2.8291,2.8291,2.8291,2.8291,2.8291,2.8291,2.8291,2.8291,2.8291,2.8381,2.8514,2.8371,2.8381,2.8514,2.8371,2.8291,2.8291,2.8291,2.8291,2.8291,2.8291,2.8291,2.8291,2.8291,2.8291,2.8291,2.8291,2.8291,2.8291,2.8291,2.8291,2.8291,2.8291,2.8291,2.8291,2.8291,2.8291,2.8291]},{"header":{"parameterUnit":"m.s-1","parameterCategory":1,"la1":30.6,"la2":28.766,"lo1":-90.7593,"lo2":-88.6598,"dy":0.0162,"dx":0.0183,"nx":116,"ny":114,"refTime":"2023-03-14T18:00:00:Z","depth":0,"parameterNumber":3,"parameterNumberName":"V-component_of_WINDS"},"data":[0.0,0.0,0.0,0.0,0.0,0.0,0.0,0.0,0.0,0.0,0.0,0.0,0.0,0.0,0.0,0.0,0.0,0.0,0.0,0.0,0.0,0.0,0.0,0.0,0.0,0.0,0.0,0.0,0.0,0.0,0.0,0.0,0.0,0.0,0.0,0.0,0.0,0.0,0.0,0.0,0.0,0.0,0.0,0.0,0.0,0.0,0.0,0.0,0.0,0.0,0.0,0.0,0.0,0.0,0.0,0.0,0.0,0.0,0.0,0.0,0.0,0.0,0.0,0.0,0.0,0.0,0.0,0.0,0.0,0.0,0.0,0.0,0.0,0.0,0.0,0.0,0.0,0.0,0.0,0.0,0.0,0.0,0.0,0.0,0.0,0.0,0.0,0.0,0.0,0.0,0.0,0.0,0.0,0.0,0.0,0.0,0.0,0.0,0.0,0.0,0.0,0.0,0.0,0.0,0.0,0.0,0.0,0.0,0.0,0.0,0.0,0.0,0.0,0.0,0.0,0.0,0.0,0.0,0.0,0.0,0.0,0.0,0.0,0.0,0.0,0.0,0.0,0.0,0.0,0.0,0.0,0.0,0.0,0.0,0.0,0.0,0.0,0.0,0.0,0.0,0.0,0.0,0.0,0.0,0.0,0.0,0.0,0.0,0.0,0.0,0.0,0.0,0.0,0.0,0.0,0.0,0.0,0.0,0.0,0.0,0.0,0.0,0.0,0.0,0.0,0.0,0.0,0.0,0.0,0.0,0.0,0.0,0.0,0.0,0.0,0.0,0.0,0.0,0.0,0.0,0.0,0.0,0.0,0.0,0.0,0.0,0.0,0.0,0.0,0.0,0.0,0.0,0.0,0.0,0.0,0.0,0.0,0.0,0.0,0.0,0.0,0.0,0.0,0.0,0.0,0.0,0.0,0.0,0.0,0.0,0.0,0.0,0.0,0.0,0.0,0.0,0.0,0.0,0.0,0.0,0.0,0.0,0.0,0.0,0.0,0.0,0.0,0.0,0.0,0.0,0.0,0.0,0.0,0.0,0.0,0.0,0.0,0.0,0.0,0.0,0.0,0.0,0.0,0.0,0.0,0.0,0.0,0.0,0.0,0.0,0.0,0.0,0.0,0.0,0.0,0.0,0.0,0.0,0.0,0.0,0.0,0.0,0.0,0.0,0.0,0.0,0.0,0.0,0.0,0.0,0.0,0.0,0.0,0.0,0.0,0.0,0.0,0.0,0.0,0.0,0.0,0.0,0.0,0.0,0.0,0.0,0.0,0.0,0.0,0.0,0.0,0.0,0.0,0.0,0.0,0.0,0.0,0.0,0.0,0.0,0.0,0.0,0.0,0.0,0.0,0.0,0.0,0.0,0.0,0.0,0.0,0.0,0.0,0.0,0.0,0.0,0.0,0.0,0.0,0.0,0.0,0.0,0.0,0.0,0.0,0.0,0.0,0.0,0.0,0.0,0.0,0.0,0.0,0.0,0.0,0.0,0.0,0.0,0.0,0.0,0.0,0.0,0.0,0.0,0.0,0.0,0.0,0.0,0.0,0.0,0.0,0.0,0.0,0.0,0.0,0.0,0.0,0.0,0.0,0.0,0.0,0.0,0.0,0.0,0.0,0.0,0.0,0.0,0.0,0.0,0.0,0.0,0.0,0.0,0.0,0.0,0.0,0.0,0.0,0.0,0.0,0.0,0.0,0.0,0.0,0.0,0.0,0.0,0.0,0.0,0.0,0.0,0.0,0.0,0.0,0.0,0.0,0.0,0.0,0.0,0.0,0.0,0.0,0.0,0.0,0.0,0.0,0.0,0.0,0.0,0.0,0.0,0.0,0.0,0.0,0.0,0.0,0.0,0.0,0.0,0.0,0.0,0.0,0.0,0.0,0.0,0.0,0.0,0.0,0.0,0.0,0.0,0.0,0.0,0.0,0.0,0.0,0.0,0.0,0.0,0.0,0.0,0.0,0.0,0.0,0.0,0.0,0.0,0.0,0.0,0.0,0.0,0.0,0.0,0.0,0.0,0.0,0.0,0.0,0.0,0.0,0.0,0.0,0.0,0.0,0.0,0.0,0.0,0.0,0.0,0.0,0.0,0.0,0.0,0.0,0.0,0.0,0.0,0.0,0.0,0.0,0.0,0.0,0.0,0.0,0.0,0.0,0.0,0.0,0.0,0.0,0.0,0.0,0.0,0.0,0.0,0.0,0.0,0.0,0.0,0.0,0.0,0.0,0.0,0.0,0.0,0.0,0.0,0.0,0.0,0.0,0.0,0.0,0.0,0.0,0.0,0.0,0.0,0.0,0.0,0.0,0.0,0.0,0.0,0.0,0.0,0.0,0.0,0.0,0.0,0.0,0.0,0.0,0.0,0.0,0.0,0.0,0.0,0.0,0.0,0.0,0.0,0.0,0.0,0.0,0.0,0.0,0.0,0.0,0.0,0.0,0.0,0.0,0.0,0.0,0.0,0.0,0.0,0.0,0.0,0.0,0.0,0.0,0.0,0.0,0.0,0.0,0.0,0.0,0.0,0.0,0.0,0.0,0.0,0.0,0.0,0.0,0.0,0.0,0.0,0.0,0.0,0.0,0.0,0.0,0.0,0.0,0.0,0.0,0.0,0.0,0.0,0.0,0.0,0.0,0.0,0.0,0.0,0.0,0.0,0.0,0.0,0.0,0.0,0.0,0.0,0.0,0.0,0.0,0.0,0.0,0.0,0.0,0.0,0.0,0.0,0.0,0.0,0.0,0.0,0.0,0.0,0.0,0.0,0.0,0.0,0.0,0.0,0.0,0.0,0.0,0.0,0.0,0.0,0.0,0.0,0.0,0.0,0.0,0.0,0.0,0.0,0.0,0.0,0.0,0.0,0.0,0.0,0.0,0.0,0.0,0.0,0.0,0.0,0.0,0.0,0.0,0.0,0.0,0.0,0.0,0.0,0.0,0.0,0.0,0.0,0.0,0.0,0.0,0.0,0.0,0.0,0.0,0.0,0.0,0.0,0.0,0.0,0.0,0.0,0.0,0.0,0.0,0.0,0.0,0.0,0.0,0.0,0.0,0.0,0.0,0.0,0.0,0.0,0.0,0.0,0.0,0.0,0.0,0.0,0.0,0.0,0.0,0.0,0.0,0.0,0.0,0.0,0.0,0.0,0.0,0.0,0.0,0.0,0.0,0.0,0.0,0.0,0.0,0.0,0.0,0.0,0.0,0.0,0.0,0.0,0.0,0.0,0.0,0.0,0.0,0.0,0.0,0.0,0.0,0.0,0.0,0.0,0.0,0.0,0.0,0.0,0.0,0.0,0.0,0.0,0.0,0.0,0.0,0.0,0.0,0.0,0.0,0.0,0.0,0.0,0.0,0.0,0.0,0.0,0.0,0.0,0.0,0.0,0.0,0.0,0.0,0.0,0.0,0.0,0.0,0.0,0.0,0.0,0.0,0.0,0.0,0.0,0.0,0.0,0.0,0.0,0.0,0.0,0.0,0.0,0.0,0.0,0.0,0.0,0.0,0.0,0.0,0.0,0.0,0.0,0.0,0.0,0.0,0.0,0.0,0.0,0.0,0.0,0.0,0.0,0.0,0.0,0.0,0.0,0.0,0.0,0.0,0.0,0.0,0.0,0.0,0.0,0.0,0.0,0.0,0.0,0.0,0.0,0.0,0.0,0.0,0.0,0.0,0.0,0.0,0.0,0.0,0.0,0.0,0.0,0.0,0.0,0.0,0.0,0.0,0.0,0.0,0.0,0.0,0.0,0.0,0.0,0.0,0.0,0.0,0.0,0.0,0.0,0.0,0.0,0.0,0.0,0.0,0.0,0.0,0.0,0.0,0.0,0.0,0.0,0.0,0.0,0.0,0.0,0.0,0.0,0.0,0.0,0.0,0.0,0.0,0.0,0.0,0.0,0.0,0.0,0.0,0.0,0.0,0.0,0.0,0.0,0.0,0.0,0.0,0.0,0.0,0.0,0.0,0.0,0.0,0.0,0.0,0.0,0.0,0.0,0.0,0.0,0.0,0.0,0.0,0.0,0.0,0.0,0.0,0.0,0.0,0.0,0.0,0.0,0.0,0.0,0.0,0.0,0.0,0.0,0.0,0.0,0.0,0.0,0.0,0.0,0.0,0.0,0.0,0.0,0.0,0.0,0.0,0.0,0.0,0.0,0.0,0.0,0.0,0.0,0.0,0.0,0.0,0.0,0.0,0.0,0.0,0.0,0.0,0.0,0.0,0.0,0.0,0.0,0.0,0.0,0.0,0.0,0.0,0.0,0.0,0.0,0.0,0.0,0.0,0.0,0.0,0.0,0.0,0.0,0.0,0.0,0.0,0.0,0.0,0.0,0.0,0.0,0.0,0.0,0.0,0.0,0.0,0.0,0.0,0.0,0.0,0.0,0.0,0.0,0.0,0.0,0.0,0.0,0.0,0.0,0.0,0.0,0.0,0.0,0.0,0.0,0.0,0.0,0.0,0.0,0.0,0.0,0.0,0.0,0.0,0.0,0.0,0.0,0.0,0.0,0.0,0.0,0.0,0.0,0.0,0.0,0.0,0.0,0.0,0.0,0.0,0.0,0.0,0.0,0.0,0.0,0.0,0.0,0.0,0.0,0.0,0.0,0.0,0.0,0.0,0.0,0.0,0.0,0.0,0.0,0.0,0.0,0.0,0.0,0.0,0.0,0.0,0.0,0.0,0.0,0.0,0.0,0.0,0.0,0.0,0.0,0.0,0.0,0.0,0.0,0.0,0.0,0.0,0.0,0.0,0.0,0.0,0.0,0.0,0.0,0.0,0.0,0.0,0.0,0.0,0.0,0.0,0.0,0.0,0.0,0.0,0.0,0.0,0.0,0.0,0.0,0.0,0.0,0.0,0.0,0.0,0.0,0.0,0.0,0.0,0.0,0.0,0.0,0.0,0.0,0.0,0.0,0.0,0.0,0.0,0.0,0.0,0.0,0.0,0.0,0.0,0.0,0.0,0.0,0.0,0.0,0.0,0.0,0.0,0.0,0.0,0.0,0.0,0.0,0.0,0.0,0.0,0.0,0.0,0.0,0.0,0.0,0.0,0.0,0.0,0.0,0.0,0.0,0.0,0.0,0.0,0.0,0.0,0.0,0.0,0.0,0.0,0.0,0.0,0.0,0.0,0.0,0.0,0.0,0.0,0.0,0.0,0.0,0.0,0.0,0.0,0.0,0.0,0.0,0.0,0.0,0.0,0.0,0.0,0.0,0.0,0.0,0.0,0.0,0.0,0.0,0.0,0.0,0.0,0.0,0.0,0.0,0.0,0.0,0.0,0.0,0.0,0.0,0.0,0.0,0.0,0.0,0.0,0.0,0.0,0.0,0.0,0.0,0.0,0.0,0.0,0.0,0.0,0.0,0.0,0.0,0.0,0.0,0.0,0.0,0.0,0.0,0.0,0.0,0.0,0.0,0.0,0.0,0.0,0.0,0.0,0.0,0.0,0.0,0.0,0.0,0.0,0.0,0.0,0.0,0.0,0.0,0.0,0.0,0.0,0.0,0.0,0.0,0.0,0.0,0.0,0.0,0.0,0.0,0.0,0.0,0.0,0.0,0.0,0.0,0.0,0.0,0.0,0.0,0.0,0.0,0.0,0.0,0.0,0.0,0.0,0.0,0.0,0.0,0.0,0.0,0.0,0.0,0.0,0.0,0.0,0.0,0.0,0.0,0.0,0.0,0.0,0.0,0.0,0.0,0.0,0.0,0.0,0.0,0.0,0.0,0.0,0.0,0.0,0.0,0.0,0.0,0.0,0.0,0.0,0.0,0.0,0.0,0.0,0.0,0.0,0.0,0.0,0.0,0.0,0.0,0.0,0.0,0.0,0.0,0.0,0.0,0.0,0.0,0.0,0.0,0.0,0.0,0.0,0.0,0.0,0.0,0.0,0.0,0.0,0.0,0.0,0.0,0.0,0.0,0.0,0.0,0.0,0.0,0.0,0.0,0.0,0.0,0.0,0.0,0.0,0.0,0.0,0.0,0.0,0.0,0.0,0.0,0.0,0.0,0.0,0.0,0.0,0.0,0.0,0.0,0.0,0.0,0.0,0.0,0.0,0.0,0.0,0.0,0.0,0.0,0.0,0.0,0.0,0.0,0.0,0.0,2.5179,2.5069,0.0,0.0,0.0,0.0,0.0,0.0,0.0,0.0,0.0,0.0,0.0,0.0,0.0,0.0,0.0,0.0,0.0,0.0,0.0,0.0,0.0,0.0,0.0,0.0,0.0,0.0,0.0,0.0,0.0,0.0,0.0,0.0,0.0,0.0,0.0,0.0,0.0,0.0,0.0,0.0,0.0,0.0,0.0,0.0,0.0,0.0,0.0,0.0,0.0,0.0,0.0,0.0,0.0,0.0,0.0,0.0,0.0,0.0,0.0,0.0,0.0,0.0,0.0,0.0,0.0,0.0,0.0,0.0,0.0,0.0,0.0,0.0,0.0,0.0,0.0,0.0,0.0,0.0,0.0,0.0,0.0,0.0,0.0,0.0,0.0,0.0,0.0,0.0,0.0,0.0,0.0,0.0,0.0,0.0,0.0,0.0,0.0,0.0,0.0,0.0,0.0,0.0,0.0,0.0,0.0,0.0,0.0,0.0,0.0,0.0,0.0,0.0,0.0,0.0,2.6502,2.5837,0.0,0.0,0.0,0.0,0.0,0.0,0.0,0.0,0.0,0.0,0.0,0.0,0.0,0.0,0.0,0.0,0.0,0.0,0.0,0.0,0.0,0.0,0.0,0.0,0.0,0.0,0.0,0.0,0.0,0.0,0.0,0.0,0.0,0.0,0.0,0.0,0.0,0.0,0.0,0.0,0.0,0.0,0.0,0.0,0.0,0.0,0.0,0.0,0.0,0.0,0.0,0.0,0.0,0.0,0.0,0.0,0.0,0.0,0.0,0.0,0.0,0.0,0.0,0.0,0.0,0.0,0.0,0.0,0.0,0.0,0.0,0.0,0.0,0.0,0.0,0.0,0.0,0.0,0.0,0.0,0.0,0.0,0.0,0.0,0.0,0.0,0.0,0.0,0.0,0.0,0.0,0.0,0.0,0.0,0.0,0.0,0.0,0.0,0.0,0.0,0.0,0.0,0.0,0.0,0.0,0.0,0.0,0.0,2.9755,3.0072,2.9872,2.9926,3.0275,3.071,2.8516,2.7357,2.7064,2.7613,0.0,0.0,0.0,0.0,0.0,0.0,0.0,0.0,0.0,0.0,0.0,0.0,0.0,0.0,0.0,0.0,0.0,0.0,0.0,0.0,0.0,2.2456,2.2914,2.2917,2.3664,2.4144,0.0,0.0,0.0,0.0,0.0,0.0,0.0,0.0,0.0,0.0,0.0,0.0,2.4385,2.3333,2.2975,2.3193,2.3089,0.0,0.0,0.0,0.0,0.0,0.0,0.0,0.0,0.0,0.0,0.0,0.0,0.0,0.0,0.0,0.0,0.0,0.0,0.0,0.0,0.0,0.0,0.0,0.0,0.0,0.0,0.0,0.0,0.0,0.0,0.0,0.0,0.0,0.0,0.0,0.0,0.0,0.0,0.0,0.0,0.0,0.0,0.0,2.8616,2.8858,0.0,0.0,0.0,0.0,0.0,0.0,0.0,0.0,0.0,0.0,0.0,0.0,0.0,3.2184,3.271,3.2831,3.2441,3.1595,3.2479,3.2473,3.1744,3.1742,3.1773,3.1795,3.1501,0.0,2.9819,2.9096,0.0,0.0,0.0,0.0,0.0,0.0,0.0,0.0,0.0,0.0,0.0,0.0,0.0,0.0,0.0,0.0,0.0,0.0,0.0,0.0,0.0,2.4411,2.4863,2.4873,2.5246,2.5502,2.5575,0.0,0.0,0.0,0.0,0.0,0.0,0.0,0.0,0.0,2.4711,2.4356,2.3846,2.3145,2.2528,2.2045,2.2151,2.2301,2.2521,2.3054,0.0,0.0,0.0,0.0,0.0,0.0,0.0,0.0,0.0,0.0,0.0,0.0,0.0,0.0,0.0,0.0,0.0,0.0,0.0,0.0,0.0,0.0,0.0,0.0,0.0,0.0,0.0,0.0,0.0,0.0,0.0,0.0,0.0,0.0,0.0,0.0,0.0,0.0,0.0,3.0173,3.1066,3.0767,3.1515,3.1972,0.0,0.0,0.0,0.0,0.0,0.0,0.0,0.0,0.0,3.4207,3.4235,3.4179,3.4082,3.4062,3.3651,3.2847,3.3218,3.319,3.2767,3.2767,3.3032,3.3468,3.3539,3.3275,3.2739,3.1796,3.1297,3.1024,0.0,0.0,0.0,0.0,2.9594,2.941,0.0,0.0,0.0,0.0,0.0,0.0,0.0,0.0,0.0,0.0,0.0,0.0,2.525,2.6307,2.688,2.6704,2.6902,2.7004,2.6889,2.6215,0.0,0.0,0.0,0.0,0.0,0.0,0.0,2.585,2.5676,2.5134,2.4285,2.3463,2.267,2.1972,2.213,2.2207,2.2296,2.2601,2.3117,0.0,0.0,0.0,0.0,0.0,0.0,0.0,0.0,0.0,0.0,0.0,0.0,0.0,0.0,0.0,0.0,0.0,0.0,0.0,0.0,0.0,0.0,0.0,0.0,0.0,0.0,0.0,0.0,0.0,0.0,0.0,0.0,0.0,0.0,0.0,0.0,0.0,0.0,3.2135,3.3266,3.2587,3.3953,3.4692,0.0,0.0,0.0,0.0,0.0,0.0,3.5309,3.5116,3.5351,3.6152,3.6188,3.5988,3.5559,3.5554,3.5278,3.4693,3.468,3.4644,3.4602,3.4615,3.4984,3.5595,3.5409,3.5342,3.5246,3.411,3.3123,3.2281,3.2215,3.1757,3.1202,3.1798,3.1514,3.0954,0.0,0.0,0.0,0.0,0.0,0.0,0.0,0.0,0.0,0.0,0.0,2.5135,2.5114,2.7133,2.8207,2.7511,2.8268,2.8524,2.7963,2.7174,2.6766,0.0,0.0,0.0,0.0,0.0,0.0,2.869,2.6937,2.639,2.6964,2.4831,2.3814,2.3753,2.3383,2.2426,2.1141,2.2182,2.2899,2.3495,0.0,0.0,0.0,0.0,0.0,0.0,0.0,0.0,0.0,0.0,0.0,0.0,0.0,0.0,0.0,0.0,0.0,0.0,0.0,0.0,0.0,0.0,0.0,0.0,0.0,0.0,0.0,0.0,0.0,0.0,0.0,0.0,0.0,0.0,0.0,0.0,0.0,0.0,0.0,3.4252,3.5653,0.0,0.0,0.0,0.0,3.7098,3.7031,3.7034,3.7068,3.623,3.6111,3.6922,3.6947,3.7317,3.8101,3.817,3.821,3.8233,3.8174,3.8146,3.8154,3.8203,3.826,3.8251,3.743,3.7075,3.6958,3.531,3.4112,3.3323,3.3241,3.3205,3.3156,3.314,3.3048,3.2959,0.0,0.0,0.0,0.0,0.0,0.0,0.0,0.0,0.0,2.614,2.6689,2.7205,2.774,2.8902,2.9744,3.0042,2.9918,2.9701,2.9499,2.8366,2.7709,0.0,0.0,0.0,0.0,0.0,2.8757,2.8395,2.819,2.7668,2.6789,2.583,2.5002,2.4336,2.4076,2.3884,2.3694,2.2705,2.2559,2.305,2.3873,2.4652,0.0,0.0,0.0,0.0,0.0,0.0,0.0,0.0,0.0,0.0,0.0,0.0,0.0,0.0,0.0,0.0,0.0,0.0,0.0,0.0,0.0,0.0,0.0,0.0,0.0,0.0,0.0,0.0,0.0,0.0,0.0,0.0,0.0,0.0,0.0,0.0,0.0,3.6944,3.7877,0.0,3.7625,3.7872,3.8042,3.8004,3.7986,3.8194,3.8712,3.8438,3.859,3.9355,3.9373,3.926,3.9005,3.8987,3.8711,3.8179,3.8114,3.808,3.8084,3.8145,3.8196,3.8234,3.7959,3.7823,3.7728,3.7133,3.5829,3.4158,3.4001,3.3604,3.3165,3.3619,3.3416,3.3067,0.0,0.0,0.0,0.0,0.0,0.0,0.0,0.0,0.0,2.7935,2.8296,2.8743,2.9611,3.0507,3.1287,3.1919,3.1477,3.1071,3.0856,2.9463,2.8631,0.0,0.0,0.0,0.0,2.9635,2.9624,2.9004,2.9204,2.8718,2.7568,2.7042,2.6272,2.5316,2.5418,2.5468,2.543,2.4289,2.3886,2.4034,2.4225,2.4756,2.5455,0.0,0.0,0.0,0.0,0.0,0.0,0.0,0.0,0.0,0.0,0.0,0.0,0.0,0.0,0.0,0.0,0.0,0.0,0.0,0.0,0.0,0.0,0.0,0.0,0.0,0.0,0.0,0.0,0.0,0.0,0.0,0.0,0.0,0.0,0.0,3.8453,3.889,4.0045,4.0545,3.9823,4.0019,4.0032,3.9687,3.9649,3.9737,3.9969,4.0233,4.0588,4.1068,4.1052,4.0761,4.0223,3.9877,3.943,3.8881,3.881,3.8779,3.8779,3.8823,3.8866,3.8897,3.8646,3.85,3.8453,3.8125,3.708,3.5661,3.5558,3.5157,3.4717,3.519,3.4807,3.416,0.0,0.0,0.0,0.0,0.0,0.0,0.0,2.6966,2.7251,2.8137,2.8838,2.9595,3.0484,3.1859,3.2786,3.2941,3.2956,3.2642,3.1958,3.0447,2.9573,0.0,0.0,0.0,3.0856,3.0873,3.0887,3.0881,3.0005,2.9577,2.9517,2.8523,2.7586,2.6765,2.7419,2.7071,2.605,2.6824,2.6892,2.6525,2.6658,2.6356,2.5967,0.0,0.0,0.0,0.0,0.0,0.0,0.0,0.0,0.0,0.0,0.0,0.0,0.0,0.0,0.0,0.0,0.0,0.0,0.0,0.0,0.0,0.0,0.0,0.0,0.0,0.0,0.0,0.0,0.0,0.0,0.0,0.0,0.0,3.8786,4.004,4.0755,3.9997,4.2086,4.3241,4.2327,4.3005,4.3123,4.2209,4.2125,4.1729,4.0824,4.1502,4.1896,4.1836,4.178,4.1752,4.1828,4.0993,4.0577,4.0619,4.0545,4.0508,4.0469,4.0492,4.0492,4.0438,3.9604,3.9229,3.9161,3.8247,3.7862,3.787,3.7877,3.7885,3.7878,3.782,3.7248,3.6423,0.0,0.0,0.0,0.0,0.0,0.0,0.0,2.748,2.8162,2.9036,2.9858,3.0906,3.2371,3.2899,3.3382,3.4015,3.4091,3.3513,3.2064,3.1603,0.0,0.0,0.0,0.0,3.2675,3.2685,3.2689,3.269,3.1816,3.1055,3.0429,2.9501,2.8597,2.7718,2.7811,2.7971,2.8236,2.8348,2.8578,2.8729,2.7345,2.6758,2.6793,0.0,0.0,0.0,0.0,0.0,0.0,0.0,0.0,0.0,0.0,0.0,0.0,0.0,0.0,0.0,0.0,0.0,0.0,0.0,0.0,0.0,0.0,0.0,0.0,0.0,0.0,0.0,0.0,0.0,0.0,0.0,0.0,4.1178,4.0447,4.1177,4.1944,4.2364,4.3028,4.3351,4.3101,4.3289,4.3263,4.286,4.2828,4.2665,4.2306,4.2511,4.2577,4.245,4.2432,4.2412,4.2387,4.2094,4.1674,4.1108,4.1034,4.068,4.007,4.0168,4.0201,4.0205,4.0015,3.9896,3.9828,3.9571,3.9414,3.9216,3.8112,3.7686,3.7663,3.7543,3.7352,3.712,0.0,0.0,0.0,0.0,0.0,0.0,0.0,2.7661,2.8502,2.9346,3.0211,3.1269,3.2617,3.2789,3.3115,3.3936,3.4068,3.3505,3.2128,3.2047,0.0,0.0,0.0,3.2795,3.3318,3.3314,3.3323,3.3323,3.2831,3.2338,3.1832,3.1325,3.0624,2.9798,3.0046,3.0009,2.9776,3.0393,3.0405,2.9934,2.9061,2.8274,2.7625,2.7751,2.8055,2.8457,2.888,2.9321,2.9738,2.9873,0.0,0.0,0.0,0.0,0.0,0.0,0.0,0.0,0.0,0.0,0.0,0.0,0.0,0.0,0.0,0.0,0.0,0.0,0.0,0.0,0.0,0.0,0.0,0.0,4.2313,4.3596,4.3525,4.3935,4.4285,4.4424,4.4737,4.4805,4.4402,4.4301,4.407,4.3557,4.3803,4.3787,4.3345,4.3679,4.3964,4.42,4.3471,4.321,4.3469,4.2681,4.2035,4.1552,4.1594,4.1354,4.0863,4.1005,4.1065,4.1046,4.0748,4.0739,4.0868,4.0157,4.018,4.0501,0.0,0.0,0.0,0.0,3.8107,3.8264,0.0,0.0,0.0,0.0,0.0,0.0,0.0,2.7625,2.8473,2.9275,3.0141,3.1023,3.1881,3.2036,3.2367,3.3085,3.3363,3.3189,3.241,0.0,0.0,3.2174,3.3025,3.3535,3.3634,3.3714,3.3753,3.3753,3.3736,3.3665,3.3571,3.3478,3.3011,3.2268,3.2988,3.2415,3.1003,3.2484,3.2155,3.0698,3.1345,3.0353,2.8533,2.8736,2.9308,3.0095,3.1005,3.1832,3.2519,3.2642,0.0,0.0,0.0,0.0,0.0,0.0,0.0,0.0,0.0,0.0,0.0,0.0,0.0,0.0,0.0,0.0,0.0,0.0,0.0,0.0,0.0,0.0,0.0,0.0,4.4365,4.6251,4.7115,4.7402,4.7208,4.6258,4.6771,4.6874,4.602,4.5849,4.5428,4.4565,4.5111,4.5129,4.435,4.5055,0.0,0.0,0.0,4.4347,4.4985,4.3271,4.2382,4.2314,4.2296,4.2285,4.2285,4.2301,4.2317,4.2255,4.146,4.1397,4.1768,4.0121,4.0274,4.1451,4.0488,4.0042,3.9866,3.9139,3.9171,3.9426,0.0,0.0,0.0,0.0,0.0,0.0,0.0,2.7474,2.8342,2.9218,3.0081,3.0958,3.1821,3.1932,3.2029,3.223,3.3453,3.4135,0.0,0.0,3.3199,3.3895,3.4741,3.5553,3.6254,3.691,3.7228,3.7228,3.6599,3.5929,3.5215,3.4574,3.3839,3.3075,3.3222,3.3103,3.2792,3.312,3.3053,3.2729,3.2879,3.166,2.9828,3.0506,3.086,3.1115,3.1899,3.2302,3.2497,3.2523,3.3032,3.3671,3.3839,0.0,0.0,0.0,0.0,0.0,0.0,0.0,0.0,0.0,0.0,0.0,0.0,0.0,0.0,0.0,0.0,0.0,0.0,0.0,0.0,4.3485,4.5832,4.7738,4.8509,4.9247,4.9181,4.7767,4.7726,4.7722,4.75,4.7445,4.732,4.7024,4.7135,4.712,4.6909,4.7036,4.7178,4.7269,4.6922,4.6746,4.6718,4.5618,4.4986,4.4796,4.346,0.0,4.274,4.212,4.1807,4.1707,4.0899,4.0565,4.0479,3.95,3.9718,4.0696,4.1163,4.0921,4.0289,4.014,3.9669,3.9085,0.0,0.0,0.0,0.0,0.0,0.0,0.0,2.768,2.8633,2.8994,2.9846,3.0582,3.1045,3.1094,3.1133,3.1184,3.2322,0.0,0.0,3.4254,3.4605,3.5425,3.6256,3.6914,3.74,3.7763,3.7966,3.8002,3.7604,3.7182,3.6798,3.6389,3.605,3.5752,3.5714,3.5491,3.5186,3.5589,3.5017,3.3898,3.4339,3.334,3.1646,3.2012,3.2364,3.2705,3.3041,3.3433,3.3863,3.4339,3.4908,3.5508,3.6062,3.6617,3.6896,0.0,0.0,0.0,0.0,0.0,0.0,0.0,0.0,0.0,0.0,0.0,0.0,0.0,0.0,4.1926,0.0,0.0,4.476,4.6342,4.8034,4.9417,5.0146,5.063,5.0296,4.8682,4.8499,4.8327,4.7857,4.7766,4.7709,4.7621,4.7846,4.7983,4.795,4.7816,4.7928,4.8289,4.7419,4.7076,4.7347,4.6353,4.5782,4.5633,4.4909,4.4533,4.4469,4.3818,4.3491,4.339,4.2099,4.1679,4.1859,4.132,4.1117,4.1243,4.2107,4.1611,4.0393,4.0314,3.9676,3.8968,0.0,0.0,0.0,0.0,0.0,0.0,0.0,0.0,2.8957,2.9025,2.9693,3.0181,3.0256,3.0257,3.0348,3.0562,0.0,0.0,0.0,3.5126,3.5948,3.6706,3.7521,3.798,3.8034,3.8132,3.8209,3.8263,3.8269,3.8207,3.8116,3.8137,3.8125,3.8127,3.8082,3.7724,3.7218,3.7868,3.6954,3.5135,3.5834,3.5291,3.4049,3.3981,3.4128,3.4333,3.4446,3.5005,3.5807,3.6554,3.6984,3.7379,3.8133,3.8576,3.8656,3.7843,3.8156,0.0,0.0,0.0,0.0,0.0,0.0,0.0,0.0,0.0,4.2397,4.3455,4.4299,4.4818,4.4666,4.6003,4.7599,4.9033,5.0136,5.1017,5.1593,5.1675,5.1174,4.9819,4.9544,4.9234,4.8604,4.8511,4.8409,4.8298,4.8673,4.8852,4.8702,4.8621,4.8826,4.9328,4.7922,4.7435,4.7998,4.68,4.6214,4.6286,4.6094,4.6074,4.6211,4.5456,4.5111,4.5002,4.3267,4.2689,4.2983,4.2767,4.2377,4.195,4.2477,4.1857,4.067,4.0559,3.9898,3.9239,0.0,0.0,0.0,0.0,0.0,0.0,0.0,0.0,0.0,2.9771,2.9954,3.0046,3.0116,3.0111,3.0413,3.1138,0.0,0.0,3.4899,3.5861,3.6727,3.7527,3.8391,3.8858,3.8863,3.9561,3.9919,3.9924,3.9933,3.956,3.889,3.8943,3.8558,3.7844,3.7903,3.7877,3.7813,3.789,3.7778,3.7511,3.7601,3.7562,3.7454,3.7442,3.6633,3.5601,3.6306,3.7113,3.7852,3.7831,3.8439,3.9215,3.9318,3.9976,4.0531,3.9653,0.0,3.9465,3.859,3.8901,4.0027,4.2367,4.2913,4.335,0.0,0.0,4.6159,4.5544,4.5975,4.6406,4.6259,4.7558,4.8925,4.9759,5.1235,5.2259,5.2309,5.2295,5.2226,5.2037,5.1488,5.1253,5.1585,5.1605,5.145,5.1075,5.1109,5.0831,5.0102,5.0731,5.0807,5.0191,4.9969,4.9846,4.982,4.8105,4.75,4.8012,4.6411,4.6024,4.6664,4.5177,4.4464,4.4317,4.2559,4.1433,4.0835,4.0817,4.1234,4.1832,4.1089,4.1179,4.1729,4.1721,4.1114,4.0318,0.0,0.0,0.0,0.0,0.0,0.0,0.0,0.0,0.0,0.0,2.9736,2.9816,2.9911,2.9929,3.0006,0.0,0.0,0.0,3.4536,3.5998,3.7343,3.858,3.8982,3.9188,3.9222,3.9515,3.9703,3.9738,3.9703,3.9571,3.9404,3.9761,3.9567,3.8985,3.9481,3.9471,3.9062,3.9201,3.8966,3.8549,3.8549,3.825,3.7828,3.7874,3.7797,3.7612,3.705,3.71,0.0,0.0,3.8455,3.8974,3.999,4.0607,4.0785,3.994,4.0054,0.0,4.0615,4.1553,4.2762,0.0,4.4827,4.5674,4.6327,4.7051,4.7459,4.7059,4.7919,4.8724,4.8653,4.9436,5.0467,0.0,5.2379,5.2714,5.2634,5.2637,5.2637,5.2637,5.2392,5.2176,5.2052,5.188,5.1678,5.1498,5.1385,5.1184,5.085,5.0981,5.0934,5.0601,5.0148,4.9824,4.9701,4.8408,4.7851,4.8058,4.7302,4.6862,4.6708,4.5562,4.4459,4.3447,4.2702,4.2212,4.1904,4.1904,4.2131,4.244,4.205,4.2131,4.2422,4.1959,4.1243,4.0564,0.0,0.0,0.0,0.0,0.0,0.0,0.0,0.0,0.0,0.0,0.0,2.9608,2.9714,2.9689,0.0,0.0,0.0,0.0,0.0,3.6023,3.7617,3.923,3.9522,3.9561,3.9388,3.9542,3.9542,3.9369,3.9324,3.9408,3.9593,3.9993,3.9989,3.969,4.0273,4.0228,3.9739,3.9862,3.9582,3.9055,3.9125,3.8765,3.8233,3.8366,3.8804,3.9205,3.7948,3.7673,0.0,0.0,3.8762,3.9147,4.0153,4.0641,4.0732,4.0148,4.0389,4.1037,4.1883,0.0,0.0,4.5005,4.6264,4.7472,4.8049,4.8587,4.9013,4.9182,5.0042,5.0754,5.0735,5.1114,5.18,5.2967,5.3196,5.3191,5.3138,5.3129,5.3129,5.3129,5.3077,5.2861,5.2481,5.2216,5.2055,5.1964,5.1833,5.1653,5.1422,5.1455,5.1332,5.1081,5.0505,5.0051,4.9681,4.875,4.8166,4.7892,4.7861,4.7415,4.6616,4.5573,4.43,4.2892,4.2892,4.2892,4.2892,4.2892,4.2892,4.2892,4.2892,4.2891,4.279,4.222,4.1632,4.1216,0.0,0.0,0.0,0.0,0.0,0.0,0.0,0.0,0.0,0.0,0.0,0.0,0.0,0.0,0.0,0.0,0.0,0.0,0.0,3.6116,3.7428,3.9223,4.0044,4.01,3.9323,4.0062,4.0081,3.9305,3.9305,3.9305,3.9311,3.9323,3.9323,3.9318,3.9336,3.9336,3.9299,3.9264,3.9219,3.922,3.9408,3.9507,3.9565,3.9827,3.9981,4.0005,3.943,0.0,0.0,0.0,3.9922,4.0487,3.9695,4.0023,0.0,4.0678,4.0682,0.0,0.0,0.0,4.3713,4.6043,4.7266,4.8493,5.0841,5.1372,5.1615,5.2393,5.2332,5.2122,5.2054,5.2432,5.2765,5.2802,5.3456,5.3969,5.396,5.396,5.396,5.396,5.373,5.3576,0.0,5.3539,5.3438,5.3175,5.3143,5.2795,5.2016,5.2711,5.2703,5.181,5.1755,5.1289,5.0388,4.9492,4.8676,4.7892,4.777,4.7283,4.645,4.4866,4.3689,4.2892,4.2892,4.2892,4.2892,4.2892,4.2892,4.2892,4.2892,4.2871,4.2793,4.2775,4.2739,4.2721,0.0,0.0,0.0,0.0,0.0,0.0,0.0,0.0,0.0,0.0,0.0,0.0,0.0,0.0,0.0,0.0,0.0,0.0,0.0,3.5034,3.663,3.7729,3.8635,3.9179,3.93,3.9696,3.9995,4.0162,4.0244,4.0349,4.0434,4.0837,4.0766,4.032,4.0846,4.0504,3.9503,3.9708,3.9806,3.9771,3.953,3.9783,4.0284,3.9937,3.9878,3.9942,0.0,0.0,0.0,0.0,0.0,0.0,3.9247,0.0,0.0,4.0633,0.0,0.0,0.0,0.0,4.639,4.765,4.891,5.0005,5.0738,5.1688,5.2344,5.203,5.1489,5.1069,5.1045,5.1026,5.1173,5.1721,5.2741,5.3481,5.3481,5.3481,5.3481,5.3481,5.338,0.0,0.0,0.0,0.0,5.3206,5.3196,5.3086,5.281,5.2967,5.2932,5.2615,5.1991,5.1237,5.0336,4.9515,4.8652,4.777,4.7184,4.6747,4.6468,4.5399,4.4747,4.4486,4.4486,4.4486,4.444,4.3924,4.3668,4.3582,4.304,4.2774,4.2676,4.2676,4.2637,4.2596,0.0,0.0,0.0,0.0,0.0,0.0,0.0,0.0,0.0,0.0,0.0,0.0,0.0,0.0,0.0,0.0,0.0,0.0,0.0,0.0,3.5599,3.6595,3.7234,3.7866,3.8492,3.8766,3.9124,3.9606,3.9763,3.9968,4.0214,4.0443,4.0526,4.0499,4.0877,4.061,3.9917,3.9823,3.9853,3.991,3.9366,3.957,4.0158,3.9794,3.9747,0.0,0.0,0.0,0.0,0.0,0.0,0.0,0.0,0.0,0.0,0.0,0.0,0.0,0.0,4.576,4.7523,4.8205,4.9513,5.0685,5.0901,5.1913,5.2726,5.2491,5.16,5.0869,5.0869,5.0443,5.0155,5.035,5.1502,5.2375,5.2344,5.259,5.2884,5.3177,5.3196,5.3196,0.0,0.0,0.0,5.3196,5.3164,5.3124,5.3124,5.2999,5.2904,5.2861,5.2273,5.1548,5.0664,4.9865,4.8871,4.7689,4.6874,4.6504,4.6457,4.5671,4.5291,4.5291,4.5291,4.5146,4.4838,4.4302,4.3863,4.3515,4.2943,4.2667,4.2568,4.2568,4.2516,4.2435,0.0,0.0,0.0,0.0,0.0,0.0,0.0,0.0,0.0,0.0,0.0,0.0,0.0,0.0,0.0,0.0,0.0,0.0,0.0,0.0,0.0,3.5836,3.6006,3.6378,3.7046,3.7423,3.7676,3.7784,3.803,3.8365,3.8793,3.8338,3.8753,3.9839,3.9455,3.9706,4.0348,3.9527,3.9367,3.9611,3.8963,3.8977,3.9367,3.9533,0.0,0.0,0.0,0.0,0.0,0.0,0.0,0.0,0.0,0.0,0.0,0.0,0.0,4.2862,4.4134,4.5751,4.7233,4.7974,4.9245,5.054,5.1388,5.2147,5.2883,5.3719,5.2561,5.1377,0.0,0.0,4.9748,4.8898,5.0036,5.1012,5.0996,5.161,5.238,0.0,0.0,0.0,0.0,0.0,0.0,5.3303,5.3162,5.3043,5.3032,5.2912,5.2764,5.2579,5.2579,5.2159,5.1292,5.0452,4.9257,4.7732,4.6946,4.6548,4.654,4.578,4.5417,4.5417,4.5426,4.4973,4.4267,4.4159,4.3632,4.289,4.2711,4.2584,4.2483,4.2483,4.2415,4.2318,0.0,0.0,0.0,0.0,0.0,0.0,0.0,0.0,0.0,0.0,0.0,0.0,0.0,0.0,0.0,0.0,0.0,0.0,0.0,0.0,0.0,0.0,0.0,0.0,0.0,0.0,0.0,0.0,3.8385,3.8724,3.879,3.868,3.8875,3.9303,3.9201,3.9096,3.901,3.9039,3.9103,3.9163,0.0,3.9376,4.0007,0.0,0.0,0.0,0.0,0.0,0.0,0.0,0.0,0.0,0.0,0.0,4.2702,0.0,0.0,4.6625,4.6971,4.8111,4.9367,5.0073,5.0378,5.0708,5.1446,5.2421,5.3091,5.2721,5.1135,4.9793,0.0,0.0,0.0,4.9665,5.1363,0.0,5.339,5.3141,0.0,5.4821,0.0,5.3673,5.4858,5.4272,0.0,0.0,5.4091,5.3654,5.3453,5.3313,5.2989,5.2392,5.2269,5.1819,5.1021,4.9713,4.8854,4.8428,4.7737,4.7381,4.7381,4.7182,4.7091,4.7091,4.699,4.6821,4.6576,4.5912,4.5108,4.4224,4.3584,4.2939,4.2356,4.2356,4.2336,4.2308,0.0,0.0,0.0,0.0,0.0,0.0,0.0,0.0,0.0,0.0,0.0,0.0,0.0,0.0,0.0,0.0,0.0,0.0,0.0,0.0,0.0,0.0,0.0,0.0,0.0,0.0,0.0,0.0,0.0,0.0,3.7605,3.752,3.8018,3.8988,3.8573,3.8693,3.9205,3.912,0.0,0.0,0.0,0.0,0.0,0.0,0.0,0.0,0.0,0.0,0.0,0.0,0.0,4.189,4.3271,4.376,4.398,4.4924,0.0,4.7675,4.7602,4.8845,5.0179,5.0201,5.0312,5.0467,5.0608,5.1103,5.138,5.0793,4.9279,0.0,4.8573,0.0,0.0,0.0,0.0,0.0,5.2747,5.2747,5.3151,0.0,5.4069,0.0,5.4902,5.4769,5.4866,0.0,5.4415,5.3668,5.3526,5.3081,5.2642,5.2222,5.2132,5.1706,5.0897,4.9726,4.8956,4.8596,4.7868,4.7522,4.7522,4.7522,4.7522,4.7522,4.7439,4.7237,4.6884,4.6345,4.5584,4.4714,4.3892,4.3267,4.2769,4.244,4.2297,4.2297,0.0,0.0,0.0,0.0,0.0,0.0,0.0,0.0,0.0,0.0,0.0,0.0,0.0,0.0,0.0,0.0,0.0,0.0,0.0,0.0,0.0,0.0,0.0,0.0,0.0,0.0,0.0,0.0,0.0,0.0,0.0,0.0,0.0,0.0,0.0,0.0,0.0,0.0,0.0,0.0,0.0,0.0,0.0,0.0,0.0,0.0,0.0,0.0,0.0,0.0,4.3622,4.4134,4.5389,4.5346,4.5069,4.615,4.6974,4.7528,4.7447,4.8851,5.0244,4.9742,4.9897,5.0068,4.9583,4.9379,4.9143,4.8633,0.0,4.685,4.769,4.7874,4.7942,4.7989,0.0,5.1131,5.14,5.194,5.2656,5.3563,5.4165,5.4496,5.4495,5.5067,5.5623,5.607,5.456,5.3657,5.3651,5.2833,5.2269,5.2054,5.2054,5.1712,5.1012,5.0233,4.9436,4.8616,4.7848,4.7399,4.7291,4.7291,4.7291,4.7291,4.7298,4.692,4.6316,4.6179,4.567,4.4843,4.3968,4.3597,4.3401,4.2601,4.2297,4.2297,0.0,0.0,0.0,0.0,0.0,0.0,0.0,0.0,0.0,0.0,2.8232,2.819,0.0,0.0,0.0,0.0,0.0,0.0,0.0,0.0,0.0,0.0,0.0,0.0,0.0,0.0,0.0,0.0,0.0,0.0,0.0,0.0,0.0,0.0,0.0,0.0,0.0,0.0,0.0,0.0,0.0,0.0,0.0,0.0,0.0,0.0,0.0,0.0,0.0,0.0,4.4793,4.6263,4.701,4.7483,4.7783,4.7839,4.8343,4.8973,4.9495,4.9897,5.0405,5.1493,5.0925,5.0075,4.9927,4.9848,0.0,0.0,4.7161,4.6965,4.7872,4.7758,4.8168,5.0222,0.0,0.0,0.0,0.0,5.4528,0.0,0.0,0.0,0.0,0.0,0.0,0.0,5.5564,5.494,5.504,5.4176,5.3093,5.1801,5.1765,5.1694,5.1569,5.088,5.0128,4.9321,4.8629,4.7938,4.7291,4.7291,4.7291,4.7309,4.7238,4.714,4.7015,4.6874,4.6353,4.5557,4.4721,4.4043,4.3401,4.2601,4.2297,4.2297,0.0,0.0,0.0,0.0,0.0,0.0,0.0,0.0,2.8453,2.7898,2.7407,2.7579,2.8853,2.9149,0.0,0.0,0.0,0.0,0.0,0.0,0.0,0.0,0.0,0.0,0.0,0.0,0.0,0.0,0.0,0.0,0.0,0.0,0.0,0.0,0.0,0.0,0.0,0.0,0.0,0.0,0.0,0.0,0.0,0.0,0.0,0.0,0.0,0.0,0.0,0.0,4.4473,4.6503,4.8061,4.8345,4.8215,4.8561,4.9078,4.9546,4.9456,5.0261,5.1217,5.1501,5.0841,4.9879,4.9053,0.0,0.0,0.0,4.5419,4.5512,4.6374,4.6706,0.0,4.8818,0.0,0.0,0.0,0.0,0.0,0.0,0.0,0.0,0.0,5.5615,5.5834,5.6147,5.6022,5.5562,5.4727,5.3482,5.2457,5.1721,5.1703,5.1703,5.1703,5.0967,5.0193,4.9389,4.8684,4.7913,4.7131,4.7131,4.7375,4.7751,4.7301,4.7332,4.769,4.7192,4.6766,4.6337,4.5552,4.5006,4.4542,4.3358,4.2912,4.2858,0.0,0.0,0.0,0.0,0.0,0.0,0.0,2.7577,2.7442,2.7261,2.7112,2.7529,2.8854,2.9185,2.943,0.0,0.0,0.0,0.0,0.0,0.0,0.0,0.0,0.0,0.0,0.0,0.0,0.0,0.0,0.0,0.0,0.0,0.0,0.0,0.0,0.0,0.0,0.0,0.0,0.0,0.0,0.0,0.0,0.0,0.0,0.0,0.0,0.0,0.0,0.0,4.3389,4.5342,4.7397,4.7836,4.7694,4.8346,4.8938,4.9311,4.8967,5.0291,5.1676,5.1185,5.0569,4.9662,4.8106,4.6788,0.0,0.0,4.3832,4.4073,4.4895,0.0,4.6208,0.0,4.8884,5.0498,0.0,0.0,0.0,0.0,0.0,0.0,0.0,5.5481,0.0,5.5548,5.5713,5.5289,5.4068,5.2707,5.1881,5.1721,5.1703,5.1703,5.1703,5.1066,5.034,4.9555,4.896,4.8276,4.7497,4.7497,4.7848,4.8401,4.7776,4.7759,4.8145,4.7526,4.7152,4.692,4.6105,4.5684,4.5381,4.4007,4.3383,4.3151,0.0,0.0,0.0,0.0,0.0,0.0,0.0,2.7549,2.7465,2.7392,2.7208,2.767,2.9196,2.9109,2.9511,0.0,0.0,0.0,0.0,0.0,0.0,0.0,0.0,0.0,0.0,0.0,0.0,0.0,0.0,0.0,0.0,0.0,0.0,0.0,0.0,0.0,0.0,0.0,0.0,0.0,0.0,0.0,0.0,0.0,0.0,0.0,0.0,0.0,0.0,0.0,0.0,4.2504,4.3397,4.5115,4.6785,4.6754,0.0,0.0,4.9129,5.0098,5.0951,5.1497,5.0807,4.9586,4.7983,0.0,0.0,4.3965,4.3624,4.3863,4.4682,0.0,0.0,0.0,0.0,4.9562,0.0,0.0,0.0,0.0,0.0,0.0,0.0,5.6013,5.6044,5.5285,5.3995,5.3452,5.3979,5.3225,5.2452,5.1721,5.1703,5.1703,5.1703,5.1631,5.1191,5.0388,5.0334,4.9858,4.9091,4.9091,4.9127,4.9198,4.9127,4.8746,4.8199,4.8127,4.7663,4.692,4.6105,4.5345,4.4614,4.3793,4.3036,4.2404,0.0,0.0,0.0,0.0,0.0,0.0,2.764,2.7469,2.7361,2.7294,2.7174,2.7555,2.8722,2.9214,2.996,0.0,0.0,0.0,0.0,0.0,0.0,0.0,0.0,0.0,0.0,0.0,0.0,0.0,0.0,0.0,0.0,0.0,0.0,0.0,0.0,0.0,0.0,0.0,0.0,0.0,0.0,0.0,0.0,0.0,0.0,0.0,0.0,0.0,0.0,0.0,0.0,0.0,4.0842,4.1914,0.0,0.0,4.6442,4.7664,4.9025,5.0324,5.1397,5.183,5.0955,4.9619,4.818,0.0,4.5524,4.388,4.3531,4.3641,4.3962,4.4001,4.4195,4.4837,4.6425,4.803,4.9332,0.0,0.0,0.0,0.0,0.0,0.0,0.0,5.5002,5.4509,5.3046,5.2524,5.3296,5.2613,5.2042,5.1721,5.1703,5.1703,5.1703,5.1703,5.1298,5.0513,5.0513,5.0072,4.9293,4.9293,4.9573,5.0001,4.9519,4.9127,4.8835,4.8383,4.7734,4.692,4.6105,4.5595,4.5167,4.3954,4.3294,4.2947,0.0,0.0,0.0,0.0,0.0,2.7846,2.7632,2.74,2.7235,2.7205,2.7371,2.7773,2.8489,2.9558,3.0533,3.1334,0.0,0.0,0.0,0.0,0.0,0.0,0.0,0.0,0.0,0.0,0.0,0.0,0.0,0.0,0.0,0.0,0.0,0.0,0.0,0.0,0.0,0.0,0.0,0.0,0.0,0.0,0.0,0.0,0.0,0.0,0.0,0.0,0.0,0.0,0.0,0.0,0.0,0.0,0.0,0.0,4.5576,4.7267,4.8597,5.0316,5.1753,5.2023,5.0885,4.9394,0.0,0.0,4.5194,4.3816,4.3505,4.3506,4.3506,4.3506,4.3506,4.3506,4.5333,4.692,4.7397,4.8982,0.0,0.0,0.0,5.278,5.4309,5.4193,5.3948,5.3684,5.2457,5.1953,5.2506,5.2006,5.1703,5.1703,5.1703,5.1703,5.1703,5.1703,5.1422,5.0852,5.0852,5.0566,5.0019,5.0019,5.0334,5.0816,5.0251,4.9733,4.9269,4.8728,4.7919,4.6938,4.6373,4.6016,4.5677,4.4578,4.3882,4.3418,0.0,0.0,0.0,0.0,0.0,0.0,0.0,2.7316,2.7135,2.7189,2.7948,2.8539,2.8679,3.0184,3.1194,3.1194,0.0,0.0,0.0,0.0,0.0,0.0,0.0,0.0,0.0,0.0,0.0,3.2406,3.2532,0.0,0.0,0.0,0.0,0.0,0.0,0.0,0.0,0.0,0.0,0.0,0.0,0.0,0.0,0.0,0.0,0.0,0.0,0.0,0.0,0.0,0.0,0.0,0.0,0.0,0.0,0.0,4.4373,4.6503,4.7839,4.9918,5.1753,5.2023,5.0498,4.8771,0.0,0.0,4.4574,4.3764,4.3558,4.3506,4.3506,4.3506,4.3506,4.3506,4.4864,4.6471,4.8058,4.8942,0.0,0.0,0.0,5.198,5.3477,5.3369,5.3123,5.2924,5.2167,5.1703,5.1708,5.1703,5.1703,5.1703,5.1703,5.1703,5.1703,5.1703,5.1703,5.1685,5.1685,5.1685,5.1685,5.1685,5.1685,5.1685,5.1685,5.078,4.9293,4.9293,4.8377,4.7009,4.6991,4.6498,4.5802,4.5784,4.481,4.3508,0.0,0.0,0.0,0.0,0.0,0.0,0.0,2.7135,2.7038,2.7055,2.7381,2.7895,2.8619,2.9785,3.0698,3.115,0.0,0.0,0.0,0.0,0.0,0.0,0.0,0.0,0.0,0.0,3.2813,3.3557,3.3006,3.3573,3.5197,0.0,0.0,0.0,0.0,0.0,0.0,0.0,0.0,0.0,0.0,0.0,0.0,0.0,0.0,0.0,0.0,0.0,0.0,0.0,0.0,0.0,0.0,0.0,0.0,0.0,0.0,0.0,4.4867,4.6133,4.7261,4.8128,4.7495,4.6659,4.6727,0.0,4.4564,4.3764,4.3558,4.3506,4.3506,4.3506,4.369,4.4232,4.5204,4.6269,0.0,0.0,0.0,5.2016,5.2806,5.3331,0.0,5.3038,5.248,5.2233,5.1976,5.1796,5.1703,5.1703,5.1703,5.1703,5.1703,5.174,5.1833,5.1758,5.1758,5.1833,5.174,5.1703,5.1703,5.1703,5.1703,5.1703,5.1703,5.0798,4.9293,4.9293,4.8395,4.6955,4.6391,4.6016,4.5731,4.5184,4.4667,4.4257,0.0,0.0,0.0,0.0,0.0,0.0,0.0,2.7174,2.7103,2.7176,2.7544,2.7944,2.8309,2.9748,3.0741,3.0844,0.0,0.0,0.0,0.0,0.0,0.0,0.0,0.0,0.0,3.2323,3.2677,3.3602,3.3062,3.3745,3.5567,3.5144,3.5578,3.6677,0.0,0.0,0.0,0.0,0.0,0.0,0.0,0.0,3.818,0.0,0.0,0.0,0.0,0.0,0.0,0.0,0.0,0.0,0.0,0.0,0.0,0.0,0.0,0.0,0.0,4.4024,4.5071,4.6269,4.5842,0.0,0.0,0.0,4.4223,4.3778,4.3583,4.3506,4.3506,4.3506,4.3653,4.4176,4.5186,0.0,0.0,0.0,0.0,5.1379,0.0,0.0,5.3266,5.2646,5.2234,5.2269,5.1994,5.1796,5.1703,5.1703,5.1703,5.1703,5.1703,5.1728,5.1833,5.1728,5.1728,5.1833,5.1728,5.1703,5.1703,5.1703,5.1703,5.1703,5.1703,5.0959,0.0,4.943,4.8568,4.7366,4.6569,4.6248,4.6195,4.5695,4.5309,4.506,0.0,0.0,0.0,0.0,0.0,0.0,0.0,0.0,2.7293,2.7481,2.8223,2.8541,2.8035,2.9968,3.1109,3.0507,0.0,0.0,0.0,0.0,0.0,0.0,0.0,0.0,0.0,3.1985,3.2068,3.2805,3.2805,3.3286,3.4199,3.4209,3.515,3.6781,3.6043,0.0,0.0,0.0,0.0,0.0,0.0,0.0,0.0,0.0,0.0,0.0,0.0,0.0,0.0,0.0,0.0,0.0,0.0,0.0,0.0,0.0,0.0,0.0,0.0,0.0,0.0,0.0,0.0,0.0,0.0,0.0,0.0,0.0,4.3644,4.3506,4.3506,4.3506,4.3524,4.3579,0.0,0.0,0.0,4.8728,0.0,0.0,5.1358,5.1876,5.2439,5.23,5.2394,5.2891,5.2187,5.174,5.1728,5.1703,5.1703,5.1703,5.1703,5.1703,5.1715,5.1703,5.1703,5.1715,5.1703,5.1703,5.1703,5.1703,5.1703,5.1703,5.1703,5.1208,5.0358,4.9608,4.8835,4.8038,4.7294,4.7009,4.7009,4.7009,4.6527,4.5891,0.0,0.0,0.0,0.0,0.0,0.0,0.0,0.0,0.0,0.0,2.781,2.8436,2.952,2.9705,3.0368,0.0,0.0,0.0,0.0,0.0,0.0,0.0,0.0,0.0,0.0,3.2418,3.2761,3.2958,3.2958,3.3375,3.4193,3.4357,3.5331,3.6952,3.681,0.0,0.0,0.0,0.0,0.0,0.0,0.0,0.0,0.0,0.0,0.0,3.8918,3.891,0.0,0.0,0.0,0.0,0.0,0.0,0.0,0.0,3.8075,0.0,0.0,0.0,0.0,0.0,0.0,0.0,0.0,0.0,0.0,0.0,0.0,4.3506,4.3506,4.3506,4.3708,0.0,0.0,4.6397,4.7819,0.0,0.0,5.2467,5.3379,5.3861,5.3509,5.3243,5.3165,5.3284,5.2576,5.2108,5.1999,5.1802,5.1703,5.1703,5.1703,5.174,5.1845,5.174,5.174,5.1845,5.174,5.1703,5.1703,5.1703,5.1703,5.1703,5.1703,5.0887,4.9573,4.9376,4.8502,4.7259,4.7062,4.7009,4.7009,4.7009,4.6884,4.6723,0.0,0.0,0.0,0.0,0.0,0.0,0.0,0.0,0.0,0.0,0.0,0.0,0.0,0.0,0.0,0.0,0.0,0.0,0.0,0.0,0.0,0.0,0.0,0.0,3.2454,3.246,3.2652,3.305,3.3011,3.3464,3.4323,3.4096,3.4891,3.6517,3.6981,0.0,0.0,0.0,0.0,0.0,3.884,0.0,0.0,0.0,0.0,0.0,3.9,3.8971,0.0,3.8732,3.8706,3.8678,0.0,0.0,0.0,0.0,3.8437,3.8818,3.9046,3.9613,4.0393,4.1444,4.2036,0.0,0.0,0.0,0.0,0.0,0.0,0.0,4.3609,4.387,0.0,0.0,4.5984,0.0,0.0,0.0,5.2828,5.3561,5.3958,5.4213,5.4342,5.3689,5.3295,5.3356,5.2642,5.2162,5.2017,5.187,5.1753,5.1703,5.1703,5.1728,5.182,5.1746,5.1746,5.1808,5.1728,5.1703,5.1703,5.1703,5.1703,5.1703,5.1703,5.1208,5.034,4.9608,4.8806,4.7979,4.7277,4.7009,4.7009,4.7009,4.7009,4.7009,0.0,0.0,0.0,0.0,0.0,0.0,0.0,0.0,0.0,0.0,0.0,0.0,0.0,0.0,0.0,0.0,0.0,0.0,0.0,0.0,0.0,0.0,0.0,3.2364,3.3031,3.2391,3.2391,3.3124,3.3065,3.3497,3.4318,3.3719,3.4294,3.5839,3.6775,3.7768,0.0,0.0,0.0,0.0,3.9057,0.0,0.0,0.0,0.0,0.0,0.0,0.0,0.0,3.8884,3.8833,3.8766,3.8541,0.0,0.0,0.0,0.0,0.0,4.0218,4.0203,4.0303,4.1169,4.2017,4.2806,0.0,0.0,0.0,0.0,0.0,0.0,0.0,4.428,0.0,0.0,0.0,0.0,5.1739,5.2155,5.2775,5.4312,5.4128,5.4152,5.4917,5.4031,5.3377,5.335,5.2582,5.209,5.1968,5.1907,5.182,5.1703,5.1703,5.1703,5.1703,5.1703,5.1703,5.1703,5.1703,5.1703,5.1703,5.1703,5.1703,5.1703,5.1703,5.1631,5.1405,4.9912,4.9234,4.8984,4.7551,4.7009,4.7009,4.7009,4.7009,4.7009,0.0,0.0,0.0,0.0,0.0,0.0,0.0,0.0,0.0,0.0,0.0,0.0,0.0,0.0,0.0,0.0,0.0,0.0,0.0,0.0,0.0,0.0,3.2413,3.1975,3.1372,3.2542,3.3185,3.3269,3.3254,3.3354,3.3577,3.3625,3.4259,3.5349,3.6293,3.7151,3.7895,0.0,0.0,0.0,0.0,0.0,0.0,0.0,0.0,0.0,0.0,0.0,0.0,3.8732,3.8748,3.887,3.877,0.0,0.0,0.0,0.0,0.0,4.0478,4.1725,4.2781,4.273,4.3406,0.0,0.0,0.0,0.0,0.0,0.0,0.0,0.0,4.4196,4.413,0.0,0.0,5.0143,0.0,0.0,5.4232,5.484,5.5526,5.5685,5.5062,5.4815,5.4387,5.3616,5.2762,5.2251,5.2239,5.1914,5.1715,5.1703,5.1703,5.1703,5.1703,5.1703,5.1703,5.1703,5.1703,5.1703,5.1703,5.1703,5.1703,5.1703,5.1703,5.1315,5.0607,4.968,4.8942,4.8276,4.7366,4.7009,4.7009,4.7009,4.7009,4.7009,0.0,0.0,0.0,0.0,0.0,0.0,0.0,0.0,0.0,0.0,0.0,0.0,0.0,0.0,0.0,0.0,0.0,0.0,0.0,0.0,0.0,3.2791,3.3154,3.2936,3.1999,3.2906,3.3437,3.3531,3.3374,3.3352,3.3477,3.4078,3.4637,3.5192,3.6549,3.7415,3.7883,3.8322,0.0,0.0,0.0,0.0,0.0,0.0,0.0,0.0,0.0,0.0,0.0,0.0,3.8989,3.9066,3.9105,0.0,0.0,0.0,0.0,0.0,4.0935,4.2342,4.3745,4.4052,4.4995,4.5718,0.0,0.0,0.0,0.0,0.0,0.0,0.0,0.0,4.6929,4.9434,0.0,5.1964,5.3194,5.3957,5.4748,5.5646,5.606,5.5969,5.5192,5.4912,5.4267,5.2978,5.2527,5.2234,5.2102,5.1919,5.1765,5.1703,5.1703,5.1703,5.1703,5.1703,5.1703,5.1703,5.1703,5.1703,5.1703,5.1703,5.1703,5.1703,5.1703,5.1244,5.0465,5.009,4.9495,4.8764,4.8389,4.7997,4.7598,4.717,4.7009,4.7009,0.0,0.0,0.0,0.0,0.0,0.0,0.0,0.0,0.0,0.0,0.0,0.0,0.0,0.0,0.0,0.0,0.0,0.0,0.0,0.0,3.3783,3.2938,3.3776,3.3795,3.2798,3.3262,3.3563,3.3643,3.3386,3.3432,3.3818,3.4433,3.4878,3.5219,3.6334,3.7155,3.7725,3.8306,3.8404,0.0,0.0,0.0,0.0,0.0,0.0,0.0,0.0,0.0,0.0,0.0,0.0,0.0,0.0,0.0,0.0,3.9835,4.0537,4.1312,4.1587,4.2913,4.4372,4.4995,0.0,4.6605,4.6546,0.0,0.0,0.0,0.0,0.0,0.0,4.7068,0.0,5.1911,5.2829,5.3385,5.3929,5.4228,5.4833,5.5937,5.5866,5.5508,5.4913,5.4568,5.3803,5.2354,5.2228,5.212,5.1907,5.187,5.1808,5.1703,5.1703,5.1703,5.1703,5.1703,5.1703,5.1703,5.1703,5.1703,5.1703,5.1703,5.1703,5.1703,5.1703,5.1351,5.078,5.0584,5.0143,4.9573,4.9364,4.8948,4.8383,4.7776,4.7475,4.7417,0.0,0.0,0.0,0.0,0.0,0.0,0.0,0.0,0.0,0.0,0.0,0.0,0.0,0.0,0.0,0.0,0.0,0.0,0.0,0.0,3.3945,3.2944,3.3685,3.3679,3.2741,3.3464,3.3753,3.3506,3.3256,3.3662,3.4695,3.4326,3.458,3.536,3.4791,3.538,3.6799,3.6931,3.7366,3.8087,0.0,0.0,0.0,0.0,0.0,0.0,0.0,0.0,0.0,0.0,0.0,0.0,0.0,0.0,3.9996,4.0134,4.074,4.1583,4.2439,4.3911,4.5215,4.5272,0.0,0.0,4.8148,4.7803,0.0,0.0,0.0,0.0,0.0,4.7822,4.8636,4.9692,5.1738,5.3385,5.3929,5.4228,5.458,5.5036,5.4659,5.4196,5.383,5.3783,5.3321,5.2192,5.1993,5.1919,5.1895,5.1783,5.1703,5.1703,5.1703,5.1703,5.1703,5.1703,5.1703,5.1703,5.1703,5.1703,5.1703,5.1703,5.1703,5.1703,5.1703,5.1672,5.1547,5.0816,5.0465,5.034,4.959,4.9269,4.9216,4.9162,4.8915,4.8642,0.0,0.0,0.0,0.0,0.0,0.0,0.0,0.0,0.0,0.0,0.0,0.0,0.0,0.0,0.0,0.0,0.0,0.0,0.0,0.0,3.3926,3.3536,3.3724,3.3632,3.3161,3.3386,3.3458,3.3306,3.3301,3.3615,3.4241,3.4656,3.4791,3.4754,3.5516,3.5888,3.5993,3.6559,3.6975,3.7329,3.8182,0.0,0.0,0.0,0.0,0.0,0.0,0.0,0.0,0.0,3.9747,3.9865,3.9986,4.0072,4.0223,4.0773,4.1184,4.1742,4.307,4.3792,4.4423,4.5418,0.0,0.0,0.0,0.0,0.0,0.0,0.0,0.0,0.0,0.0,5.1453,5.1793,5.3363,5.4444,5.4045,5.4582,5.498,5.4882,5.4758,5.4394,5.3652,5.3508,5.3032,5.2047,5.1919,5.1858,5.1783,5.1728,5.1703,5.1703,5.1703,5.1703,5.1703,5.1703,5.1703,5.1703,5.1703,5.1703,5.1703,5.1703,5.1703,5.1703,5.1703,5.1422,5.0976,5.1173,5.0959,5.0465,5.0161,5.0054,4.9983,4.9471,4.9209,4.9099,0.0,0.0,0.0,0.0,0.0,0.0,0.0,0.0,0.0,0.0,0.0,0.0,0.0,0.0,0.0,0.0,0.0,0.0,0.0,3.2853,3.3605,3.3743,3.3646,3.3472,3.3154,3.3164,3.3149,3.3103,3.3353,3.3708,3.4203,3.4752,3.4921,3.4774,3.5701,3.6037,3.5963,3.6323,3.6752,3.7236,3.7834,3.8096,0.0,0.0,0.0,0.0,0.0,0.0,0.0,0.0,3.9785,3.9908,3.9959,4.0057,4.0237,4.0753,4.1146,4.1681,4.2951,4.3356,4.375,0.0,0.0,0.0,0.0,0.0,0.0,0.0,0.0,0.0,0.0,0.0,0.0,5.2747,5.4096,5.4737,5.3754,5.4387,5.472,5.4092,5.4079,5.3832,5.3075,5.2911,5.2572,5.1881,5.1833,5.1796,5.1703,5.1703,5.1703,5.1703,5.1703,5.1703,5.1703,5.1703,5.1703,5.1703,5.1703,5.1703,5.169,5.144,5.1378,5.1477,5.1372,5.1062,5.07,5.1408,5.1369,5.0887,5.0887,5.0887,5.0816,5.0251,4.9951,4.9865,0.0,0.0,0.0,0.0,0.0,0.0,0.0,0.0,0.0,0.0,0.0,0.0,0.0,0.0,0.0,0.0,0.0,0.0,3.156,3.2367,3.2984,3.3364,3.3379,3.3146,3.2622,3.2794,3.2908,3.2908,3.3371,3.4012,3.4788,3.4538,3.4863,3.5665,3.4944,3.5454,3.6833,3.6114,3.6664,3.7993,3.7993,3.8084,0.0,0.0,0.0,0.0,0.0,0.0,0.0,0.0,3.9599,3.9705,3.9705,3.9843,3.9975,3.9856,4.0478,4.1359,4.2038,4.2737,0.0,0.0,0.0,0.0,0.0,0.0,0.0,0.0,0.0,5.0031,5.1693,5.0702,0.0,5.1748,5.3335,5.4019,5.2955,5.348,5.3574,5.2436,5.2298,5.218,5.1919,5.1895,5.1845,5.1703,5.1703,5.1703,5.1703,5.1703,5.1703,5.1703,5.1703,5.1703,5.1703,5.1703,5.1703,5.1703,5.1703,5.1703,5.1672,5.0869,5.0698,5.0986,5.0629,5.0685,5.1022,5.149,5.169,5.1703,5.1703,5.1703,5.1703,5.1703,5.1401,5.1079,0.0,0.0,0.0,0.0,0.0,0.0,0.0,0.0,0.0,0.0,0.0,0.0,0.0,0.0,0.0,0.0,0.0,0.0,3.1408,3.2493,3.2961,3.2578,3.2909,3.307,3.2961,3.2969,3.306,3.3254,3.349,3.3943,3.4583,3.4593,3.4773,3.5078,3.5378,3.5694,3.6005,3.6311,3.7018,3.7927,3.7973,3.8355,3.8928,0.0,0.0,0.0,0.0,0.0,0.0,0.0,0.0,0.0,3.977,4.024,4.0791,4.0894,4.1491,4.2282,4.2984,4.2686,0.0,4.4528,0.0,0.0,0.0,0.0,0.0,0.0,5.2124,5.2056,5.1891,5.2006,5.2074,5.1891,5.2741,5.3306,5.2992,5.2977,5.2847,5.237,5.2216,5.2048,5.1796,5.1753,5.174,5.1703,5.1703,5.1703,5.1703,5.1703,5.1703,5.1703,5.1703,5.1703,5.1703,5.1703,5.1703,5.1703,5.1703,5.1703,5.169,5.1114,5.0906,5.096,5.0301,5.0063,5.0197,5.0659,5.1191,5.1703,5.1703,5.1703,5.1703,5.1703,5.1609,5.1521,0.0,0.0,0.0,0.0,0.0,0.0,0.0,0.0,0.0,0.0,0.0,0.0,0.0,0.0,0.0,0.0,0.0,0.0,0.0,0.0,3.2835,3.2687,3.2991,3.3183,3.3218,3.3545,3.3706,3.3677,3.3711,3.3987,3.4494,3.4609,3.4876,3.5296,3.569,3.6133,3.6596,3.6727,3.7407,3.8346,3.8097,3.8516,3.9301,0.0,0.0,0.0,0.0,0.0,0.0,0.0,0.0,0.0,3.9617,4.0068,4.0673,4.11,4.1294,4.1644,4.2982,4.2744,0.0,4.4553,4.5258,4.6158,4.8719,0.0,0.0,0.0,5.2619,5.2653,5.2396,5.2567,5.2632,5.2332,5.2669,5.2955,5.2813,5.2615,5.2397,5.2168,5.2011,5.1877,5.1715,5.1703,5.1703,5.1703,5.1703,5.1703,5.1703,5.1703,5.1703,5.1703,5.1703,5.1703,5.1703,5.1369,5.1226,5.1226,5.1028,5.0952,5.0934,5.0844,5.0783,5.0741,5.0079,4.9719,4.9619,4.9903,5.0304,5.0744,5.0744,5.0941,5.1226,5.1226,5.1422,5.1703,0.0,0.0,0.0,0.0,0.0,0.0,0.0,0.0,0.0,0.0,0.0,0.0,0.0,0.0,0.0,0.0,0.0,0.0,0.0,0.0,3.2689,3.327,3.3451,3.3567,3.3662,3.4419,3.4612,3.4222,3.4028,3.4136,3.4517,3.4666,3.5174,3.5988,3.6006,3.6786,3.8071,3.7387,3.7876,3.9034,3.8383,3.8648,3.9411,3.9469,0.0,0.0,0.0,0.0,0.0,0.0,0.0,0.0,3.9457,3.9688,4.0042,4.0862,4.0526,4.0372,4.253,4.2951,0.0,4.4755,4.6985,0.0,5.0492,5.1481,5.2289,5.2957,0.0,5.2325,5.3057,5.258,5.2284,5.2881,5.2988,5.2868,5.2549,5.2399,5.2216,5.1968,5.182,5.1715,5.1715,5.1703,5.1703,5.1703,5.1703,5.1703,5.1703,5.1703,5.1703,5.1703,5.1703,5.1703,5.1703,5.0939,5.0529,5.0482,5.0016,4.977,4.973,5.0239,5.0399,5.0223,4.9864,4.9523,4.9198,4.9198,4.9287,4.94,4.94,4.9894,5.0602,5.053,5.0959,5.1583,0.0,0.0,0.0,0.0,0.0,0.0,0.0,0.0,0.0,0.0,0.0,0.0,0.0,0.0,0.0,0.0,0.0,0.0,0.0,0.0,3.3058,3.2634,3.3825,3.4874,3.5662,3.5151,3.4988,3.5206,3.4538,3.4381,3.4674,3.5319,3.5725,3.5967,3.7151,3.7841,3.8121,3.8483,3.8813,3.9096,3.9101,3.9223,3.9411,3.9469,3.9508,0.0,0.0,0.0,0.0,0.0,0.0,0.0,4.0088,4.038,4.0615,4.1581,4.2061,4.2518,0.0,4.3756,0.0,0.0,4.9495,5.1163,5.0875,5.1911,5.281,5.2344,5.2619,5.2954,5.3034,5.2895,5.2797,5.2842,5.2839,5.2783,5.2597,5.2508,5.2405,5.224,5.1993,5.1858,5.1858,5.1753,5.1703,5.1703,5.1703,5.1703,5.1703,5.1703,5.1703,5.1703,5.1703,5.1703,5.1703,5.1159,5.0769,5.0482,5.0016,4.9506,4.8969,4.9977,4.9933,4.9064,4.8979,4.8744,4.8437,4.8437,4.9139,5.0233,5.0233,5.0727,5.1369,5.0727,5.0607,5.0673,0.0,0.0,0.0,0.0,0.0,0.0,0.0,0.0,0.0,0.0,0.0,0.0,0.0,0.0,0.0,0.0,0.0,0.0,0.0,0.0,0.0,3.3636,3.4875,3.5628,3.5761,3.5768,3.5465,3.4872,3.4486,0.0,0.0,0.0,3.5973,3.6421,3.7542,3.8249,3.8608,3.895,3.9101,3.9115,3.9242,3.9308,3.9315,3.9405,3.945,0.0,0.0,0.0,0.0,0.0,0.0,0.0,0.0,0.0,4.0894,4.2199,4.2459,4.2663,0.0,0.0,0.0,4.8714,0.0,5.1977,5.1948,5.259,5.3057,5.2574,5.2852,5.3164,5.302,5.2999,5.2944,5.275,5.2698,5.266,5.2478,5.2369,5.2257,5.2114,5.1932,5.179,5.179,5.1728,5.1703,5.1703,5.1703,5.1703,5.1703,5.1703,5.1512,5.1137,5.1137,5.1032,5.0794,5.0204,4.9803,4.9628,4.9161,4.8859,4.8723,4.9324,4.9372,4.8988,4.8988,4.8697,4.8234,4.8579,4.921,4.9929,4.9929,5.0179,5.0513,5.0072,4.9929,4.9876,0.0,0.0,0.0,0.0,0.0,0.0,0.0,0.0,0.0,0.0,0.0,0.0,0.0,0.0,0.0,0.0,0.0,0.0,0.0,0.0,0.0,3.503,3.5952,3.6155,3.5511,3.6273,3.5949,3.4456,0.0,0.0,0.0,0.0,0.0,3.7106,3.7649,3.8339,3.9101,3.9101,3.9101,3.9108,3.917,3.9197,3.9204,0.0,0.0,0.0,0.0,0.0,0.0,0.0,0.0,0.0,0.0,0.0,4.0941,4.2693,4.2521,0.0,0.0,0.0,4.625,4.9721,5.1298,0.0,5.2829,5.3075,5.3124,5.302,5.3092,5.3114,5.2966,5.2926,5.285,5.2597,5.2552,5.249,5.2281,5.2174,5.2066,5.1944,5.182,5.1728,5.1728,5.1715,5.1703,5.1703,5.1703,5.1649,5.1494,5.1476,5.1119,5.0334,5.035,5.0186,4.9805,4.9174,4.8837,4.8778,4.8194,4.8194,4.8682,4.8494,4.8723,4.9293,4.918,4.8835,4.8419,4.8907,4.9269,4.9519,4.9519,4.9519,4.9501,4.9359,4.9234,4.9091,0.0,0.0,0.0,0.0,0.0,0.0,0.0,0.0,0.0,0.0,0.0,0.0,0.0,0.0,0.0,0.0,0.0,0.0,0.0,0.0,0.0,3.5322,3.6189,3.6668,3.6665,3.6624,3.6247,3.5501,0.0,0.0,0.0,0.0,0.0,3.7772,0.0,0.0,3.9101,3.9101,3.9101,3.9108,3.917,3.9197,0.0,0.0,0.0,0.0,0.0,0.0,0.0,0.0,3.9066,0.0,0.0,0.0,4.0644,4.3005,4.3036,0.0,0.0,0.0,4.8132,0.0,5.0886,5.2024,0.0,0.0,5.302,5.3009,5.302,5.2955,5.2698,5.2647,5.2586,5.2362,5.234,5.2281,5.215,5.2114,5.2102,5.2078,5.1956,5.187,5.187,5.1783,5.1703,5.1703,5.1703,5.1387,5.0709,5.0673,5.0286,4.9501,4.9725,4.9857,4.9805,4.9646,4.9414,4.9122,4.807,4.7955,4.8677,4.769,4.7992,4.9269,4.8633,4.8639,4.9109,4.8579,4.9121,5.034,5.034,5.034,5.0251,4.9573,4.8907,4.824,0.0,0.0,0.0,0.0,0.0,0.0,0.0,0.0,0.0,0.0,0.0,0.0,0.0,0.0,0.0,0.0,0.0,0.0,0.0,0.0,0.0,3.5322,3.6188,3.6461,3.608,3.6398,3.6028,0.0,0.0,0.0,0.0,3.6172,3.6786,0.0,0.0,0.0,0.0,0.0,3.9122,3.9156,3.9149,0.0,0.0,0.0,0.0,0.0,0.0,0.0,0.0,0.0,0.0,3.9131,4.0306,0.0,0.0,0.0,4.2995,0.0,4.4991,4.6829,4.8618,0.0,5.1143,5.2095,5.2472,5.2785,5.2944,5.2764,5.2731,5.2667,5.2565,5.2478,5.2374,5.2204,5.2198,5.2138,5.2005,5.1993,5.1968,5.1877,5.1815,5.1796,5.1796,5.1728,5.1703,5.1703,5.1703,5.1351,5.0536,5.0675,5.0216,4.8999,4.9293,4.9346,4.9073,4.9042,4.8864,4.8526,4.782,4.7825,4.8376,4.7624,4.7901,4.8946,4.8622,4.8905,4.9584,4.9715,5.0314,5.1137,5.0691,5.0215,4.9733,4.896,4.8187,4.7473,0.0,0.0,0.0,0.0,0.0,0.0,0.0,0.0,0.0,0.0,0.0,0.0,0.0,0.0,0.0,0.0,0.0,0.0,0.0,0.0,0.0,3.5026,3.6083,3.6176,3.5137,3.6087,0.0,0.0,0.0,0.0,3.7009,3.7009,3.7436,0.0,3.8618,0.0,0.0,0.0,0.0,0.0,0.0,0.0,0.0,0.0,0.0,0.0,0.0,0.0,0.0,0.0,0.0,0.0,0.0,4.0536,0.0,0.0,0.0,0.0,0.0,0.0,4.7752,4.9613,5.0715,5.1576,0.0,5.2791,5.2817,5.2567,5.2428,5.2358,5.2358,5.2293,5.2192,5.2023,5.2029,5.1933,5.1601,5.1541,5.1433,5.1132,5.1262,5.1387,5.1387,5.1583,5.1652,5.1533,5.1521,5.1127,5.0219,5.0413,4.9912,4.8551,4.8841,4.8839,4.8486,4.8503,4.8366,4.8127,4.7699,4.7636,4.786,4.7611,4.7779,4.8265,4.8561,4.9229,5.0136,5.0659,5.1086,5.1333,5.0727,4.9876,4.8948,4.8401,4.7687,4.7009,0.0,0.0,0.0,0.0,0.0,0.0,0.0,0.0,0.0,0.0,0.0,0.0,0.0,0.0,3.1435,3.066,3.1286,3.242,3.403,3.4239,3.4305,3.4361,3.592,0.0,3.4399,3.5818,0.0,0.0,0.0,0.0,3.7845,3.7845,3.8272,3.9008,3.8284,3.8402,3.9108,0.0,0.0,0.0,0.0,0.0,0.0,0.0,0.0,0.0,0.0,0.0,0.0,0.0,0.0,0.0,0.0,0.0,0.0,0.0,0.0,0.0,0.0,4.449,0.0,4.7549,4.8852,4.9946,0.0,5.2258,5.2597,5.2515,5.2204,5.1919,5.1919,5.2029,5.2011,5.1753,5.1833,5.1589,5.0698,5.0566,5.0298,4.9519,5.009,5.0554,5.0554,5.1244,5.1521,5.1079,5.1039,5.0532,4.9331,4.929,4.8914,4.8056,4.8358,4.8515,4.8503,4.8503,4.85,4.8461,4.7819,4.7307,4.6973,4.735,4.7316,4.7052,4.82,4.9559,5.0916,5.0647,5.0541,5.0566,5.0518,4.9567,4.8252,4.8216,4.7687,4.7009,0.0,0.0,0.0,0.0,0.0,0.0,0.0,0.0,0.0,0.0,0.0,0.0,0.0,3.3134,3.2549,3.2172,3.2402,3.2811,3.3386,3.3936,3.4451,3.4915,3.6008,3.6321,3.5729,3.6216,0.0,0.0,0.0,3.6749,3.7856,3.8412,3.8822,3.9082,3.8804,3.885,3.9163,3.9122,0.0,0.0,0.0,0.0,0.0,0.0,0.0,0.0,0.0,0.0,0.0,0.0,0.0,0.0,0.0,0.0,0.0,0.0,0.0,0.0,0.0,0.0,0.0,4.6413,4.8037,4.9453,5.0366,5.1581,5.2468,5.2174,5.1993,5.187,5.1796,5.1802,5.1802,5.1715,5.1728,5.1472,5.062,5.0513,5.0393,5.0108,4.9876,5.0143,5.1173,5.0602,5.0393,5.0951,5.0524,4.9921,4.9245,4.9391,4.9037,4.8033,4.8525,4.872,4.8503,4.8503,4.8148,4.747,4.7222,4.7034,4.6913,4.679,4.7068,4.77,4.8137,4.903,5.0224,5.0114,5.0241,5.0405,4.9418,4.8698,4.8145,4.7616,4.7241,4.7009,0.0,0.0,0.0,0.0,0.0,0.0,0.0,0.0,0.0,0.0,0.0,0.0,0.0,0.0,3.3119,3.3015,3.3245,3.3505,3.3716,3.4525,3.5211,3.5643,3.6434,3.6745,3.6468,0.0,0.0,0.0,0.0,0.0,0.0,3.8832,3.9101,3.9101,3.9101,3.9122,0.0,0.0,0.0,3.9088,0.0,0.0,3.7708,0.0,0.0,0.0,0.0,0.0,0.0,0.0,0.0,0.0,0.0,0.0,0.0,0.0,0.0,0.0,4.2755,0.0,0.0,0.0,4.6731,4.8088,4.9245,5.057,5.1559,5.1502,5.1691,5.1808,5.1715,5.1703,5.1613,5.1333,5.1512,5.1315,5.0251,5.0322,5.0393,5.0126,4.9626,4.9822,5.1173,5.0193,4.9842,5.0724,5.0052,4.9414,4.8979,4.9084,4.8832,4.8197,4.8701,4.8842,4.8503,4.826,4.7713,4.6895,4.6647,4.6595,4.6685,4.6564,4.6938,4.7717,4.8142,4.8719,4.9435,4.9576,4.9678,4.9632,4.8609,4.8038,4.7711,4.7049,4.6955,4.7139,0.0,0.0,0.0,0.0,0.0,0.0,0.0,0.0,0.0,0.0,0.0,0.0,0.0,0.0,0.0,3.309,3.3808,3.455,3.5197,3.6088,3.6537,3.6435,3.719,3.7245,3.6483,0.0,0.0,0.0,0.0,0.0,0.0,0.0,3.9101,3.9101,3.9101,3.9101,3.9108,0.0,3.9219,3.9034,0.0,3.789,3.7766,0.0,0.0,0.0,3.8445,3.9103,0.0,4.036,0.0,0.0,0.0,0.0,0.0,0.0,0.0,0.0,0.0,0.0,0.0,0.0,0.0,4.5771,4.8049,4.9131,4.9844,5.0528,5.12,5.1672,5.1703,5.1703,5.144,5.0637,5.1173,5.1155,4.9573,5.0001,5.0215,4.943,4.9293,4.9608,5.0434,5.0037,4.9921,5.0373,4.9635,4.8976,4.8529,4.8183,4.8159,4.8503,4.8789,4.8806,4.8469,4.7743,4.7193,4.6847,4.6108,4.5953,4.6279,4.668,4.6847,4.6952,4.8117,4.863,4.868,4.91,4.8853,4.8199,4.8181,4.7687,4.6945,4.6554,4.6862,4.7366,0.0,0.0,0.0,0.0,0.0,0.0,0.0,0.0,0.0,0.0,0.0,0.0,0.0,0.0,3.4718,3.5331,3.5588,3.5795,3.5974,3.6234,3.6639,3.7173,3.7412,3.7698,3.8058,3.7694,0.0,0.0,0.0,0.0,0.0,0.0,0.0,0.0,3.9057,3.9028,3.9036,3.917,0.0,0.0,3.8203,3.8481,0.0,0.0,0.0,0.0,0.0,3.9502,3.9707,0.0,4.0383,4.022,0.0,0.0,0.0,0.0,0.0,0.0,4.0766,0.0,0.0,0.0,0.0,0.0,4.5379,4.7127,4.8822,4.9471,5.0256,5.1012,5.1583,5.1703,5.144,5.0637,5.1173,5.1333,5.0304,5.0358,5.0411,5.0179,4.9174,4.912,5.0714,4.9204,4.8771,5.0304,4.9117,4.8527,4.8973,4.8375,4.8262,4.8844,4.8189,4.78,4.7709,4.6968,4.6282,4.5673,4.5466,4.5413,4.5516,4.562,4.6001,4.6557,4.6896,4.7191,4.7524,4.8229,4.8383,4.8145,4.7562,4.7205,4.6945,4.6554,4.6702,4.7068,0.0,0.0,0.0,0.0,0.0,0.0,0.0,0.0,0.0,0.0,0.0,0.0,0.0,0.0,0.0,3.6266,3.6604,3.6806,3.6806,3.711,3.7514,3.7981,3.7999,3.8234,3.8724,3.8272,3.8332,0.0,0.0,0.0,0.0,0.0,0.0,0.0,0.0,0.0,0.0,0.0,0.0,0.0,3.8925,0.0,0.0,3.8912,3.9263,0.0,0.0,0.0,4.1086,4.1269,4.1338,0.0,0.0,0.0,0.0,0.0,0.0,0.0,0.0,0.0,0.0,0.0,0.0,0.0,4.4673,4.6054,4.7475,4.8568,4.9442,5.0143,5.0607,5.0976,5.1048,5.0584,5.1173,5.1422,5.0607,5.0798,5.0994,5.0994,4.9742,4.9431,5.085,4.9302,4.8675,4.982,4.8896,4.836,4.8483,4.8313,4.8386,4.8781,4.8024,4.754,4.7397,4.6495,4.5757,4.519,4.5032,4.5203,4.564,4.5514,4.596,4.6857,4.6708,4.6778,4.7045,4.7509,4.7699,4.7651,4.7187,4.7009,4.6945,4.6554,4.6737,4.7128,0.0,0.0,0.0,0.0,0.0,0.0,0.0,0.0,0.0,0.0,0.0,0.0,0.0,0.0,0.0,0.0,3.721,3.7639,3.7639,3.8303,3.8699,3.8699,3.8715,3.8742,3.8799,3.8814,3.8862,3.8993,3.8993,0.0,0.0,0.0,0.0,0.0,0.0,0.0,0.0,0.0,0.0,3.908,3.9929,4.0289,0.0,0.0,4.0419,4.1131,4.0748,4.1624,4.2894,4.2627,4.248,0.0,0.0,0.0,0.0,0.0,3.887,0.0,0.0,0.0,0.0,0.0,0.0,0.0,4.467,4.5242,4.5749,4.7352,4.8295,4.8859,4.8954,4.9578,5.0083,5.0083,5.0827,5.1232,5.0709,5.1244,5.1703,5.1703,5.0576,5.0123,5.0925,4.9839,4.911,4.9251,4.8916,4.8375,4.7596,4.8162,4.8489,4.8431,4.8012,4.759,4.7224,4.6124,4.5442,4.514,4.4817,4.523,4.624,4.5983,4.643,4.7423,4.7086,4.6957,4.7009,4.6945,4.6957,4.7009,4.7009,4.701,4.7001,4.6566,4.688,4.7389,0.0,0.0,0.0,0.0,0.0,0.0,0.0,0.0,0.0,0.0,0.0,0.0,0.0,0.0,0.0,0.0,3.8377,3.8469,3.8469,3.8615,3.8699,3.8699,3.8757,3.8784,3.8807,3.884,3.8932,3.8993,3.8993,3.9,3.9021,0.0,0.0,0.0,0.0,0.0,0.0,0.0,0.0,3.9724,3.9956,0.0,4.156,4.0188,4.0524,4.1649,4.095,4.1252,4.2058,4.2567,4.2311,4.1652,0.0,0.0,0.0,0.0,0.0,0.0,0.0,0.0,0.0,0.0,0.0,0.0,4.1771,4.2381,4.3154,4.4139,4.518,4.6123,4.6775,4.7185,4.7429,4.7429,4.8709,5.0106,5.1303,5.1601,5.1703,5.1703,5.0576,5.0123,5.0925,4.9305,4.8643,4.9613,4.9071,4.8476,4.7919,4.8286,4.8343,4.8022,4.7371,4.6694,4.6036,4.5219,4.4778,4.4723,4.4981,4.5383,4.5909,4.617,4.6577,4.7085,4.6696,4.6696,4.6968,4.6649,4.6708,4.7009,4.7009,4.7157,4.7324,4.6652,4.688,4.7389,0.0,0.0,0.0,0.0,0.0,0.0,0.0,0.0,0.0,0.0,0.0,0.0,0.0,0.0,0.0,0.0,0.0,0.0,0.0,3.8757,3.8757,3.8757,3.8777,3.8822,3.8859,3.887,3.8943,3.9057,3.9057,3.9057,3.9057,0.0,0.0,0.0,0.0,0.0,0.0,0.0,3.9183,3.98,3.9905,0.0,4.1996,4.0663,4.1139,4.2432,4.1497,4.1586,4.2287,4.3108,4.304,0.0,0.0,4.1518,4.1509,0.0,4.0366,4.0793,0.0,0.0,0.0,4.072,0.0,0.0,0.0,4.1795,4.2339,4.3169,4.3755,4.4296,4.4885,4.5439,4.5798,4.5798,4.7523,4.8968,4.9313,5.0515,5.1362,5.1362,5.0598,5.026,5.0659,4.9612,4.8995,4.9233,4.835,4.7758,4.771,4.7675,4.7549,4.7361,4.6633,4.6075,4.5703,4.4973,4.4615,4.4598,4.5005,4.5415,4.5811,4.6211,4.6625,4.6998,4.6795,4.6801,4.6957,4.6566,4.653,4.6749,4.7116,4.7234,4.7183,4.7005,4.7172,4.7414,0.0,0.0,0.0,0.0,0.0,0.0,0.0,0.0,0.0,0.0,0.0,0.0,0.0,0.0,0.0,0.0,0.0,0.0,0.0,3.8829,3.8814,3.8822,3.8837,3.8866,3.891,3.8921,3.8993,3.908,3.9094,3.9087,3.9059,3.9007,0.0,0.0,0.0,0.0,0.0,0.0,0.0,3.9928,0.0,4.075,4.2044,4.1067,4.1713,4.3032,4.2157,4.2205,4.2768,4.3533,4.3642,4.3266,4.2165,4.2425,0.0,0.0,0.0,0.0,0.0,0.0,0.0,0.0,0.0,4.0918,0.0,0.0,0.0,4.2467,4.2558,4.262,4.2947,4.3577,4.4032,4.4032,4.595,4.7168,4.6338,4.8295,5.0021,5.0598,5.0415,5.0275,5.0268,4.9732,4.9065,4.8307,4.7343,4.6894,4.7171,4.7085,4.687,4.6599,4.6143,4.5788,4.55,4.4905,4.464,4.4723,4.511,4.5533,4.5938,4.632,4.6684,4.7009,4.6911,4.6888,4.6853,4.6459,4.6235,4.6244,4.7059,4.7197,4.6947,4.7345,4.75,4.7456,0.0,0.0,0.0,0.0,0.0,0.0,0.0,0.0,0.0,0.0,0.0,0.0,0.0,0.0,0.0,0.0,0.0,0.0,3.9045,0.0,0.0,3.8896,3.8954,3.8943,3.891,3.9028,3.9064,3.9007,3.9066,3.9031,3.8914,3.8906,0.0,0.0,3.8618,0.0,0.0,0.0,3.9347,0.0,3.9872,4.0504,0.0,4.1014,4.1633,4.292,4.2801,4.28,4.2881,0.0,4.3008,4.3022,0.0,4.2956,4.2535,0.0,0.0,0.0,0.0,0.0,0.0,0.0,4.0405,0.0,0.0,0.0,3.9993,4.009,0.0,4.0446,4.0501,0.0,0.0,4.0915,4.2432,4.3578,4.3467,4.4644,4.6457,4.9085,4.9622,4.9806,4.9873,4.8642,4.7516,4.6728,4.6474,4.6388,4.6419,4.7291,4.7177,4.5872,4.638,4.6056,4.4736,4.4635,4.4776,4.514,4.5529,4.595,4.6362,4.6743,4.6963,4.6968,4.6625,4.6483,4.6447,4.6038,4.5658,4.5445,4.6534,4.6934,4.6947,4.7345,4.75,4.7495,0.0,0.0,0.0,0.0,0.0,0.0,0.0,0.0,0.0,0.0,0.0,0.0,0.0,0.0,0.0,0.0,0.0,3.9059,0.0,0.0,0.0,3.8892,3.8957,3.8964,3.891,3.8957,3.8993,3.8993,3.9028,3.9014,3.8968,3.8925,3.8855,0.0,3.9075,0.0,3.9347,0.0,4.0204,0.0,0.0,0.0,0.0,4.1434,4.1959,4.2873,4.2767,4.2728,4.2709,0.0,4.3084,0.0,0.0,0.0,0.0,0.0,0.0,0.0,0.0,0.0,0.0,0.0,0.0,0.0,3.9707,0.0,3.959,0.0,0.0,0.0,0.0,0.0,0.0,0.0,4.0861,4.1899,4.1748,4.3257,4.495,4.6471,4.6772,4.7165,4.7928,4.7512,4.7133,4.6986,4.6169,4.5929,4.6564,4.6617,4.6331,4.572,4.6007,4.5652,4.4601,4.4831,4.5032,4.5203,4.5849,4.6235,4.6405,4.6819,4.7009,4.6998,4.683,4.6867,4.6972,4.6137,4.6061,4.6502,4.6744,4.6732,4.6635,4.7274,4.75,4.75,0.0,0.0,0.0,0.0,0.0,0.0,0.0,0.0,0.0,0.0,0.0,0.0,3.9469,3.9496,0.0,0.0,3.9277,3.9259,0.0,0.0,3.9115,0.0,0.0,0.0,0.0,3.8935,3.8964,3.8993,3.8993,3.8979,3.8964,3.8892,3.8837,3.8799,0.0,3.9483,3.9729,0.0,4.0684,4.1102,4.1032,4.1424,4.2049,4.204,4.2356,4.2805,4.264,4.257,4.25,4.2348,4.2984,4.3675,4.2799,4.2966,0.0,0.0,0.0,0.0,4.0831,0.0,0.0,0.0,0.0,0.0,0.0,0.0,0.0,0.0,0.0,0.0,0.0,0.0,0.0,0.0,0.0,4.0579,4.0348,4.1744,4.316,4.4182,4.4398,4.4834,4.5755,4.5762,4.5886,4.6371,4.5323,4.5111,4.6138,4.6058,4.5821,4.5415,4.5788,4.5551,4.4601,4.4991,4.5257,4.5376,4.6075,4.6471,4.6578,4.6865,4.6934,4.6842,4.6842,4.6849,4.6817,4.6187,4.6324,4.6942,4.6963,4.6806,4.6687,4.7378,4.7588,4.7505,0.0,4.0329,0.0,0.0,0.0,0.0,0.0,0.0,0.0,0.0,0.0,0.0,0.0,0.0,0.0,0.0,0.0,3.9317,3.9563,0.0,3.9129,0.0,0.0,3.8964,0.0,0.0,3.9052,3.8993,3.8993,3.8976,3.8892,3.8837,3.878,3.8699,3.8525,3.8905,3.9685,3.9526,4.0381,4.1842,4.1659,4.1893,4.2408,0.0,4.2768,4.2609,4.2609,4.248,4.2308,4.2308,4.2333,4.2452,4.2924,4.2561,0.0,0.0,0.0,0.0,0.0,4.1754,0.0,4.1614,0.0,0.0,0.0,0.0,3.9299,0.0,0.0,0.0,0.0,0.0,0.0,0.0,0.0,0.0,0.0,3.9287,4.0363,4.2772,4.3406,4.366,4.369,4.3053,4.2999,4.3843,4.3505,4.3681,4.4618,4.6005,4.6107,4.4668,4.6022,4.6073,4.4601,4.4991,4.5402,4.5786,4.6198,4.6602,4.6968,4.698,4.6795,4.6417,4.6417,4.5993,4.5333,4.5997,4.6063,4.5862,4.6939,4.7366,4.7419,4.7829,4.7783,4.7555,0.0,0.0,0.0,0.0,0.0,0.0,0.0,3.9954,0.0,0.0,0.0,0.0,0.0,4.0701,4.0492,0.0,0.0,3.9758,3.967,4.0132,0.0,0.0,0.0,4.0511,0.0,0.0,0.0,0.0,3.918,3.9161,3.9614,3.9072,3.9049,3.9496,0.0,3.9707,0.0,0.0,0.0,0.0,0.0,4.2289,4.2522,4.2502,4.247,4.2379,4.2197,4.2086,4.2019,4.187,4.2187,4.2593,4.2321,4.2372,4.2454,4.2218,4.177,4.1364,4.1563,4.1215,4.0776,4.0701,4.0307,3.9884,3.9577,0.0,0.0,0.0,0.0,0.0,0.0,0.0,0.0,0.0,0.0,0.0,0.0,3.9258,3.9621,4.0446,4.1177,4.1809,4.2299,4.2277,4.2767,4.4042,4.3632,4.3922,4.5263,4.5805,4.5838,4.5331,4.5805,4.5599,4.4601,4.4991,4.527,4.5415,4.6075,4.6483,4.6602,4.6602,4.653,4.6398,4.6124,4.5979,4.5901,4.5674,4.6203,4.7141,4.7032,4.7451,4.8129,4.8041,4.7918,4.788,4.2167,0.0,0.0,0.0,0.0,0.0,0.0,0.0,0.0,0.0,4.1899,0.0,4.1953,0.0,4.1481,0.0,4.0554,4.0431,4.0246,4.0498,0.0,3.9826,4.0804,0.0,0.0,0.0,0.0,0.0,0.0,3.9961,4.0404,3.9579,3.9448,3.9882,3.9456,3.9818,4.0748,4.1125,4.1829,0.0,0.0,4.2432,4.248,4.2348,4.2277,4.2215,4.204,4.1945,4.1902,4.1805,4.2115,4.2472,4.209,4.2226,4.2434,4.2025,4.1675,4.1472,4.1734,4.1389,4.0923,4.0805,4.042,3.9969,3.9534,3.9564,3.9763,0.0,0.0,0.0,0.0,0.0,0.0,0.0,0.0,0.0,0.0,3.9148,3.9121,3.9121,3.971,4.044,4.1227,4.1183,4.1761,4.3331,4.2843,4.3046,4.435,4.4981,4.5179,4.4894,4.5401,4.5348,4.4615,4.4991,4.519,4.5203,4.6013,4.6393,4.6393,4.6393,4.632,4.6161,4.576,4.5625,4.5668,4.546,4.6161,4.7313,4.7234,4.7729,4.8478,4.8262,4.8183,4.8232,0.0,0.0,0.0,0.0,4.1715,0.0,0.0,0.0,4.2851,0.0,4.2889,4.2908,4.287,4.2741,4.2316,4.144,4.1369,4.1342,4.1251,4.0462,0.0,0.0,4.0778,4.0632,4.0449,0.0,0.0,0.0,0.0,0.0,4.1177,4.0307,3.9908,3.9863,3.8978,0.0,4.0553,4.0555,4.1368,4.2589,4.2452,4.2361,4.2308,4.2308,4.2207,4.2114,4.2103,4.203,4.1945,4.2061,4.2103,4.2124,4.2267,4.216,4.2009,4.209,4.1956,4.1949,4.265,4.2227,4.1646,4.1853,4.1148,4.0269,3.979,4.0047,4.016,3.9497,0.0,0.0,0.0,0.0,0.0,0.0,0.0,0.0,0.0,0.0,3.8819,3.8819,3.9074,3.9584,4.042,3.9744,3.9967,4.1703,4.1164,4.1134,4.2055,4.3655,4.4181,4.3423,4.486,4.5328,4.4629,4.4991,4.5207,4.5217,4.5988,4.6357,4.6357,4.6362,4.6124,4.5748,4.5349,4.4951,4.4649,4.5348,4.5895,4.6384,4.7424,4.8124,4.8525,4.8525,4.8525,4.857,4.39,4.4029,4.3739,0.0,4.265,4.2586,0.0,0.0,0.0,0.0,4.429,4.4418,4.3763,4.362,4.324,4.2401,4.2333,0.0,0.0,0.0,0.0,4.059,4.1661,4.1912,4.1096,4.1216,0.0,4.212,0.0,0.0,4.1118,4.0283,3.9908,3.989,3.9646,3.9622,3.9871,4.1034,4.1939,4.2589,4.2452,4.2452,4.251,4.2359,4.23,4.232,4.2277,4.2236,4.2197,4.2246,4.2176,4.2135,4.232,4.2212,4.2019,4.2194,4.2037,4.1843,4.2037,4.1711,4.1221,4.0887,4.0563,4.0184,3.9681,3.9634,3.9831,4.0197,3.9897,3.9683,3.9976,3.9447,0.0,0.0,0.0,0.0,0.0,0.0,0.0,3.9148,3.8768,3.8692,3.921,3.8795,3.9163,4.0815,4.0244,4.0541,4.2152,4.3074,4.3495,4.3392,4.4367,4.4899,4.4899,4.4991,4.5154,4.5349,4.5658,4.5811,4.5799,4.5593,4.5455,4.5336,4.494,4.4696,4.4601,4.4804,4.5267,4.5945,4.6762,4.7825,4.8882,4.8882,4.8882,4.8883,4.5338,0.0,0.0,4.4893,0.0,4.4722,4.4139,4.437,0.0,4.5109,4.5431,0.0,4.4969,4.5076,4.47,4.3489,4.3394,0.0,4.2636,0.0,0.0,4.1568,4.238,4.2534,4.1849,4.1725,0.0,4.2844,0.0,0.0,4.2139,4.1332,4.0763,4.0414,4.0414,4.0284,4.0167,4.1669,4.2445,4.2668,4.2609,4.2619,0.0,4.2591,4.2591,4.2613,4.2581,4.2502,4.244,4.249,4.243,4.2351,4.2571,4.2381,4.216,4.2369,4.2163,4.1852,4.1664,4.1413,4.1042,4.0422,4.0246,4.0087,3.9619,3.9445,3.9538,3.9954,3.9388,3.8927,3.9287,3.8745,3.8361,0.0,0.0,0.0,0.0,0.0,0.0,0.0,3.8911,3.8772,3.8813,3.8137,3.8522,4.0461,3.9624,3.9616,4.0996,4.2125,4.2752,4.282,4.441,4.5168,4.4991,4.5469,4.5533,4.523,4.5477,4.5529,4.5428,4.527,4.519,4.5177,4.4762,4.4615,4.4615,4.4615,4.495,4.5594,4.6649,4.7861,4.9001,4.9001,4.9001,4.9001,4.6913,0.0,0.0,0.0,0.0,4.7127,4.599,4.5787,4.5947,4.6475,0.0,4.6309,4.6195,4.6556,4.6195,4.4751,0.0,4.4128,4.3335,4.2588,4.2394,4.2893,4.278,4.2628,4.2453,4.2324,0.0,0.0,0.0,0.0,4.3322,4.2635,4.1874,4.1095,0.0,0.0,0.0,4.2221,4.2722,4.2812,4.2812,4.2812,4.2822,4.2881,4.2892,4.2892,4.2892,4.2796,4.2658,4.2774,4.2735,4.2658,4.2843,4.264,4.2369,4.252,4.2284,4.1862,4.1469,4.1168,4.0798,4.0118,3.988,3.967,3.9306,3.9206,3.9159,3.906,3.8589,3.816,3.8055,3.7527,3.7309,0.0,0.0,0.0,0.0,0.0,0.0,0.0,0.0,0.0,3.8939,3.7886,3.8164,4.0444,3.9314,3.8865,3.968,4.1228,4.2119,4.2132,4.4514,4.559,4.5145,4.6009,4.6019,4.52,4.5427,4.5402,4.5163,4.514,4.5127,4.51,4.4751,4.4615,4.4615,4.4615,4.4854,4.5387,4.6778,4.7938,4.8883,4.8968,4.9001,4.9001,4.7874,0.0,0.0,0.0,0.0,4.7625,4.7978,4.7797,4.7441,4.6898,4.7372,4.7476,4.6766,4.6694,4.6607,4.6308,4.5671,0.0,0.0,0.0,0.0,4.2451,4.2291,4.2242,4.2245,4.2064,4.2439,0.0,0.0,0.0,4.2506,4.2378,4.1874,4.1132,0.0,0.0,4.2741,4.2141,4.2275,4.2881,4.2881,4.2881,4.2891,4.29,4.2892,4.2892,4.2892,4.2891,4.2844,4.2872,4.2833,4.2783,4.2872,4.2738,4.253,4.2389,4.2065,4.1672,4.1328,4.0481,3.9634,3.928,3.8652,3.803,3.7757,3.8136,3.8376,3.7773,3.7941,3.8186,3.8173,3.8161,3.8155,3.8242,0.0,0.0,0.0,0.0,0.0,0.0,0.0,3.9207,3.9519,3.8506,3.8606,4.0464,3.9688,3.9654,4.0837,4.1657,4.2142,4.2263,4.3585,4.4821,4.5904,4.5704,4.5824,4.6243,4.5472,4.5086,4.5032,4.4803,4.4709,4.4696,4.4626,4.4615,4.4615,4.4615,4.4998,4.5699,4.6578,4.7386,4.8174,4.8781,4.9001,4.9001,0.0,0.0,0.0,0.0,0.0,4.9174,4.936,4.9446,4.9013,4.7695,4.7715,4.7674,4.7255,4.7394,4.7351,4.6943,4.6554,4.5921,4.4955,4.4505,4.3839,4.2905,4.2746,4.2693,4.2711,4.2203,4.2421,4.3403,0.0,0.0,0.0,4.291,4.2488,4.1746,0.0,4.2643,4.3259,4.2687,4.2658,4.2994,4.2929,4.2892,4.2892,4.2892,4.2892,4.2892,4.2892,4.2892,4.2892,4.2892,4.2861,4.2812,4.2881,4.2585,4.2231,4.2197,4.1799,4.1254,4.0884,4.04,3.9866,3.9454,3.8769,3.8108,3.7916,3.7498,3.7153,3.7186,3.7123,3.7198,3.7659,3.7878,3.8007,3.8027,3.852,3.863,0.0,0.0,0.0,0.0,0.0,0.0,0.0,3.8997,3.8891,3.9431,3.9079,3.9107,3.9718,4.0884,4.1725,4.2179,4.3677,4.4804,4.5525,4.5858,4.5922,4.5712,4.523,4.4927,4.4806,4.5046,4.5176,4.5176,4.5176,4.5176,4.5142,4.4753,4.5041,4.5737,4.6092,4.6921,4.7938,4.8293,4.8665,4.9001,0.0,5.0946,0.0,0.0,5.0545,5.0654,5.039,5.0608,5.0228,4.8609,4.8181,4.7954,4.7769,4.8089,4.8039,4.7406,4.7204,4.648,4.5022,4.4711,4.4236,4.344,4.3269,4.3223,4.3304,4.2664,4.2734,0.0,0.0,4.2949,4.3632,4.3615,4.3251,4.2612,4.2495,4.28,4.3359,4.3178,4.3086,4.3049,4.2938,4.2892,4.2892,4.2892,4.2892,4.2892,4.2892,4.2892,4.291,4.2881,4.2852,4.2804,4.2768,4.2378,4.1945,4.1895,4.1418,4.0843,4.0483,4.0258,4.0038,3.961,3.9009,3.8409,3.8116,3.7206,3.6536,3.679,3.6507,3.6426,3.7149,3.7405,3.7613,3.7922,3.8556,3.8698,3.7844,0.0,0.0,0.0,0.0,0.0,3.9245,3.9322,3.9066,3.827,3.8637,3.8996,3.9224,4.0522,4.1549,4.2126,4.3851,4.4896,4.5152,4.5894,4.5894,4.5152,4.4981,4.4803,4.4618,4.5365,4.5604,4.5466,4.5635,4.5618,4.5432,4.5007,4.5091,4.55,4.5821,4.6549,4.7481,4.7785,4.8276,4.8798,0.0,0.0,5.2094,5.168,5.1399,5.1226,5.1184,5.0977,5.0455,4.9496,4.9385,4.9098,4.8317,4.827,4.826,4.8186,4.7516,4.6699,4.5764,4.5004,4.4236,4.344,4.3269,4.333,4.3656,4.3513,4.3638,0.0,0.0,4.3896,4.4037,4.3971,4.3852,4.3652,4.3407,4.3258,4.3214,4.3123,4.303,4.2929,4.2919,4.2892,4.2892,4.2892,4.2892,4.2892,4.2892,4.2892,4.29,4.2823,4.2842,4.2816,4.2398,4.2218,4.2032,4.1316,4.0879,4.0582,4.037,3.9651,3.8945,3.8904,3.8519,3.7922,3.7053,3.7453,3.762,3.6286,3.6485,3.6967,3.7165,3.7227,3.7517,3.8367,3.859,3.8383,3.7626,0.0,4.081,3.8325,0.0,0.0,3.9005,3.9331,3.9079,3.7702,3.943,4.0973,4.1895,4.2091,4.2205,4.2273,4.3411,4.4531,4.5628,4.5309,4.5309,4.5628,4.4965,4.4612,4.4618,4.5365,4.5331,4.4736,4.5415,4.5314,4.4753,4.5348,4.5229,4.4838,4.616,4.6363,4.6061,4.7413,4.7938,4.8107,5.2353,5.2302,5.2277,5.2229,5.2102,5.2131,5.2407,5.2336,5.194,5.1106,5.017,4.927,4.8398,4.8296,4.8296,4.8296,4.8003,4.747,4.6626,4.6388,4.5687,4.4363,4.4407,4.4521,4.4658,4.4191,4.4287,4.4946,4.4351,4.4079,4.4091,4.4079,4.3989,4.3843,4.3445,4.3251,4.3196,4.305,4.2947,4.2892,4.2892,4.2892,4.2892,4.2892,4.2892,4.2892,4.2892,4.2872,4.2851,4.2812,4.2756,4.267,4.2396,4.1987,4.1578,4.1468,4.0879,4.0348,4.0633,4.0287,3.9834,3.9873,3.9436,3.8744,3.7808,3.7564,3.7234,3.6129,3.6261,3.6719,3.7233,3.7551,3.7794,3.7973,3.851,3.8668,3.8013,3.9334,0.0,3.7916,0.0,0.0,0.0,3.878,3.9142,3.9686,3.9921,4.0053,4.0081,4.0575,4.1295,4.2269,4.2724,4.3624,4.5024,4.4862,4.4862,4.5041,4.4736,4.4615,4.4618,4.5365,4.5551,4.528,4.5568,4.528,4.4632,4.4922,4.4871,4.4666,4.5244,4.5582,4.5771,4.6348,4.7143,4.7938,5.2981,5.2912,5.2887,5.2929,5.2949,5.305,5.3388,5.343,5.3145,5.2343,5.1245,5.0071,4.8821,4.8443,4.8335,4.8411,4.842,4.8099,4.7379,4.7474,4.6903,4.5486,4.5629,4.5776,4.5862,4.5374,4.5435,4.6125,4.5185,4.4716,4.4716,4.4285,4.4028,4.3859,4.341,4.3333,4.3524,4.3085,4.3036,4.3236,4.3,4.2892,4.2892,4.2892,4.2892,4.2892,4.2892,4.2861,4.2747,4.2484,4.2429,4.2422,4.2251,4.1796,4.1373,4.1456,4.0764,4.0112,4.0861,4.0669,4.0311,4.0636,4.022,3.9503,3.8614,3.7885,3.7176,3.6404,3.6423,3.6793,3.743,3.7823,3.8147,3.849,3.8882,3.9087,3.8904,3.9433,0.0,3.8031,3.8849,3.9257,3.8589,3.879,3.9421,4.0565,4.0319,3.9946,3.9564,4.0049,4.0988,4.2372,4.2546,4.3264,4.4598,4.4615,4.4615,4.4615,4.4615,4.4615,4.4632,4.5142,4.55,4.5703,4.5466,4.5091,4.4632,4.4838,4.4787,4.4635,4.5074,4.543,4.5754,4.6179,4.6855,4.7633,5.4388,5.4476,5.4374,5.4051,5.3979,5.3979,5.3988,5.3988,5.369,5.2895,5.2765,5.1944,4.9826,4.882,4.8402,4.8658,4.8704,4.8474,4.793,4.7898,4.7532,4.6715,4.6742,4.6909,4.7173,4.7222,4.7359,4.7569,4.6632,4.6177,4.6133,4.4749,4.3997,4.3788,4.3384,4.3643,4.4317,4.3321,4.3363,4.4033,4.3218,4.2892,4.2892,4.2892,4.2892,4.2892,4.2892,4.2861,4.2666,4.1721,4.1727,4.2061,4.1785,4.1709,4.16,4.1134,4.0343,3.9836,4.0903,4.0429,3.9819,4.0764,4.0533,3.9886,3.9071,3.8458,3.7893,3.721,3.7193,3.7411,3.7818,3.7906,3.8522,4.0451,3.9934,3.9573,4.0361,4.0875,4.0577,3.8963,4.0201,4.0548,3.8946,3.969,4.0014,3.9368,4.0707,4.1624,4.1753,4.1515,4.1797,4.2663,4.3135,4.3792,4.4584,4.4615,4.4615,4.4615,4.4615,4.4615,4.4615,4.4601,4.5007,4.5669,4.4939,4.4601,4.4651,4.5382,4.5263,4.4736,4.6208,4.6329,4.5889,4.7346,4.7413,4.7005,5.452,5.4505,5.4384,5.407,5.3997,5.3997,5.3997,5.3997,5.3904,5.3652,5.3147,5.2544,5.1861,5.0542,4.9759,4.9854,4.9323,4.8901,4.873,4.8933,4.8705,4.7896,4.8103,4.8269,4.8352,4.7795,4.7795,4.8409,4.7486,4.6901,4.6664,4.589,4.5512,4.5488,4.5131,4.5067,4.5183,4.4832,4.4445,4.4087,4.3815,4.3381,4.2892,4.2892,4.2892,4.281,4.2237,4.1944,4.1713,4.0799,4.0555,4.0663,4.109,4.136,4.1529,4.1701,4.0865,4.0051,4.0841,4.0278,3.969,4.0693,4.0338,3.9721,3.9557,3.8508,3.7484,3.7275,3.7316,3.7517,3.7947,3.8481,3.925,4.0466,4.0825,4.0946,4.0981,4.1346,4.0974,3.9268,3.9882,4.018,3.9476,3.9794,4.0446,4.147,4.1066,4.08,4.0837,4.1665,4.223,4.2419,4.3071,4.3792,4.4584,4.4615,4.4615,4.4615,4.4615,4.4615,4.4615,4.4615,4.4719,4.4939,4.4685,4.4615,4.4632,4.4855,4.4804,4.4685,4.5669,4.5906,4.5771,4.623,4.6566,4.6868,5.4706,5.4651,5.4584,5.4374,5.433,5.433,5.433,5.433,5.433,5.433,5.3906,5.3587,5.3587,5.2419,5.1346,5.0611,4.9776,4.9335,4.9435,4.9667,4.9553,4.906,4.9265,4.9371,4.934,4.8844,4.8807,4.9284,4.8262,4.7403,4.6668,4.633,4.6169,4.6134,4.5837,4.5814,4.6013,4.5594,4.526,4.4947,4.4341,4.3978,4.3779,4.3471,4.3344,4.3281,4.2735,4.2278,4.1794,4.0946,4.0732,4.0881,4.1076,4.144,4.1842,4.2093,4.0912,3.975,4.0839,4.0419,3.9883,4.0795,4.0364,3.9647,3.9402,3.8777,3.8193,3.8039,3.8088,3.8249,3.8565,3.9038,3.9776,4.104,4.127,4.1419,4.1788,4.1689,4.1162,4.0073,4.0274,4.0444,4.0279,4.0422,4.102,4.2191,4.1892,4.1495,4.1137,4.1686,4.2143,4.2445,4.3071,4.3792,4.4584,4.4615,4.4615,4.4615,4.4615,4.4615,4.4615,4.4615,4.4615,4.4615,4.4615,4.4615,4.4615,4.4615,4.4615,4.4668,4.5415,4.5703,4.5722,4.6007,4.6227,4.6464,5.4901,5.4901,5.4901,5.4909,5.4901,5.4901,5.4909,5.4901,5.4901,5.4909,5.4909,5.4909,5.4916,5.4196,5.2978,5.1164,5.0213,4.9807,4.9998,5.007,5.0101,5.0101,5.017,5.0151,5.0101,5.0196,5.0234,5.0196,4.9117,4.7889,4.6548,4.6408,4.6239,4.6058,4.5795,4.6127,4.6823,4.588,4.588,4.6367,4.4874,4.4675,4.5218,4.4467,4.416,4.4077,4.3969,4.3412,4.2577,4.1719,4.1792,4.2155,4.1582,4.1784,4.2268,4.2313,4.0701,3.9266,4.0942,4.0763,4.0293,4.1025,4.0607,3.976,3.8841,3.924,3.9666,3.9255,3.9325,3.9451,3.9497,3.9626,4.0295,4.1985,4.1464,4.132,4.2671,4.1988,4.1307,4.1255,4.1289,4.1283,4.1283,4.1509,4.1745,4.1938,4.3022,4.3322,4.2542,4.1801,4.1816,4.2722,4.322,4.3842,4.4584,4.4615,4.4615,4.4615,4.4615,4.4615,4.4615,4.4615,4.4615,4.4615,4.4615,4.4615,4.4615,4.4615,4.4615,4.4668,4.5415,4.5703,4.5773,4.6464,4.6312,4.5959,5.4901,5.4901,5.4916,5.4963,5.4919,5.4923,5.4963,5.4938,5.4923,5.4963,5.4971,5.5,5.5057,5.4322,5.3681,5.3214,5.178,5.0655,5.0108,5.0089,5.0101,5.0101,5.012,5.012,5.0101,5.0521,5.089,5.1249,5.0761,5.0033,4.9047,4.8863,4.8409,4.7728,4.7602,4.7614,4.769,4.7413,4.6974,4.6457,4.6087,4.5689,4.5273,4.5091,4.4621,4.3932,4.2643,4.2054,4.1665,4.0193,4.0173,4.0874,4.1269,4.1125,4.1026,4.2181,4.1686,4.0843,4.1268,4.0885,4.0481,4.1178,4.1163,4.063,3.9342,3.9284,3.9384,3.8984,3.9408,3.9774,3.9536,4.0876,4.2004,4.1932,4.2633,4.3047,4.2645,4.2578,4.2375,4.1791,4.2047,4.2231,4.2138,4.2215,4.2889,4.4333,4.3761,4.366,4.4458,4.3916,4.3459,4.3247,4.3935,4.4415,4.4615,4.4615,4.4615,4.4615,4.4615,4.4615,4.4615,4.4615,4.4615,4.4615,4.4615,4.4615,4.4615,4.4615,4.4615,4.4668,4.5415,4.5703,4.572,4.5906,4.621,4.6583,5.5574,5.5892,5.6032,5.5703,5.5646,5.5491,5.5064,5.5334,5.5596,5.5639,5.5969,5.6212,5.6235,5.5827,5.5401,5.5075,5.3107,5.1711,5.1268,5.1243,5.1243,5.1243,5.1243,5.1178,5.1023,5.1293,5.1439,5.1431,5.1269,5.0684,4.9673,4.9564,4.9025,4.8161,4.8088,4.8038,4.7992,4.7855,4.7555,4.7091,4.6669,4.625,4.5852,4.5852,4.5128,4.4023,4.3494,4.2824,4.2065,4.1142,4.1133,4.1566,4.1971,4.1809,4.1656,4.2485,4.1888,4.1031,4.1429,4.1268,4.1079,4.141,4.1528,4.1281,4.0136,4.0323,4.0623,4.0245,4.0792,4.1207,4.0853,4.1919,4.2736,4.2354,4.3029,4.3393,4.281,4.2788,4.2681,4.2274,4.2774,4.3098,4.2959,4.3317,4.4014,4.5117,4.4349,4.421,4.5108,4.4703,4.4114,4.3409,4.4195,4.4615,4.4615,4.4615,4.477,4.5108,4.5108,4.5277,4.5599,4.5599,4.5413,4.5125,4.5464,4.521,4.4618,4.4956,4.4905,4.4635,4.5041,4.5196,4.5229,4.5585,4.5957,4.6397,5.6552,5.7125,5.7354,5.657,5.6567,5.6337,5.538,5.5984,5.6571,5.6618,5.7209,5.7627,5.762,5.7562,5.7262,5.6635,5.4592,5.3184,5.2817,5.2663,5.2574,5.2574,5.2534,5.2388,5.2084,5.2112,5.1925,5.1489,5.1489,5.0918,4.9799,4.9651,4.9088,4.8194,4.799,4.7945,4.7982,4.7666,4.7588,4.7645,4.6708,4.6323,4.6323,4.6323,4.5399,4.4178,4.4729,4.4069,4.2873,4.2765,4.2801,4.2892,4.2892,4.2892,4.2892,4.2892,4.1894,4.0935,4.1677,4.1877,4.1839,4.1708,4.1792,4.1725,4.1018,4.1583,4.2173,4.192,4.2419,4.2805,4.2458,4.271,4.3003,4.3105,4.3197,4.3273,4.3321,4.313,4.2999,4.3008,4.3612,4.4012,4.4006,4.456,4.5032,4.5351,4.5055,4.4997,4.533,4.5088,4.4618,4.393,4.4468,4.4821,4.4922,4.4821,4.5142,4.5872,4.5872,4.6194,4.68,4.68,4.6447,4.5906,4.6532,4.609,4.4973,4.5602,4.55,4.4922,4.4922,4.4922,4.5007,4.5635,4.594,4.6196,5.7386,5.7511,5.7382,5.6694,5.7057,5.7166,5.6389,5.6861,5.7383,5.7551,5.7687,5.7744,5.7679,5.7672,5.7599,5.742,5.7007,5.5879,5.3824,5.2959,5.2525,5.2525,5.2231,5.2076,5.2021,5.2235,5.2527,5.2884,5.2884,5.2448,5.1589,5.0782,4.997,4.9153,4.8275,4.7945,4.7927,4.7049,4.6765,4.6801,4.5856,4.549,4.549,4.549,4.491,4.4033,4.3471,4.3109,4.2801,4.2112,4.2339,4.2892,4.2892,4.2892,4.2892,4.2892,4.2719,4.2547,4.2692,4.2662,4.2527,4.2121,4.1965,4.185,4.1659,4.1758,4.1942,4.2166,4.2573,4.2877,4.2813,4.3091,4.3495,4.4008,4.405,4.4214,4.4771,4.4816,4.4825,4.4869,4.4987,4.5291,4.5835,4.5576,4.577,4.6637,4.6233,4.6124,4.6527,4.6491,4.6411,4.6278,4.5788,4.5821,4.6445,4.5838,4.5906,4.6616,4.6616,4.6684,4.68,4.68,4.6735,4.6648,4.675,4.6682,4.6479,4.6583,4.6563,4.6462,4.6462,4.6462,4.6479,4.6597,4.7022,4.7599,5.8373,5.8845,5.8825,5.7615,5.7984,5.8023,5.669,5.7506,5.828,5.8373,5.8761,5.9027,5.9008,5.8953,5.8927,5.8901,5.8433,5.767,5.6561,5.5241,5.427,5.3815,5.3915,5.3839,5.3524,5.3063,5.2956,5.3196,5.3196,5.2753,5.1886,5.1457,5.0522,4.9221,4.8754,4.8345,4.7927,4.6922,4.6596,4.6681,4.5687,4.5037,4.4693,4.5146,4.453,4.3453,4.3526,4.3272,4.2837,4.2466,4.2592,4.2892,4.2892,4.2892,4.2982,4.3417,4.3236,4.2982,4.3435,4.329,4.2966,4.2789,4.2601,4.2211,4.1348,4.2092,4.2809,4.2172,4.2971,4.3817,4.3825,4.4178,4.4566,4.485,4.5143,4.5294,4.5207,4.5234,4.5239,4.52,4.5718,4.619,4.6396,4.6389,4.6588,4.7169,4.6611,4.6416,4.6781,4.68,4.6972,4.7394,4.6684,4.6447,4.68,4.6464,4.6667,4.738,4.738,4.7597,4.7986,4.7986,4.7767,4.7396,4.7817,4.753,4.6834,4.7225,4.7158,4.68,4.68,4.68,4.6851,4.7242,4.7599,4.7954,5.9378,5.9919,5.9888,5.8585,5.8962,5.892,5.7305,5.8248,5.9163,5.9178,5.9718,6.0084,6.0087,6.0033,5.9986,5.999,5.9365,5.8908,5.8718,5.7423,5.6286,5.5389,5.544,5.5249,5.4732,5.3718,5.3196,5.3196,5.3196,5.2834,5.2119,5.1872,5.0926,4.945,4.9198,4.8712,4.7967,4.6763,4.6374,4.6422,4.5217,4.4377,4.3888,4.4512,4.4077,4.3236,4.367,4.3544,4.3145,4.2964,4.3018,4.3181,4.3181,4.3308,4.358,4.4196,4.3846,4.3371,4.3804,4.3714,4.3464,4.3289,4.3072,4.2653,4.1628,4.2744,4.3761,4.29,4.3987,4.5072,4.5072,4.5352,4.5658,4.5858,4.6111,4.6176,4.5838,4.5799,4.5805,4.579,4.6527,4.7009,4.6904,4.7092,4.7197,4.7144,4.6696,4.6536,4.6798,4.6955,4.7394,4.814,4.7445,4.7141,4.731,4.7141,4.7428,4.8157,4.8157,4.8445,4.9001,4.9001,4.8682,4.8191,4.8749,4.8359,4.7361,4.7921,4.7819,4.731,4.731,4.731,4.7378,4.7954,4.8157,4.8242,6.0283,5.9901,5.9351,5.9147,5.9725,5.9869,5.8872,5.9391,5.9938,6.0007,6.0053,6.0087,6.001,5.9994,5.9963,5.991,5.9845,5.9495,5.8756,5.8283,5.7657,5.6783,5.5548,5.4742,5.4442,5.361,5.3196,5.3196,5.3196,5.3148,5.3093,5.2086,5.121,5.0453,4.9516,4.8753,4.8076,4.6319,4.5616,4.5529,4.3775,4.3036,4.2982,4.3055,4.3471,4.3924,4.3236,4.3435,4.3906,4.3145,4.3399,4.4015,4.4015,4.4512,4.5128,4.5182,4.4816,4.4225,4.3547,4.3872,4.4177,4.3253,4.3014,4.3115,4.3628,4.3889,4.4298,4.5302,4.6016,4.6454,4.6454,4.6284,4.6413,4.7209,4.6758,4.6586,4.7396,4.7413,4.7453,4.7746,4.7808,4.7893,4.8063,4.7765,4.7227,4.6433,4.6629,4.6779,4.68,4.7462,4.8157,4.89,4.8191,4.814,4.8832,4.8157,4.8191,4.8934,4.8934,4.8951,4.9001,4.9001,4.8968,4.8934,4.8984,4.8934,4.8849,4.89,4.89,4.8849,4.8849,4.8849,4.8849,4.89,4.8934,4.8934,6.0399,6.0398,6.002,5.9371,5.9834,5.9977,5.9048,5.9489,5.995,5.9963,5.999,5.9974,5.9942,5.9487,5.9186,5.9154,5.8961,5.8727,5.8398,5.8078,5.765,5.7121,5.5611,5.4921,5.5126,5.3867,5.3196,5.3196,5.3196,5.3196,5.3185,5.2612,5.1711,5.0584,5.0025,4.919,4.8114,4.6843,4.602,4.5484,4.4259,4.342,4.2892,4.2892,4.3399,4.4069,4.3761,4.415,4.4802,4.4486,4.4594,4.4838,4.4838,4.5055,4.5241,4.49,4.5242,4.5451,4.4137,4.4022,4.4164,4.3827,4.407,4.4182,4.3469,4.489,4.6067,4.507,4.6056,4.6927,4.6445,4.6295,4.6467,4.7091,4.7286,4.7236,4.688,4.7536,4.7905,4.7489,4.801,4.8213,4.7741,4.7341,4.6967,4.6635,4.6733,4.7005,4.7447,4.8174,4.8714,4.9001,4.8731,4.8715,4.9001,4.8715,4.8715,4.9001,4.9001,4.9001,4.9001,4.9001,4.9001,4.9001,4.9001,4.9001,4.9001,4.9001,4.9001,4.9001,4.9001,4.9001,4.9001,4.9001,4.9001,4.9001,6.0476,6.048,6.0186,5.969,5.9958,6.0012,5.9315,5.9597,5.9893,5.9893,5.9893,5.9799,5.9552,5.9022,5.8667,5.854,5.8336,5.8273,5.8436,5.8135,5.7727,5.7209,5.6061,5.547,5.5596,5.4271,5.3453,5.3196,5.3196,5.3196,5.3185,5.271,5.1837,5.0635,5.0154,4.9299,4.8181,4.7251,4.6526,4.5885,4.4761,4.4038,4.3634,4.3419,4.399,4.4879,4.4625,4.505,4.5693,4.5391,4.5472,4.5689,4.5689,4.5732,4.5687,4.5129,4.5517,4.5895,4.4811,4.4479,4.447,4.4514,4.5121,4.5506,4.4626,4.6362,4.7665,4.5975,4.6992,4.7809,4.6567,4.6632,4.684,4.673,4.711,4.7216,4.6662,4.7407,4.7893,4.7635,4.8004,4.8003,4.7281,4.6959,4.6701,4.6464,4.6887,4.7479,4.8208,4.8731,4.9001,4.9001,4.9001,4.9001,4.9001,4.9001,4.9001,4.9001,4.9001,4.9001,4.9001,4.9001,4.9001,4.9001,4.9001,4.9001,4.9001,4.9001,4.9001,4.9001,4.9001,4.9001,4.9001,4.9001,4.9001,4.9001,6.0604,5.9988,5.953,6.0188,6.0184,6.0057,5.9918,5.9893,5.9893,5.9893,5.9893,5.959,5.8775,5.868,5.8548,5.8222,5.8176,5.8417,5.8967,5.8671,5.8119,5.7236,5.6952,5.6418,5.5622,5.4803,5.4014,5.3196,5.3196,5.3196,5.3177,5.2236,5.1441,5.0755,4.9819,4.8987,4.8241,4.7385,4.6932,4.6659,4.4988,4.471,4.5238,4.4566,4.5295,4.6593,4.5804,4.603,4.6573,4.5639,4.5852,4.6504,4.6494,4.6683,4.6782,4.6168,4.5674,4.532,4.5385,4.531,4.5203,4.522,4.6052,4.7059,4.7655,4.8361,4.8827,4.8548,4.9219,4.9228,4.7084,4.7469,4.7654,4.6312,4.6103,4.6354,4.7096,4.7145,4.7495,4.8545,4.7928,4.7244,4.6844,4.68,4.6498,4.5771,4.7075,4.8225,4.8968,4.9001,4.9001,4.9001,4.9001,4.9001,4.9001,4.9001,4.9001,4.9001,4.9001,4.9001,4.9001,4.9001,4.9001,4.9001,4.9001,4.9001,4.9001,4.9001,4.9001,4.9001,4.9001,4.9001,4.9001,4.9001,4.9001,4.9001,6.0494,6.0418,6.02,6.0179,6.0129,6.0057,5.9918,5.9893,5.9893,5.9893,5.942,5.8881,5.8404,5.7303,5.6706,5.6986,5.6779,5.7117,5.8234,5.8205,5.8027,5.7777,5.7142,5.6418,5.5622,5.4803,5.4014,5.3196,5.3196,5.3196,5.3177,5.2236,5.1441,5.0755,4.9819,4.8987,4.8278,4.802,4.7474,4.676,4.6257,4.5807,4.5409,4.5231,4.5786,4.6676,4.6473,4.6908,4.7502,4.7262,4.7322,4.7397,4.6938,4.7093,4.7257,4.623,4.6095,4.6199,4.5852,4.5953,4.6094,4.5772,4.6185,4.6752,4.6974,4.7924,4.8541,4.7747,4.815,4.8221,4.6814,4.6636,4.6659,4.6543,4.6877,4.6959,4.6368,4.7079,4.74,4.6672,4.6816,4.6915,4.68,4.68,4.6921,4.7227,4.8124,4.8781,4.8984,4.9001,4.9001,4.9001,4.9001,4.9001,4.9001,4.9001,4.9001,4.9001,4.9001,4.9001,4.9001,4.9001,4.9001,4.9001,4.9001,4.9001,4.9001,4.9001,4.9001,4.9001,4.9001,4.9001,4.9001,4.9001,4.9001,4.9001,6.0398,6.0433,6.0337,6.0148,6.0064,5.9986,5.991,5.9893,5.9853,5.9725,5.8999,5.8245,5.759,5.6334,5.5759,5.6263,5.6601,5.7136,5.7953,5.7997,5.7997,5.7997,5.7538,5.6748,5.5622,5.5126,5.4326,5.3196,5.3196,5.3196,5.3177,5.2289,5.1462,5.0676,4.985,4.9035,4.8267,4.8287,4.8089,4.7708,4.7398,4.713,4.6912,4.6912,4.7042,4.7264,4.7615,4.7832,4.7927,4.7957,4.7855,4.7657,4.7176,4.7322,4.7485,4.6411,4.6457,4.6751,4.6339,4.6412,4.6696,4.6956,4.7423,4.7855,4.7946,4.8997,4.9676,4.8666,4.8675,4.8451,4.7174,4.6806,4.6691,4.6725,4.7052,4.715,4.6743,4.7134,4.7346,4.7039,4.687,4.6904,4.7208,4.7242,4.7547,4.8276,4.8748,4.9001,4.9001,4.9001,4.9001,4.9001,4.9001,4.9001,4.9001,4.9001,4.9001,4.9001,4.9001,4.9001,4.9001,4.9001,4.9001,4.9001,4.9001,4.9001,4.9001,4.9001,4.9001,4.9001,4.9001,4.9001,4.9001,4.9001,4.9001,4.9001,6.0279,6.0177,6.011,6.0076,5.9971,5.9893,5.9893,5.9869,5.9751,5.9444,5.8675,5.7712,5.6584,5.58,5.5509,5.5924,5.7203,5.7997,5.7997,5.7923,5.7923,5.7997,5.7923,5.7182,5.5622,5.5603,5.4803,5.3196,5.3196,5.3196,5.3177,5.238,5.1513,5.0586,4.991,4.9129,4.8327,4.8396,4.8739,4.9151,4.8413,4.8516,4.9115,4.9115,4.873,4.8292,4.9049,4.882,4.818,4.805,4.7782,4.7468,4.7223,4.7452,4.7646,4.6788,4.6875,4.7217,4.6956,4.6871,4.7164,4.8404,4.9262,4.9817,4.987,5.0802,5.1404,5.0428,4.9981,4.9332,4.7834,4.7534,4.7403,4.6958,4.6902,4.7124,4.7819,4.7327,4.7361,4.8646,4.7614,4.709,4.7836,4.7954,4.8276,4.8951,4.9001,4.9001,4.9001,4.9001,4.9001,4.9001,4.9001,4.9001,4.9001,4.9001,4.9001,4.9001,4.9001,4.9001,4.9001,4.9001,4.9001,4.9001,4.9001,4.9001,4.9001,4.9001,4.9001,4.9001,4.9001,4.9001,4.9001,4.9001,4.9001,4.9001,6.0154,6.0121,6.0072,5.9966,5.9918,5.9893,5.9893,5.9673,5.948,5.9417,5.8465,5.7378,5.631,5.5982,5.5794,5.5698,5.7087,5.7997,5.7997,5.7409,5.7336,5.796,5.7409,5.6602,5.5622,5.5603,5.4803,5.3196,5.3196,5.3196,5.3177,5.238,5.1563,5.0717,4.9958,4.9481,4.9296,4.9315,4.9338,4.9336,4.9172,4.9129,4.9172,4.9172,4.9404,4.9762,5.0047,4.9971,4.9621,4.8926,4.8235,4.7551,4.6934,4.7642,4.8571,4.7747,4.8006,4.8535,4.8339,4.8277,4.8357,4.8761,4.9751,5.0478,4.9871,4.9763,4.9618,4.9023,4.8496,4.7945,4.7389,4.7132,4.7119,4.7596,4.7667,4.7718,4.7887,4.7768,4.7581,4.731,4.6989,4.709,4.7836,4.8428,4.8817,4.8984,4.9001,4.9001,4.9001,4.9001,4.9001,4.9001,4.9001,4.9001,4.9001,4.9001,4.9001,4.9001,4.9001,4.9001,4.9001,4.9001,4.9001,4.9001,4.9001,4.9001,4.9001,4.9001,4.9001,4.9001,4.9001,4.9001,4.9001,4.9001,4.9001,4.9001,6.0018,6.0002,5.9971,5.991,5.9893,5.9893,5.9893,5.9621,5.9344,5.9225,5.8208,5.7237,5.6514,5.6066,5.5917,5.6147,5.7281,5.7831,5.7446,5.7031,5.6987,5.7409,5.7024,5.6418,5.5622,5.5603,5.4803,5.3196,5.3196,5.3196,5.3196,5.2766,5.1891,5.0694,5.0323,4.968,4.8839,4.8907,4.9267,4.9779,4.9779,4.9974,5.0285,5.0649,5.0537,5.0264,5.0718,5.0362,4.9654,4.9564,4.8923,4.8182,4.8168,4.8983,4.9758,4.9031,4.9108,4.9345,4.8908,4.8584,4.847,4.8933,4.9651,5.0211,5.0056,4.9998,4.9804,4.9284,4.8819,4.8406,4.8101,4.7939,4.7986,4.836,4.8428,4.8428,4.8428,4.8124,4.7887,4.7851,4.7547,4.7599,4.8343,4.8766,4.9001,4.9001,4.9001,4.897,4.891,4.8972,4.897,4.891,4.8972,4.9001,4.9001,4.9001,4.9001,4.9001,4.9001,4.9001,4.9001,4.9001,4.9001,4.9001,4.9001,4.9001,4.9001,4.9001,4.9001,4.9001,4.9001,4.9001,4.9001,4.9001,4.9001,4.9001,5.9934,5.9958,5.9963,5.9963,5.9899,5.9869,5.9869,5.9506,5.9197,5.9024,5.8128,5.7341,5.6927,5.6242,5.6069,5.6737,5.7409,5.7446,5.6657,5.6602,5.6657,5.6792,5.6664,5.6271,5.5603,5.5475,5.4675,5.3196,5.3196,5.3122,5.2994,5.2994,5.2072,5.0442,5.0541,4.974,4.8281,4.8389,4.9076,5.0103,5.0063,5.0533,5.13,5.1878,5.14,5.0486,5.1147,5.0468,4.9353,4.9956,4.959,4.9027,4.9665,5.0354,5.0812,5.0261,4.9979,4.9728,4.9273,4.8747,4.8484,4.9272,4.9645,4.9934,5.0396,5.059,5.0502,4.9933,4.9602,4.9337,4.9048,4.9001,4.9001,4.9001,4.9001,4.9001,4.9001,4.8462,4.831,4.8934,4.8462,4.8326,4.8951,4.9001,4.9001,4.9001,4.9001,4.8956,4.8832,4.8941,4.8956,4.8832,4.8941,4.9001,4.9001,4.9001,4.9001,4.9001,4.9001,4.9001,4.9001,4.9001,4.9001,4.9001,4.9001,4.9001,4.9001,4.9001,4.9001,4.9001,4.9001,4.9001,4.9001,4.9001,4.9001,4.9001,6.0061,6.0181,6.0256,6.0256,5.9953,5.9721,5.9721,5.9102,5.8712,5.8965,5.8609,5.8063,5.732,5.6882,5.6682,5.6792,5.6902,5.662,5.5805,5.5768,5.6069,5.6774,5.6124,5.5713,5.5603,5.4924,5.4106,5.3196,5.3196,5.2829,5.216,5.216,5.1298,4.9728,4.9747,4.9627,4.9378,4.9397,4.9516,4.9678,4.9549,4.9922,5.0528,5.0511,5.0787,5.1174,5.1282,5.0739,4.9967,4.9958,4.9848,4.9731,4.9726,5.0354,5.1066,5.0951,5.0279,4.965,5.0086,4.9886,4.97,5.0339,5.0822,5.11,5.0948,5.046,4.9933,4.9619,4.929,4.9048,4.9001,4.9001,4.9001,4.9001,4.9001,4.9001,4.9001,4.8917,4.89,4.8984,4.8917,4.89,4.8984,4.9001,4.9001,4.9001,4.9001,4.8986,4.897,4.8986,4.8986,4.897,4.8986,4.9001,4.9001,4.9001,4.9001,4.9001,4.9001,4.9001,4.9001,4.9001,4.9001,4.9001,4.9001,4.9001,4.9001,4.9001,4.9001,4.9001,4.9001,4.9001,4.9001,4.9001,4.9001,4.9001,6.0191,6.027,6.0279,6.0249,6.0034,5.9652,5.902,5.8925,5.8768,5.834,5.8567,5.8572,5.8032,5.7273,5.6976,5.7428,5.6657,5.6161,5.6253,5.586,5.597,5.6756,5.6033,5.5603,5.5603,5.4803,5.4014,5.3196,5.3196,5.2803,5.2005,5.2005,5.1143,4.961,4.961,4.9314,4.8815,4.8815,4.9042,4.9375,4.9306,4.9737,5.0385,5.0242,5.0402,5.074,5.1155,5.0771,5.0216,5.1077,5.1054,5.0746,5.1148,5.155,5.1874,5.1793,5.0934,5.0121,5.0745,5.0244,4.9673,5.0095,5.0319,5.0363,4.9979,4.9632,4.9364,4.9246,4.9109,4.9001,4.9001,4.934,4.9475,4.9069,4.9357,4.9475,4.9069,4.9001,4.9001,4.9001,4.9001,4.9001,4.9001,4.9001,4.9001,4.9001,4.9001,4.8972,4.8894,4.8955,4.8972,4.8894,4.8955,4.9001,4.9001,4.9001,4.9001,4.9001,4.9001,4.9001,4.9001,4.9001,4.9001,4.9001,4.9001,4.9001,4.9001,4.9001,4.9001,4.9001,4.9001,4.9001,4.9001,4.9001,4.9001,4.9001]}]]